GFSMW_500_rhum_000.txt.gz
RH
45 23 9 28 58 64 56 40 35 35 36 33 27 17 4 1 3 5 8 13 21 23 24 28 32 33 35 33 29 24 21 19 17 14 15 15 16 17 19 19 20 20 20
7 26 38 53 64 55 44 40 39 37 33 24 13 1 4 7 8 13 22 27 32 35 35 34 29 23 18 14 13 12 13 14 16 13 12 11 11 11 16 25 30 35 37
17 34 43 51 51 45 40 37 35 29 15 4 2 8 11 18 26 30 34 38 38 34 28 22 18 16 16 16 14 11 8 8 6 5 5 5 5 5 5 5 5 6 10
34 37 44 46 42 36 36 35 25 14 5 8 11 23 33 38 42 43 40 36 30 24 21 21 18 11 8 6 7 8 8 8 7 8 9 8 8 8 7 7 7 7 7
43 42 40 38 37 33 31 24 10 6 9 21 34 38 45 47 44 37 29 22 21 19 12 7 7 8 8 8 8 9 9 8 8 8 9 11 11 11 10 9 8 8 8
30 29 31 33 34 33 23 10 8 13 26 33 40 44 43 37 29 24 23 18 11 11 10 11 11 11 11 11 11 11 12 12 12 12 12 10 8 7 8 7 6 6 6
18 22 24 28 30 23 12 9 23 32 40 47 48 40 29 24 26 25 18 14 13 13 13 14 15 16 16 16 16 16 15 13 11 8 8 8 8 8 7 7 7 7 6
18 20 23 23 18 12 13 26 42 50 52 46 34 25 28 23 14 12 12 12 12 14 16 18 19 19 19 18 15 12 10 9 9 10 10 10 9 8 8 7 9 7 8
15 16 14 12 15 26 43 50 50 45 34 26 30 28 15 12 12 15 16 16 16 18 21 21 21 19 16 14 12 11 11 12 11 10 9 8 7 6 6 9 13 24 14
13 13 15 25 45 48 46 44 35 29 29 32 26 16 17 19 19 18 18 20 22 22 21 19 17 16 15 14 13 12 12 11 10 9 8 6 6 7 10 18 31 47 67
14 24 43 49 44 41 36 33 33 30 24 18 21 21 18 17 18 20 21 21 21 20 20 18 16 14 13 12 12 11 9 8 7 6 7 9 16 28 44 61 75 80 89
45 53 45 39 36 35 37 33 20 21 24 22 20 20 23 24 24 24 24 22 21 19 15 14 14 13 11 10 8 7 5 5 6 11 30 44 52 59 63 69 73 76 74
51 41 40 38 40 36 20 25 27 24 23 22 22 24 25 25 24 24 23 22 18 16 15 13 11 10 8 5 4 4 5 15 39 66 75 74 73 70 68 61 48 41 37
44 41 44 39 24 26 28 26 24 22 22 24 27 26 26 25 25 24 22 19 16 14 13 11 9 6 5 4 4 15 37 64 84 95 94 89 85 75 64 55 49 45 45
46 44 26 24 28 28 25 26 24 26 29 30 28 27 27 27 24 22 18 15 14 12 11 8 6 4 5 16 27 35 48 61 71 77 75 70 61 54 49 42 36 30 26
27 24 26 28 28 28 30 33 34 33 32 29 30 29 27 24 21 18 16 14 12 10 8 6 4 10 25 29 30 29 28 31 34 37 40 41 45 44 38 31 25 25 21
23 28 32 34 36 37 38 37 34 33 33 32 30 26 24 22 20 17 14 12 10 8 6 7 19 19 16 14 13 12 12 12 11 11 10 9 9 10 10 12 12 9 6
31 36 40 41 42 41 39 38 37 36 34 31 28 26 24 21 18 15 12 11 8 7 11 17 18 16 14 12 11 8 5 4 4 6 8 9 8 8 8 7 6 6 6
40 45 47 46 45 44 43 43 41 38 34 32 29 26 23 20 17 14 11 8 8 15 20 20 18 14 12 8 6 5 8 11 12 13 10 11 14 21 24 20 16 13 13
49 50 52 53 53 51 50 48 45 41 36 32 28 26 23 18 16 12 9 9 18 23 23 21 17 14 8 9 11 12 9 9 8 8 10 12 15 20 22 21 17 13 11
51 53 54 56 55 53 53 52 48 42 36 32 30 26 22 18 13 9 10 20 29 26 27 23 16 11 8 10 11 9 9 8 7 9 11 13 13 12 10 12 14 13 12
52 53 56 54 52 52 57 54 47 40 36 34 29 26 19 15 11 11 22 37 32 32 31 22 15 9 8 8 9 9 8 9 9 11 16 14 13 12 15 15 14 12 9
51 52 52 51 54 66 61 52 45 41 36 33 29 22 19 14 12 24 41 39 36 37 29 19 14 9 9 8 8 8 8 9 10 17 31 25 11 12 12 10 10 7 9
53 54 56 66 75 66 57 49 45 40 37 33 27 23 19 15 24 42 47 42 42 37 25 19 10 12 11 9 9 8 8 8 9 18 32 36 22 7 5 7 7 8 16
58 65 77 78 70 62 55 50 44 42 38 32 27 21 16 22 38 47 49 47 44 33 24 15 11 15 12 10 9 9 8 8 8 11 22 34 27 6 7 9 8 18 22
74 81 80 74 66 59 52 49 46 42 36 30 23 18 21 35 43 45 52 51 44 32 22 13 16 18 11 10 9 8 9 9 9 9 22 34 17 5 8 10 19 24 45

GFSMW_500_rhum_003.txt.gz
RH
40 47 52 50 26 3 21 62 62 51 38 38 39 37 28 12 4 2 6 8 10 17 24 29 36 39 39 32 22 16 14 15 12 11 10 8 7 7 7 7 7 7 6
43 46 38 8 30 46 61 62 51 43 41 40 34 17 7 3 8 12 19 28 34 39 46 45 38 28 22 19 17 13 10 9 10 9 8 7 8 8 8 8 8 8 9
38 16 4 26 47 58 56 49 43 42 41 28 16 8 10 12 18 34 43 48 50 48 39 29 23 20 15 11 10 10 11 11 12 12 12 10 9 8 9 10 11 11 11
14 8 21 30 36 44 45 43 42 40 29 15 9 10 17 31 41 48 52 47 35 27 24 23 17 14 14 14 13 12 11 11 14 16 17 17 16 15 13 13 13 12 10
20 27 35 37 37 38 38 40 39 33 20 12 13 22 38 49 55 50 34 23 23 23 21 16 14 14 14 14 15 17 19 20 19 19 19 18 16 13 13 14 13 12 12
23 27 28 33 38 38 37 39 31 23 13 17 30 43 52 51 42 29 24 20 14 14 17 19 18 16 14 16 18 20 20 19 18 17 16 15 14 14 14 15 16 15 15
18 20 22 25 27 28 27 24 18 16 19 29 54 53 44 30 26 26 17 16 20 20 20 17 15 15 15 16 19 20 20 19 18 17 15 14 13 13 12 11 12 12 12
14 14 17 22 23 21 17 15 19 32 49 52 42 32 24 28 26 19 21 20 19 18 17 17 16 17 18 20 20 20 18 15 14 14 15 13 11 9 7 6 6 6 5
13 15 17 19 17 14 16 26 42 48 40 33 29 28 26 22 21 21 21 21 18 18 18 17 19 19 20 20 18 17 17 17 15 11 8 7 6 5 4 5 13 35 24
15 17 18 15 12 20 41 48 43 37 35 33 26 22 23 22 21 20 19 19 18 18 18 19 20 21 19 19 18 17 14 11 8 7 6 5 4 3 5 17 51 86 95
11 13 12 15 38 53 48 43 40 37 27 21 26 24 21 20 19 20 20 21 22 21 22 22 21 20 19 17 15 12 9 7 7 6 4 3 4 8 14 27 53 81 98
26 30 43 58 58 48 45 44 31 25 27 27 23 19 19 21 22 24 24 23 24 24 22 22 20 19 16 14 12 9 8 7 5 3 4 10 13 15 24 36 54 69 83
63 64 59 51 49 49 39 27 27 27 24 22 21 23 24 25 26 27 26 26 25 24 23 21 19 16 14 11 10 9 7 5 4 8 10 10 11 10 10 11 11 19 37
68 51 47 47 44 28 26 26 24 24 25 26 27 29 29 30 32 30 29 28 27 24 22 19 17 14 12 11 9 7 6 6 12 11 10 7 4 2 2 2 2 4 7
51 45 51 37 25 26 24 25 29 31 33 33 34 35 36 36 35 34 32 30 26 24 21 18 14 13 11 9 7 7 11 15 12 10 4 3 3 5 6 7 7 8 8
40 60 50 47 32 24 30 36 40 40 40 41 41 42 42 42 40 37 34 29 27 23 19 16 14 12 10 8 15 21 18 14 10 4 4 6 7 7 6 6 7 8 10
63 66 42 25 27 37 44 46 45 47 47 47 47 49 49 46 42 38 32 29 26 22 19 17 14 10 11 23 27 25 18 13 6 4 7 8 8 8 7 6 7 10 14
57 31 27 34 45 47 48 48 50 51 52 53 52 52 52 47 41 35 33 29 26 22 18 15 10 12 28 30 32 23 16 8 6 6 7 8 8 7 7 7 8 9 12
27 28 40 49 49 50 51 52 55 55 56 56 56 56 52 44 38 36 33 28 23 18 15 11 12 24 35 38 28 19 11 7 9 8 6 7 7 7 9 12 8 9 14
33 46 50 50 52 52 54 56 58 59 61 63 61 56 47 42 40 36 29 21 14 13 11 14 22 41 41 34 22 14 7 10 10 8 8 7 7 8 23 29 13 8 9
47 50 50 49 52 53 55 60 59 63 64 62 59 50 48 44 39 31 22 17 15 13 17 23 33 44 41 29 20 9 10 12 9 8 8 9 10 13 31 34 25 5 4
48 48 48 51 51 58 63 59 61 64 65 64 56 53 51 44 35 25 20 17 14 18 29 37 45 46 39 27 19 8 13 12 8 8 8 10 12 14 24 32 18 2 7
47 48 49 51 64 64 59 61 68 71 69 60 58 56 49 39 29 23 18 15 18 31 51 55 49 42 35 27 14 11 12 8 10 9 10 12 12 12 27 29 3 6 12
49 48 50 67 66 59 60 65 71 70 64 63 60 53 42 33 26 20 16 16 32 63 68 55 49 43 34 27 12 12 9 10 12 9 13 18 12 12 30 12 6 14 22
48 52 69 69 66 65 67 71 70 68 64 61 54 44 35 30 21 16 15 24 67 74 63 60 54 44 34 23 13 13 10 16 14 20 32 22 12 26 22 8 16 22 44
61 68 71 68 70 74 72 69 66 60 56 51 44 38 33 23 17 15 21 58 71 71 72 69 57 46 38 18 16 13 18 22 31 34 34 17 23 23 9 17 27 88 100

GFSMW_500_rhum_006.txt.gz
RH
51 50 46 42 40 47 52 27 23 51 62 58 47 40 40 32 18 9 7 10 13 26 36 42 45 44 41 33 26 20 16 13 12 12 12 12 12 13 13 16 16 16 15
41 47 45 42 41 46 25 36 58 60 60 51 42 41 30 18 10 10 12 19 33 41 45 43 37 29 24 23 21 18 15 15 15 14 13 12 15 17 18 18 18 18 18
42 44 43 44 38 12 28 63 64 61 51 44 41 28 16 12 12 18 31 42 49 47 37 30 24 22 19 16 17 17 15 12 12 11 11 12 13 14 15 16 16 16 16
46 46 42 21 6 17 30 41 51 52 45 41 30 20 17 18 33 44 51 52 44 34 28 22 15 14 18 18 15 13 12 11 11 12 14 16 15 14 13 15 16 16 16
46 47 40 15 15 27 32 36 46 45 44 34 22 20 24 39 49 56 46 36 31 27 21 16 19 18 16 15 15 15 15 14 15 16 16 16 18 18 17 14 15 14 14
48 52 36 22 29 32 36 45 47 40 28 23 20 29 49 56 50 38 30 29 29 23 20 19 18 16 16 16 15 15 17 18 18 19 19 18 17 15 14 13 11 10 9
42 32 20 24 33 39 44 41 31 24 20 17 33 51 46 40 32 31 32 26 22 21 18 18 17 18 18 18 19 20 20 20 20 18 17 16 14 12 10 10 8 7 6
13 13 16 20 29 32 28 25 21 18 20 31 45 38 34 33 32 25 24 22 20 18 19 22 23 22 22 22 22 22 21 20 18 17 15 13 12 10 8 6 6 5 4
10 13 14 16 18 19 19 19 17 22 38 46 39 38 33 24 25 25 21 19 20 23 24 25 25 24 24 25 24 23 21 19 16 15 14 11 8 7 6 5 4 4 3
15 9 10 15 17 16 15 18 35 49 44 42 36 26 26 27 24 20 21 24 25 26 27 28 28 28 28 27 25 22 19 17 16 14 11 9 8 7 4 3 3 4 7
20 11 9 10 13 18 32 53 51 46 40 31 27 27 27 23 23 26 27 29 30 31 32 31 32 32 31 27 24 21 19 17 14 10 9 9 7 5 3 4 6 7 5
5 10 19 25 39 56 54 48 45 35 29 26 26 25 24 27 28 30 34 34 34 34 36 36 36 35 29 26 23 21 18 14 9 9 8 7 5 6 7 8 7 3 3
16 34 46 58 64 50 48 42 30 26 26 25 25 28 30 32 35 38 38 37 38 41 42 41 38 32 29 26 22 17 12 10 9 8 8 7 8 11 10 6 3 4 6
54 61 69 63 50 48 41 29 32 30 26 29 32 35 38 41 42 40 40 42 45 48 47 42 36 33 28 20 15 13 11 9 9 8 7 16 18 12 6 4 6 6 8
64 72 62 49 54 57 42 49 29 29 35 39 42 45 46 44 44 44 46 48 53 53 46 40 36 30 20 18 17 13 11 9 9 9 23 24 16 6 5 7 7 6 7
65 64 49 52 68 64 47 28 34 42 45 48 48 48 47 48 50 51 53 60 59 51 44 40 34 24 22 18 13 11 10 10 12 22 28 21 10 6 8 8 8 6 7
52 51 56 66 64 42 28 37 46 49 50 50 49 50 52 52 56 60 66 64 55 48 44 37 29 23 16 13 12 12 14 16 26 32 25 17 8 9 8 7 8 7 7
54 67 74 62 31 29 42 50 50 50 51 50 52 57 57 62 69 73 69 59 52 49 40 31 23 17 14 12 13 18 20 28 36 32 24 10 8 8 8 7 8 8 10
73 79 70 38 30 42 49 51 50 51 51 59 61 60 67 75 78 73 61 56 52 42 33 28 21 16 14 14 23 27 28 38 39 30 14 10 9 11 10 8 8 9 11
87 83 49 31 44 50 53 51 50 50 61 65 63 69 76 78 72 62 58 51 40 35 33 25 18 15 15 20 30 33 43 44 36 24 12 11 15 12 10 10 9 10 10
77 44 34 44 49 52 53 49 48 60 70 72 70 74 76 69 60 55 44 31 22 17 18 20 16 15 18 31 40 53 54 46 34 15 12 18 23 25 30 26 18 12 16
33 36 45 48 52 52 51 48 59 70 71 73 77 74 66 58 48 38 25 18 16 18 19 18 16 19 31 42 56 60 53 44 27 13 16 22 27 34 34 27 14 16 16
43 46 48 49 51 48 48 58 69 71 74 76 70 60 48 42 39 33 27 21 20 20 19 18 18 32 43 57 65 54 50 43 16 14 24 26 32 34 34 16 22 15 18
46 46 48 48 43 52 60 69 69 74 71 59 44 38 40 40 35 26 20 20 22 20 18 18 28 40 54 63 56 50 46 33 11 18 29 31 27 25 23 27 16 22 70
48 49 42 45 58 64 66 71 70 56 42 37 38 38 33 26 22 20 21 22 20 18 18 30 42 51 59 54 52 50 40 18 12 25 32 28 28 31 29 16 30 94 93
41 41 61 63 65 66 68 55 42 37 38 34 27 24 22 19 18 20 21 19 14 16 41 50 57 60 53 54 53 44 30 10 15 29 31 28 28 18 15 57 99 93 100

GFSMW_500_rhum_009.txt.gz
RH
36 50 55 61 60 54 45 37 35 45 43 14 56 61 55 45 39 36 22 11 10 15 25 34 42 42 38 34 27 23 19 16 15 17 16 13 12 13 13 13 13 13 14
35 42 47 54 51 47 44 40 42 40 16 49 63 62 51 41 39 25 14 13 17 28 42 47 44 36 29 24 18 15 18 20 19 16 14 13 14 14 14 14 14 15 16
37 36 40 46 43 45 45 44 42 38 75 65 58 51 43 38 28 20 16 21 39 52 50 42 35 31 23 16 18 20 17 15 15 15 14 13 12 12 13 13 14 16 16
34 30 33 41 45 44 39 18 7 11 43 44 51 45 41 30 23 18 27 44 52 45 36 34 35 26 21 18 16 16 17 17 16 16 17 18 15 13 10 14 16 15 14
35 40 43 46 46 43 26 8 6 23 31 44 47 41 27 23 21 44 51 48 41 35 37 32 24 21 18 17 21 22 21 19 19 20 19 21 22 21 18 14 14 13 12
38 43 46 46 48 47 23 22 26 33 42 45 36 26 21 23 40 44 40 34 32 29 25 22 20 19 21 24 24 24 24 25 25 26 26 24 21 19 17 14 13 12 10
36 47 43 41 45 32 24 33 39 43 41 30 24 18 22 36 40 39 36 31 25 25 22 20 22 24 26 27 28 28 28 28 28 29 26 24 21 19 17 16 14 11 9
17 23 27 29 26 15 19 27 30 30 26 21 18 20 42 42 40 34 26 27 26 23 24 26 27 30 30 31 30 29 29 30 31 29 26 23 20 18 17 14 12 10 8
16 10 10 10 10 12 16 19 20 19 19 16 28 46 43 39 30 28 30 26 26 28 29 32 33 32 33 32 31 32 36 36 34 29 25 22 20 19 16 12 9 7 6
31 21 14 11 9 10 11 14 16 14 23 46 49 44 35 29 30 29 27 28 31 34 35 35 36 36 35 35 36 40 42 37 32 28 25 23 21 16 12 9 7 7 7
36 35 31 24 16 12 9 12 23 42 52 47 40 31 28 28 27 29 32 36 38 38 39 39 39 38 39 44 47 47 41 36 31 28 23 17 14 12 9 7 8 8 10
29 26 23 14 6 7 18 38 56 53 46 36 27 28 27 27 32 37 40 41 41 41 42 42 42 47 53 54 51 44 39 32 26 21 17 15 11 10 9 10 10 13 13
20 13 6 6 17 33 55 62 52 47 38 32 40 29 28 37 41 43 44 44 44 46 45 47 54 60 60 55 48 40 32 27 21 15 11 11 11 12 13 13 18 15 16
7 7 23 36 48 63 63 53 53 50 46 43 27 33 42 44 46 46 47 50 50 49 50 58 63 63 58 49 34 22 13 8 9 12 13 13 14 16 19 25 21 19 10
5 16 33 48 62 66 55 51 62 62 48 30 36 45 46 47 48 50 54 54 52 52 60 65 66 59 40 19 14 12 13 13 13 14 14 14 19 34 34 27 23 12 7
14 33 48 55 60 58 51 64 67 39 27 41 47 47 48 49 51 56 58 59 56 64 70 66 57 32 13 13 14 16 16 15 14 14 14 22 45 40 32 30 12 10 12
19 28 39 52 51 55 67 69 41 30 42 48 48 49 50 52 56 62 62 64 70 70 63 52 31 17 16 17 17 17 17 15 15 15 26 47 46 35 36 14 12 15 21
16 34 51 54 58 69 75 55 47 43 49 50 51 52 55 57 65 63 68 71 64 54 42 33 26 23 19 16 16 16 16 14 16 38 54 52 40 43 20 11 16 18 25
36 56 60 68 76 84 91 52 42 50 52 53 56 54 53 66 67 71 62 47 40 39 32 26 19 16 15 17 16 15 12 16 37 52 55 47 44 34 11 19 24 25 31
78 80 78 78 89 87 39 40 51 52 54 56 51 52 67 71 64 42 34 38 31 21 17 14 14 13 14 15 12 10 16 28 41 53 52 48 44 14 15 28 27 24 24
83 94 92 86 78 37 44 51 51 52 54 49 59 68 70 50 36 34 26 18 16 15 15 14 14 13 12 10 11 23 35 45 50 47 41 41 26 10 27 29 26 27 22
90 68 64 47 36 47 50 49 51 54 49 65 68 63 43 36 29 17 13 14 16 16 15 14 12 10 8 10 21 34 44 49 47 41 38 30 10 19 30 25 26 26 16
65 52 35 43 52 52 49 53 54 52 68 69 54 39 35 21 14 11 14 15 16 16 16 13 8 7 11 24 38 43 45 47 43 38 28 10 13 27 27 22 14 13 35
33 39 45 57 51 53 60 49 71 70 66 47 38 32 18 15 15 18 20 19 16 16 13 8 6 14 28 39 42 42 41 38 34 22 9 10 24 28 25 13 17 56 94
55 70 63 58 58 61 63 77 67 52 43 38 29 19 17 16 18 20 21 19 17 14 8 10 18 29 38 40 41 41 35 28 15 7 10 21 27 27 14 22 79 97 98
74 70 62 59 62 74 68 58 45 40 37 27 22 20 17 19 16 17 22 20 16 8 8 20 35 40 41 41 39 32 20 10 7 11 19 25 27 13 29 91 100 99 98

GFSMW_500_rhum_012.txt.gz
RH
29 22 32 32 40 59 61 65 62 57 46 38 38 37 32 58 62 57 48 43 36 25 17 15 30 42 48 44 36 30 26 21 19 20 17 16 16 16 16 15 15 15 15
34 25 28 34 40 55 59 62 51 48 44 40 52 60 55 58 60 52 45 39 30 20 13 21 40 46 39 32 32 30 23 19 17 18 19 18 19 18 18 18 19 19 20
29 21 28 34 38 46 54 53 48 47 44 43 23 55 72 53 50 46 43 30 18 15 28 41 44 35 32 31 24 22 20 18 21 22 20 18 18 18 21 22 23 22 22
34 25 29 37 35 39 44 40 47 45 39 10 7 22 35 41 47 43 27 17 15 30 39 38 34 30 26 24 21 20 21 24 24 25 26 25 23 21 16 19 22 22 21
32 33 25 34 31 33 41 45 45 42 22 10 17 28 37 43 35 24 16 16 29 38 38 34 28 26 24 21 22 25 25 28 28 28 28 29 29 28 25 19 21 22 21
30 35 26 34 39 43 45 45 44 39 26 27 32 36 38 30 23 18 17 34 41 38 29 28 28 26 26 28 29 31 31 32 32 32 31 30 30 28 27 23 21 19 19
37 33 22 36 43 47 44 40 41 37 23 24 28 28 23 21 17 21 40 44 36 29 31 30 28 30 32 34 33 33 34 34 35 34 33 32 33 32 30 28 25 22 20
35 29 12 27 39 39 35 30 26 17 16 17 18 18 18 14 30 47 42 31 31 31 31 33 34 36 36 35 34 36 38 37 36 35 35 36 38 36 34 30 24 21 16
48 42 18 9 9 12 12 12 13 14 15 13 16 16 15 46 50 41 31 31 30 33 35 38 38 38 38 39 41 41 40 37 38 40 41 40 40 33 19 15 14 12 9
46 42 32 25 19 11 10 11 13 14 13 12 15 34 52 48 36 29 29 30 36 38 40 41 42 43 45 45 43 40 39 40 46 44 42 35 17 15 13 10 8 9 9
51 45 39 35 32 29 26 23 18 11 11 24 52 53 46 33 30 34 31 38 41 42 44 46 49 50 50 49 46 46 49 49 45 35 18 14 13 10 8 9 10 10 10
37 35 34 34 33 27 20 10 8 18 36 61 55 48 38 41 42 29 41 43 45 48 51 53 53 54 53 53 54 53 45 32 19 14 13 11 10 9 10 10 10 10 12
28 28 28 25 21 14 6 10 29 54 64 58 54 53 53 44 32 41 44 46 52 56 56 57 54 56 59 54 39 25 20 18 15 12 9 9 9 10 9 9 11 16 17
31 27 20 13 8 7 22 42 60 66 57 55 64 66 40 34 42 45 47 56 59 60 59 57 60 50 30 23 20 16 13 10 9 9 10 9 9 9 9 13 15 19 29
36 35 20 10 6 20 43 58 65 60 53 63 64 36 38 45 47 49 58 59 59 62 60 55 26 24 17 12 10 9 9 8 9 10 10 9 7 8 13 21 30 38 34
40 28 8 8 14 34 54 58 56 54 66 70 39 58 43 48 50 58 57 58 65 64 46 26 17 10 9 9 10 10 8 9 10 9 6 5 6 15 28 39 42 37 35
25 11 10 12 25 43 52 54 59 77 74 73 74 42 49 51 57 56 57 67 66 45 30 12 10 11 12 12 11 11 11 11 8 5 5 8 19 31 37 35 33 30 24
9 5 9 17 31 51 59 64 84 85 92 55 40 50 50 55 56 54 68 69 45 29 13 11 12 11 12 13 14 14 12 8 5 6 14 23 31 36 35 31 27 20 10
20 17 22 43 66 66 72 79 92 92 46 39 50 50 52 57 54 70 71 44 28 15 14 13 12 11 14 16 16 12 8 6 9 18 31 38 35 32 31 28 18 8 22
35 45 70 92 96 96 95 87 77 46 39 51 50 53 57 56 75 70 43 30 17 16 13 12 13 16 18 18 14 7 6 9 18 28 35 34 31 30 25 15 8 18 27
62 83 90 92 91 86 77 75 40 44 53 51 57 56 68 77 64 43 32 20 17 11 11 14 18 21 20 15 8 7 14 25 29 30 28 28 26 18 9 7 20 26 15
70 50 58 68 73 81 47 38 49 54 54 65 65 76 71 56 40 31 22 17 12 13 17 21 23 23 19 8 7 16 28 32 30 27 23 16 10 7 9 23 26 15 46
67 52 55 59 46 36 42 57 62 60 71 75 77 62 46 38 29 24 17 13 14 17 23 26 26 22 11 8 17 27 28 27 20 12 10 10 9 14 25 27 14 73 90
73 49 34 38 48 66 74 69 65 62 79 70 56 41 36 28 23 16 13 14 19 24 29 31 26 15 8 16 25 27 18 9 9 10 12 13 19 27 26 16 66 89 87
48 45 55 70 72 70 63 49 67 77 65 49 42 36 30 23 15 14 16 21 29 35 36 30 19 9 14 24 28 15 11 14 17 16 17 21 27 26 19 83 98 96 100
68 78 83 78 61 46 60 77 71 59 48 42 36 29 22 15 15 17 22 36 43 42 34 17 9 15 25 32 18 12 18 22 19 21 23 26 24 22 91 100 100 100 100

GFSMW_500_rhum_015.txt.gz
RH
23 31 27 20 27 34 36 47 64 67 70 62 59 51 44 43 51 48 57 57 54 45 43 33 21 11 15 33 46 39 33 32 28 25 22 20 19 20 22 23 22 23 24
25 24 32 25 22 30 35 35 57 64 64 57 49 47 46 40 21 53 55 55 47 45 33 21 10 19 30 41 37 33 28 25 23 21 20 21 24 25 26 29 29 29 28
30 22 24 33 27 24 34 40 55 57 60 54 50 48 37 7 12 47 45 39 45 30 21 14 15 30 38 36 30 27 25 23 22 23 26 28 27 25 26 27 27 25 26
32 24 27 28 21 28 35 38 46 49 51 47 47 40 17 10 22 30 38 41 28 21 15 19 34 40 33 28 28 26 24 26 29 31 30 28 26 24 21 23 28 29 28
33 27 26 30 25 27 37 34 36 38 42 45 47 44 27 27 32 36 35 24 19 16 25 39 39 31 31 30 28 30 33 34 34 33 32 33 34 32 26 20 22 27 30
32 29 25 30 32 23 33 35 39 43 46 48 50 45 29 25 27 21 20 17 17 33 44 37 33 32 32 34 37 39 37 37 36 36 35 34 33 33 32 30 28 24 25
32 28 25 28 36 21 32 40 42 45 44 44 40 24 16 16 18 17 15 19 45 48 34 33 33 35 38 39 41 40 41 40 41 42 41 40 41 40 38 34 27 23 20
30 29 28 33 29 14 29 37 40 41 36 26 16 13 15 13 16 15 30 52 46 33 32 33 36 40 40 43 43 43 43 43 43 42 45 46 44 36 26 19 15 12 7
30 33 34 39 19 7 12 22 24 17 12 12 12 13 13 13 17 46 54 47 32 33 36 38 42 44 45 46 44 44 43 42 44 48 40 28 13 9 8 8 6 6 5
31 34 44 49 38 15 10 10 11 11 14 21 20 14 12 33 56 55 47 31 36 38 39 44 45 47 51 47 46 44 44 45 33 18 13 9 8 7 6 6 6 6 6
40 44 48 46 44 40 34 28 29 29 26 18 10 17 48 62 55 50 36 41 38 41 45 45 50 55 55 51 47 47 37 20 14 9 9 9 7 6 6 6 6 6 6
48 50 48 48 44 39 36 34 30 21 13 10 30 60 68 56 59 59 59 38 44 49 48 53 58 59 56 52 50 31 17 10 10 12 10 7 6 6 6 6 6 6 5
45 41 38 36 33 32 30 24 16 9 18 37 59 69 61 57 72 68 36 45 49 50 57 61 61 62 58 52 32 18 10 12 12 11 8 7 6 7 7 6 5 5 6
38 35 33 31 27 23 15 10 15 24 32 55 70 65 56 74 57 38 58 49 51 58 61 61 67 62 54 34 20 13 12 12 12 9 8 8 10 8 6 4 5 9 16
39 36 35 36 34 27 8 7 17 27 48 68 63 59 84 62 58 82 46 56 63 60 61 70 66 53 33 16 14 11 13 13 10 9 11 13 12 6 5 8 13 23 27
44 40 41 42 35 19 9 19 36 53 65 60 61 88 82 89 72 42 62 60 58 62 74 70 52 34 19 15 14 15 13 10 12 13 16 16 7 6 12 21 27 31 32
51 51 49 35 14 12 27 42 51 64 63 65 82 90 96 61 44 57 58 58 67 77 69 48 34 23 19 16 12 12 13 14 17 22 20 9 8 14 20 25 27 27 27
59 57 46 17 6 19 33 48 64 69 75 88 98 96 70 45 51 58 62 73 77 62 43 32 25 19 11 13 15 16 17 22 27 23 8 8 15 20 21 18 16 13 8
65 59 45 24 29 48 64 85 97 98 99 92 92 68 43 55 56 73 81 74 55 40 30 26 14 11 14 16 18 20 23 30 24 8 10 18 16 10 8 8 7 7 9
63 65 56 45 56 75 90 87 93 96 92 90 46 44 53 59 86 83 69 48 38 33 26 13 13 16 17 20 25 32 36 25 10 11 18 12 9 10 10 9 9 17 27
70 57 60 74 65 63 75 84 90 90 56 40 47 64 73 78 79 64 44 38 33 22 14 15 17 20 25 32 37 40 25 10 11 17 10 11 15 14 15 18 25 24 31
71 80 80 77 67 64 74 73 56 40 45 68 83 66 74 76 58 44 39 32 21 14 17 18 20 25 36 43 42 25 10 15 20 10 12 16 16 18 23 25 22 53 98
78 77 81 81 79 79 42 36 49 68 78 61 64 80 71 54 46 38 30 21 17 19 19 19 20 29 37 43 29 10 14 22 10 12 18 19 22 23 24 25 88 98 100
72 74 82 80 66 48 53 74 78 60 57 77 76 66 52 45 37 29 19 20 20 20 21 22 28 36 40 29 10 10 20 9 10 17 19 21 23 21 40 93 97 100 100
88 79 74 72 81 86 82 55 49 73 74 70 62 53 44 37 27 20 22 22 23 23 27 32 39 40 27 11 11 20 9 8 15 18 20 23 21 50 100 100 100 100 100
42 39 51 64 59 41 47 69 72 70 70 63 55 44 38 25 22 25 30 31 29 37 46 51 42 24 8 11 19 9 8 13 18 19 22 23 79 100 100 100 100 100 100

GFSMW_500_rhum_018.txt.gz
RH
39 37 24 30 32 21 20 29 36 42 63 71 72 72 67 60 50 48 45 18 48 50 46 46 41 38 24 16 13 17 23 36 38 33 29 26 24 22 22 25 27 28 28
38 39 25 22 33 26 20 26 33 36 42 64 69 68 66 52 50 46 14 12 31 38 43 39 39 24 17 13 16 31 40 38 34 30 26 24 27 29 31 32 31 31 33
42 41 27 23 27 33 28 25 26 36 38 52 65 64 61 50 48 29 16 19 28 33 38 35 22 17 17 20 36 43 34 31 28 27 31 33 33 32 33 34 35 34 34
44 39 34 29 24 27 35 32 22 32 39 53 56 55 50 47 48 36 28 28 31 33 25 19 16 17 29 46 40 34 29 27 32 34 35 32 31 30 29 31 35 36 36
50 44 37 30 26 26 31 22 27 34 38 45 48 45 46 47 50 42 26 23 23 19 17 15 20 44 46 36 32 29 29 33 36 38 34 35 34 34 31 28 28 34 38
50 41 37 30 26 28 35 32 24 36 39 39 41 44 47 46 43 26 20 16 16 16 14 29 50 45 35 31 33 38 40 39 40 37 38 38 36 35 33 30 29 26 24
50 41 40 34 29 26 30 38 20 26 38 40 42 46 42 37 24 17 17 16 15 16 42 54 45 34 34 39 41 42 42 43 43 44 42 40 37 36 33 29 24 20 18
48 46 41 35 29 27 31 36 15 23 38 41 43 40 30 16 15 14 17 14 20 51 56 47 35 36 41 39 43 45 47 52 49 45 42 42 39 26 15 12 13 13 10
45 41 41 33 31 35 41 26 8 17 33 34 27 16 12 14 20 18 13 29 56 57 47 36 37 43 39 47 49 52 57 55 52 48 49 39 21 12 12 12 12 11 10
41 40 37 34 36 44 41 19 6 6 10 11 12 14 24 22 15 15 44 63 60 57 47 55 48 42 52 52 58 63 60 55 52 50 36 21 14 14 16 16 13 10 8
41 38 40 41 51 53 40 24 20 24 26 27 28 28 21 12 24 61 69 58 64 68 71 53 42 53 50 64 66 63 58 53 46 29 17 17 19 18 13 9 8 7 7
42 45 48 54 55 47 42 43 38 34 32 32 25 16 13 45 72 75 65 57 61 69 49 50 66 53 73 63 66 59 54 43 30 22 21 14 10 10 9 8 8 7 8
50 50 53 58 56 52 46 41 38 34 28 19 11 23 50 73 78 72 58 62 72 56 73 64 55 78 62 70 61 51 38 29 22 12 10 11 10 10 10 9 8 10 9
47 51 50 47 43 40 37 32 24 16 13 17 28 42 64 72 64 56 64 85 75 90 47 63 80 66 77 62 46 34 27 15 11 12 12 12 11 10 9 11 13 8 4
52 48 43 41 38 37 36 30 19 13 14 20 33 49 53 57 60 69 92 96 93 53 67 77 70 84 62 42 32 27 13 12 12 12 10 11 11 13 17 13 6 8 13
60 53 48 46 46 44 39 26 20 16 19 29 34 44 62 66 79 97 100 92 70 55 76 79 86 60 39 33 25 13 13 12 12 13 13 15 17 18 9 5 13 13 9
67 58 51 50 48 40 25 15 13 17 21 33 56 72 80 94 100 96 83 60 54 73 92 85 56 40 33 24 14 14 13 16 17 15 15 19 16 7 6 12 8 10 15
73 68 62 59 52 31 16 14 22 36 55 73 93 98 100 94 92 73 47 59 83 87 82 51 41 33 25 16 15 14 17 18 17 19 24 16 6 8 12 7 10 12 17
66 63 66 63 51 36 37 44 54 76 92 90 91 95 95 85 49 49 76 80 79 78 48 41 33 22 16 15 17 18 17 17 20 24 15 6 10 10 8 12 15 21 25
64 66 65 73 67 58 56 70 81 77 77 83 90 92 62 44 68 84 65 85 67 49 40 31 20 18 17 19 20 16 15 20 22 15 7 12 8 9 15 17 20 22 28
60 72 86 73 59 64 76 72 62 68 81 83 59 42 59 80 67 72 83 59 49 39 26 20 20 20 20 19 17 21 26 25 14 7 10 7 9 16 18 20 21 62 94
78 71 64 69 78 82 85 88 84 88 58 40 58 78 71 62 80 76 58 49 39 26 21 21 21 22 21 22 24 26 26 13 8 10 6 7 15 18 19 21 75 98 94
75 82 85 89 79 82 86 95 84 58 66 83 79 57 74 79 71 59 48 38 26 22 23 22 24 23 23 23 24 24 12 7 9 6 7 15 18 20 25 85 91 93 98
97 94 90 82 88 89 74 74 74 76 74 51 67 76 78 71 61 46 37 26 23 26 27 28 25 23 24 24 22 11 7 8 6 6 15 19 20 38 88 89 90 95 96
90 95 96 89 77 56 47 58 58 43 65 74 77 82 74 61 46 34 27 26 28 30 30 27 23 23 25 22 11 7 8 7 6 12 19 23 58 96 94 90 94 95 96
67 52 36 27 34 57 62 48 63 76 70 81 82 74 56 45 33 29 29 31 34 33 29 26 27 31 25 11 7 8 8 6 11 17 23 70 92 91 96 97 98 97 99

GFSMW_500_rhum_021.txt.gz
RH
21 52 52 39 31 27 25 12 17 31 38 48 62 66 72 76 74 66 56 49 48 32 11 28 36 37 38 38 34 22 18 16 17 38 42 40 36 32 28 30 34 36 34
17 36 54 42 34 24 32 36 23 20 28 38 44 61 72 73 70 66 56 49 43 18 16 24 29 33 32 25 19 15 14 31 46 42 36 32 30 32 37 39 38 35 36
12 17 56 49 37 24 30 40 32 20 22 28 38 44 54 68 67 64 53 48 44 31 29 29 26 24 18 16 13 15 44 47 41 34 34 37 41 40 40 41 40 41 41
11 15 41 50 36 25 25 32 40 40 40 27 31 39 44 58 60 55 48 48 48 40 31 26 20 17 17 13 16 46 47 38 34 38 43 41 38 40 43 46 46 43 41
12 18 37 53 37 31 30 30 32 39 27 19 27 37 43 52 51 47 48 48 44 33 24 18 16 18 14 18 48 47 36 35 44 44 42 43 47 51 48 41 40 42 43
14 22 32 54 38 34 34 38 41 40 28 23 29 35 39 42 43 45 45 40 32 21 17 18 19 13 29 51 50 37 38 44 42 45 48 51 54 56 50 42 36 31 33
16 27 48 55 40 38 38 38 42 46 42 24 24 39 40 41 42 43 38 31 19 17 19 18 17 38 53 51 40 44 48 44 48 54 54 59 62 56 48 42 37 31 28
19 26 53 54 44 40 40 36 36 40 41 26 14 30 38 39 41 36 27 18 18 21 17 26 46 56 58 49 56 59 46 48 54 54 63 64 60 50 44 36 30 27 22
22 28 57 60 43 41 40 38 38 44 36 13 9 24 32 33 30 21 20 21 23 17 36 54 58 61 64 69 66 45 51 60 57 66 67 64 51 37 30 26 20 13 14
27 37 62 58 42 41 38 38 46 50 40 11 5 10 15 16 16 21 24 22 18 46 63 64 59 58 66 63 49 64 60 56 69 70 67 46 33 29 18 11 11 10 10
30 47 58 47 41 40 40 47 54 46 24 12 9 14 19 22 27 28 18 25 52 68 73 60 56 71 64 70 76 52 65 69 74 69 43 33 28 14 12 10 10 12 10
44 62 53 47 46 44 47 57 48 28 19 29 29 30 30 32 24 16 35 55 74 70 54 56 80 82 91 65 60 72 72 81 65 40 34 25 14 13 11 12 11 10 10
63 52 51 45 46 51 60 52 38 37 39 34 34 35 30 18 23 42 58 66 56 53 63 84 90 96 67 68 68 79 85 60 40 35 25 16 14 12 12 12 11 10 9
65 65 58 62 67 66 60 54 47 42 40 37 30 19 17 27 36 54 47 54 60 71 87 92 89 72 55 68 83 84 56 42 34 22 18 15 14 13 13 13 12 10 7
67 75 76 69 61 55 51 47 41 34 27 24 18 19 20 38 38 40 62 68 81 91 93 81 60 52 75 83 83 55 42 30 20 18 16 15 16 16 15 13 9 6 6
72 69 62 54 48 45 42 41 42 35 26 26 18 22 30 33 53 76 88 92 92 89 77 48 66 84 75 84 53 40 23 20 18 17 18 18 18 16 13 8 5 7 6
72 68 62 56 53 52 51 48 39 29 17 16 20 30 48 69 87 94 92 97 92 57 53 85 73 79 77 51 34 23 22 19 19 20 20 19 16 13 8 5 6 6 13
88 82 73 66 62 58 53 45 31 18 19 32 49 63 86 93 87 93 96 82 50 70 83 66 88 64 48 30 24 24 22 22 22 22 19 17 14 7 5 6 6 12 18
91 83 77 71 62 61 53 41 37 44 50 64 85 87 74 75 86 90 60 56 80 68 72 85 60 43 29 24 25 24 22 21 17 20 18 14 7 5 6 6 11 18 20
79 79 67 62 69 69 66 66 61 62 82 87 71 71 88 93 62 49 81 77 63 83 74 58 42 28 27 27 24 21 11 15 17 18 14 6 6 7 6 12 17 22 72
70 69 68 67 76 84 77 63 70 85 85 88 94 97 76 50 82 84 62 71 82 71 58 40 28 28 28 26 22 14 17 18 18 12 6 6 7 6 13 18 32 84 90
65 69 73 82 76 67 76 86 88 90 92 95 89 70 82 88 63 63 79 82 73 55 37 30 31 31 27 22 19 20 21 22 12 6 7 8 7 14 18 42 86 92 91
83 77 74 79 90 92 92 78 81 92 85 78 81 76 55 58 76 82 83 69 50 36 30 32 31 26 20 19 19 20 23 14 6 7 9 7 14 19 54 83 89 87 91
86 88 93 95 93 91 95 97 90 75 58 64 54 54 77 77 84 78 62 48 37 32 34 30 25 21 19 18 16 19 16 6 7 10 7 15 19 62 78 84 87 88 91
94 93 92 92 94 88 71 47 44 65 61 56 77 74 75 78 69 55 49 39 35 33 29 23 20 18 16 16 17 16 7 7 10 7 15 21 67 88 89 89 88 90 90
100 79 60 51 46 38 35 60 70 53 77 77 68 75 74 63 55 54 44 38 34 31 27 24 19 18 21 22 17 8 8 11 8 14 22 69 88 94 96 96 90 64 38

GFSMW_500_rhum_024.txt.gz
RH
14 14 13 17 47 52 43 35 29 27 12 23 35 62 66 75 75 80 79 78 70 56 50 49 38 13 18 27 30 30 26 18 17 14 21 42 47 44 37 35 37 41 41
15 17 13 13 38 54 45 39 30 35 20 17 33 48 48 58 68 74 76 74 68 60 51 48 45 30 30 30 27 20 17 19 14 21 46 47 40 36 39 45 44 41 43
18 16 16 14 18 53 50 41 29 33 43 27 21 31 44 45 52 67 70 70 66 61 51 49 48 42 33 28 18 16 21 15 18 42 45 44 42 49 48 47 47 48 54
22 22 18 15 17 51 51 42 32 26 36 41 24 25 30 34 40 44 50 64 62 54 49 48 44 39 27 17 17 22 13 25 44 50 46 48 52 46 38 47 55 56 59
26 27 24 17 18 25 55 44 34 24 26 37 39 39 32 28 36 41 50 55 52 48 47 44 39 30 20 19 21 15 35 48 52 49 53 56 53 49 45 50 55 60 61
28 27 28 18 16 20 52 46 36 27 28 32 35 31 20 24 32 38 41 44 43 45 44 38 31 22 21 21 19 40 54 60 61 64 63 54 50 51 59 56 55 47 48
28 27 28 20 17 24 53 49 39 34 34 37 40 34 24 25 37 38 38 40 42 42 36 30 23 23 22 25 46 57 61 62 67 71 56 53 62 64 61 59 52 46 45
24 26 30 19 22 29 57 51 45 39 38 41 44 44 34 18 19 33 40 41 39 34 26 22 26 23 28 52 63 60 57 65 70 61 75 74 61 66 67 64 56 47 40
26 33 32 19 28 45 59 53 48 40 40 37 37 42 30 13 12 22 32 32 28 24 25 29 21 36 58 66 60 55 71 75 75 86 62 66 70 73 69 55 43 39 35
29 36 30 26 37 66 62 54 48 42 40 38 38 43 32 7 7 11 14 17 27 31 30 22 48 62 60 50 53 78 86 92 78 66 63 76 74 67 51 42 35 22 17
43 36 28 31 45 71 61 54 50 44 41 42 45 46 35 13 10 15 23 32 35 26 29 50 56 52 47 57 80 90 92 75 57 62 77 78 68 49 39 24 17 18 18
45 33 34 41 77 73 56 50 49 46 45 50 53 38 16 18 28 31 36 37 22 39 40 48 50 56 67 86 90 88 63 52 74 76 79 65 47 30 19 19 21 19 15
41 40 46 54 72 63 54 52 52 50 52 58 40 21 33 35 37 37 30 25 36 42 43 56 67 80 92 89 80 50 69 78 74 80 57 41 25 21 20 13 10 8 8
51 42 40 56 68 56 53 56 54 57 60 43 34 38 40 39 31 22 28 31 42 47 67 81 93 95 90 58 60 80 73 78 72 49 34 23 24 13 10 8 8 7 7
72 72 82 77 64 58 58 56 64 60 48 45 43 40 32 25 20 22 38 44 63 78 92 93 91 76 50 73 80 70 82 61 46 28 26 27 17 10 9 8 7 8 6
88 96 93 76 72 66 76 70 58 51 48 38 34 33 25 17 26 35 53 72 93 88 90 89 66 55 79 70 73 79 58 39 26 28 25 17 12 10 10 9 8 6 5
90 96 97 92 79 71 61 53 45 42 46 44 31 14 18 30 49 62 87 94 78 86 84 53 74 78 65 79 72 56 36 28 30 23 15 12 11 11 10 9 5 6 7
75 83 71 64 60 58 61 62 57 47 33 20 18 29 49 62 77 90 77 78 93 66 60 85 67 70 82 71 53 33 30 30 28 19 15 12 10 12 10 5 6 7 13
73 83 84 83 81 76 68 57 46 37 34 44 57 62 73 90 84 85 96 92 58 84 75 62 78 81 68 47 32 31 31 27 19 16 14 12 12 10 5 6 6 14 25
94 94 97 98 97 79 71 66 67 66 68 67 69 84 92 92 97 98 76 85 82 59 72 81 78 59 44 33 33 33 26 20 16 14 13 14 9 6 7 7 14 32 78
84 93 91 83 75 74 80 81 86 83 70 78 90 93 97 98 90 81 82 58 65 77 78 68 53 43 36 36 35 28 20 16 14 14 16 10 7 8 7 15 40 74 76
98 92 87 87 81 82 89 91 75 84 93 94 88 96 95 81 71 56 62 76 76 73 60 52 45 39 40 35 24 18 18 16 15 17 8 7 9 8 15 40 78 78 85
98 93 92 91 88 83 86 92 97 98 96 97 96 75 64 60 60 77 74 74 66 55 55 48 41 40 34 24 20 18 18 18 18 7 7 10 9 16 48 74 77 86 87
95 91 88 89 92 96 99 98 100 98 87 56 53 65 60 77 73 72 70 61 58 59 46 42 39 29 23 21 19 18 18 17 7 6 10 10 16 51 74 78 81 80 73
99 98 99 98 97 97 90 69 49 38 44 65 62 75 78 66 70 66 62 64 57 45 42 32 26 23 20 19 16 17 17 7 6 9 10 16 58 87 86 79 52 36 27
100 99 99 86 63 51 39 36 49 72 64 72 85 67 67 70 68 67 67 50 47 36 29 26 22 21 19 18 18 17 7 7 8 10 13 58 87 82 47 29 29 28 34

GFSMW_500_rhum_027.txt.gz
RH
19 16 15 15 10 12 18 51 54 47 39 32 33 16 30 42 59 66 81 79 86 86 79 76 71 62 54 50 45 35 32 30 30 26 18 22 18 18 36 41 43 41 43
17 17 17 16 13 12 14 32 51 50 42 32 33 14 29 54 58 62 68 76 81 83 80 74 70 64 55 50 49 48 38 30 21 17 20 18 27 41 47 43 42 46 48
18 20 18 17 18 14 15 22 45 54 43 36 31 37 32 57 70 61 57 64 73 74 75 70 68 63 53 49 48 42 35 20 17 22 21 24 40 43 45 46 51 50 51
28 28 24 19 19 19 15 16 30 58 48 41 30 43 52 42 38 34 40 45 49 57 56 60 62 55 49 48 44 37 24 17 24 21 25 37 41 42 39 53 57 52 53
30 30 30 26 29 25 18 16 18 45 56 47 31 35 52 60 48 44 32 31 40 43 46 54 51 47 46 44 38 28 18 24 21 28 40 44 42 35 29 42 62 72 68
26 24 28 28 31 32 24 17 18 38 56 48 40 29 45 48 42 34 25 26 34 39 41 42 41 43 42 36 31 21 25 20 28 45 47 39 38 54 63 58 60 57 60
24 25 26 25 33 35 31 20 20 31 54 49 37 32 31 34 36 30 24 30 38 37 39 41 42 40 35 30 25 27 20 32 44 43 34 43 67 73 74 68 60 52 45
29 36 35 32 32 33 32 22 20 30 54 51 46 36 34 32 39 39 32 21 20 30 38 38 34 32 32 30 28 21 36 44 39 41 62 77 76 78 62 56 52 40 50
33 32 37 37 34 33 30 23 24 43 59 55 52 42 37 36 44 41 39 17 13 18 23 26 33 39 35 27 28 36 41 41 56 71 77 80 69 56 62 62 65 59 49
36 34 32 34 31 34 28 25 34 48 58 56 53 45 40 39 36 39 39 15 10 15 25 44 44 36 27 33 39 38 52 68 81 78 72 57 61 65 70 68 59 53 35
37 31 28 28 30 34 27 26 34 46 58 62 55 48 44 42 43 47 47 28 16 32 51 49 34 30 34 38 44 68 81 84 80 54 61 64 68 73 63 58 41 26 20
40 31 27 26 28 33 27 29 49 53 63 62 56 51 49 50 58 52 26 22 35 53 50 34 36 37 40 64 84 85 84 67 53 66 69 72 72 62 53 31 26 23 16
38 35 32 27 32 31 32 46 61 66 64 59 58 55 54 66 57 22 31 41 50 43 38 37 44 57 80 86 84 84 53 62 70 68 75 70 63 40 28 27 22 17 13
40 33 33 33 34 35 39 60 75 72 63 59 61 61 70 64 27 35 46 49 38 38 38 52 76 91 81 84 79 53 70 67 72 77 68 52 33 30 26 21 15 12 10
40 37 40 37 37 40 41 69 78 69 63 67 67 74 65 36 41 48 40 35 32 43 68 89 91 74 85 70 61 73 64 78 77 60 42 32 31 28 20 15 13 9 9
82 66 50 45 61 77 87 84 74 74 73 70 80 53 43 49 43 34 23 34 52 85 97 78 79 89 63 74 66 68 78 71 52 40 34 33 26 18 16 13 10 9 6
85 67 58 58 58 72 81 79 78 75 82 69 49 48 47 45 25 23 44 71 91 91 83 93 87 74 74 63 76 75 62 48 41 36 34 23 18 16 12 11 9 6 6
70 60 63 72 88 87 93 93 87 69 58 51 52 50 25 22 38 65 82 98 90 93 91 80 78 64 70 76 70 56 50 42 38 32 21 20 14 13 12 9 5 6 7
97 94 97 96 98 99 98 91 76 66 60 41 23 25 46 71 77 95 94 93 94 91 80 66 62 76 72 64 54 53 43 36 24 23 19 15 13 13 8 4 5 7 13
97 97 94 93 94 94 92 86 71 54 48 56 70 77 76 87 96 94 95 96 85 69 59 74 73 68 59 56 54 41 28 24 20 17 15 14 12 7 4 6 7 12 44
98 98 97 96 97 98 90 85 86 93 94 94 86 89 99 96 94 96 90 67 60 72 75 68 65 58 58 49 36 26 23 18 16 15 14 11 6 5 7 8 14 51 73
94 94 89 86 86 86 86 92 98 99 93 96 97 97 98 98 87 64 63 68 76 68 66 63 62 60 42 32 27 23 20 16 16 14 10 6 5 7 9 15 61 81 82
85 86 81 79 82 86 92 94 96 97 98 99 100 98 75 52 65 66 77 71 65 65 65 66 52 40 33 29 24 20 18 17 14 10 5 6 7 9 16 69 80 77 50
80 82 85 86 88 92 96 100 100 99 99 84 49 45 66 67 77 77 63 65 68 69 63 43 37 34 28 24 21 20 17 14 12 5 5 6 9 22 73 61 28 22 24
75 79 82 84 92 98 98 92 72 50 40 48 72 70 74 80 71 68 73 74 69 51 41 37 32 26 23 22 20 16 14 11 5 5 6 9 34 75 38 26 32 32 34
83 88 91 97 95 76 62 46 41 48 70 72 74 82 77 70 72 80 78 64 45 41 37 32 26 24 24 19 16 14 9 5 5 6 9 48 52 29 39 41 37 32 36

GFSMW_500_rhum_030.txt.gz
RH
13 12 13 21 22 16 13 14 30 66 60 52 47 39 32 43 52 35 34 43 59 88 88 88 87 87 78 74 72 68 62 52 49 48 46 36 22 16 22 24 19 25 34
18 14 14 16 24 20 14 13 15 33 66 62 53 45 41 36 44 38 50 66 71 80 86 92 89 87 83 77 70 67 60 50 49 48 42 30 18 20 26 24 25 34 41
26 23 18 17 20 22 16 14 14 19 26 54 59 53 48 35 40 24 59 78 70 77 83 82 81 76 76 71 66 64 55 48 49 44 38 20 20 27 28 36 43 48 48
28 31 23 18 16 20 20 18 15 18 17 22 52 58 51 39 40 42 40 73 75 70 71 69 62 57 58 51 56 55 47 47 45 39 26 21 28 17 23 46 45 40 46
23 30 31 23 18 21 21 21 18 16 15 15 39 60 54 45 42 65 75 72 51 44 40 34 38 43 43 44 47 44 43 44 40 28 23 28 20 23 27 26 39 53 68
22 24 33 29 25 21 22 21 22 21 17 16 20 58 61 54 56 62 70 71 60 54 49 31 32 36 39 40 42 43 39 34 24 27 27 21 28 26 25 37 50 61 76
26 31 28 32 33 29 27 27 26 27 23 18 18 39 65 62 66 54 58 62 42 31 26 26 37 38 40 43 40 34 29 26 30 23 21 27 25 38 53 56 58 57 52
26 38 35 31 33 30 26 26 31 33 30 21 19 26 60 57 43 40 45 51 50 38 36 26 22 25 29 31 30 31 32 33 21 23 25 34 57 62 65 61 51 44 41
34 31 43 31 31 28 23 34 32 34 32 25 20 22 58 59 50 57 58 64 58 54 35 22 13 13 19 27 40 40 32 23 26 27 53 65 68 67 51 48 44 50 45
44 32 41 40 29 26 29 37 36 33 30 28 22 27 56 63 65 61 60 63 60 46 44 39 27 20 33 50 46 32 29 30 45 68 75 75 57 51 54 56 58 54 45
45 47 41 38 34 35 38 38 36 33 30 27 24 38 65 66 67 59 61 60 64 67 60 40 27 45 56 45 33 33 42 72 80 80 79 53 58 57 63 59 51 41 37
44 54 51 36 37 44 43 39 35 33 31 29 36 55 73 71 68 62 60 69 81 73 36 35 54 58 41 37 40 55 88 79 78 71 59 60 62 66 56 46 41 37 30
40 54 53 38 39 41 37 35 32 34 32 36 42 45 72 74 68 65 74 81 90 41 41 64 59 42 40 48 76 90 77 82 70 68 61 68 63 53 45 43 34 26 19
44 49 50 41 33 32 29 28 35 35 47 41 38 64 78 72 76 77 84 99 53 47 73 61 49 46 60 89 86 87 84 74 68 64 70 60 50 48 42 30 21 16 12
67 52 48 41 32 30 32 35 39 48 48 48 67 83 82 82 92 86 100 61 53 73 61 54 55 77 97 90 92 79 76 63 70 68 58 51 50 36 25 17 13 13 14
73 55 46 38 34 35 40 39 38 42 52 72 90 100 97 98 93 98 55 61 62 61 60 59 94 99 95 91 82 69 63 73 64 56 54 47 30 21 16 15 15 15 14
51 48 44 47 46 42 45 45 45 51 94 85 97 96 98 99 91 58 60 57 55 53 77 100 97 98 94 80 62 71 71 65 58 56 37 26 22 17 16 14 14 14 10
55 49 57 58 49 46 48 55 75 92 98 92 90 99 96 89 78 61 50 40 67 96 100 97 100 91 68 65 74 69 62 60 51 32 28 22 18 16 14 13 13 8 4
90 82 69 56 54 64 91 97 96 99 99 98 93 94 95 71 37 33 74 92 100 97 100 100 72 62 74 73 68 62 61 42 32 30 22 20 15 15 14 12 6 4 6
81 90 87 83 89 94 95 94 93 90 93 96 97 76 55 68 93 98 100 98 99 100 82 63 70 76 71 68 66 58 37 33 27 22 21 18 15 14 10 4 4 6 12
99 100 100 100 100 100 99 98 97 96 96 96 95 96 97 100 99 98 99 100 82 64 67 77 72 72 70 67 47 36 33 25 23 20 17 15 13 8 4 5 7 28 67
97 95 96 97 98 98 98 96 93 95 98 98 97 96 93 94 100 98 74 64 69 78 78 75 74 73 60 40 37 31 26 24 22 18 16 15 6 4 5 11 47 61 36
100 99 96 94 94 96 98 100 98 96 94 90 89 93 95 81 54 63 70 81 80 75 76 78 72 49 40 36 29 28 26 24 22 17 14 5 4 5 21 48 34 31 37
95 94 93 89 90 92 92 88 85 86 90 90 75 46 47 72 73 84 84 75 74 75 77 64 45 41 34 28 28 26 23 18 16 13 4 4 5 31 39 30 33 26 22
97 97 95 91 86 88 88 86 82 67 47 42 50 74 73 81 87 80 75 71 75 72 54 43 38 31 27 24 22 18 17 13 11 4 4 6 35 33 30 24 17 17 21
95 99 96 90 84 83 78 66 47 42 44 53 68 78 89 84 80 74 74 75 60 46 39 33 29 26 19 17 16 15 13 10 4 4 6 34 28 24 19 17 16 18 24

GFSMW_500_rhum_033.txt.gz
RH
16 16 14 14 12 15 18 21 17 15 14 23 53 59 55 47 47 41 60 65 60 43 41 39 52 98 95 90 88 90 80 79 77 70 65 56 49 50 47 43 30 19 27
13 14 17 16 14 12 14 23 23 18 16 14 26 43 53 55 57 55 55 57 65 70 45 72 77 89 99 93 91 90 85 81 76 67 63 56 47 46 44 38 26 26 25
17 15 15 18 16 13 14 18 24 24 17 15 16 19 35 64 57 49 52 52 53 78 78 87 84 91 96 90 88 83 74 67 58 55 57 50 45 46 40 28 26 25 19
16 17 15 16 19 16 14 13 20 26 21 15 15 16 21 40 62 61 56 66 62 69 64 86 97 94 87 80 69 55 49 46 44 48 45 43 44 46 34 27 27 19 28
13 13 16 15 16 20 16 15 14 25 25 15 15 17 15 16 38 64 60 51 63 79 80 74 82 62 63 41 35 35 40 40 40 42 41 40 35 29 28 24 23 24 28
17 15 14 16 17 17 18 17 15 16 21 19 17 16 14 16 24 49 66 66 56 72 75 82 80 71 59 51 30 31 40 40 42 40 34 31 31 31 23 19 24 37 57
20 20 18 18 17 20 21 21 21 15 21 22 18 19 17 18 18 29 61 78 90 81 72 78 74 46 34 31 30 34 32 30 26 24 28 37 31 21 21 26 40 47 60
16 20 22 23 19 19 24 24 30 25 28 27 22 23 22 20 18 24 54 71 75 70 53 57 56 57 48 43 25 20 22 24 26 39 42 26 20 25 45 54 54 57 55
16 15 23 24 24 20 26 29 36 34 34 32 29 27 28 24 21 26 47 64 57 58 72 74 70 69 54 37 37 33 30 38 49 42 26 27 43 61 62 64 62 54 42
18 13 16 27 30 23 34 34 39 38 33 33 33 32 34 30 31 28 51 72 73 83 77 78 80 66 70 67 50 37 50 54 40 30 36 64 67 66 68 64 51 49 50
28 16 13 23 34 26 35 40 39 39 32 28 34 35 36 36 28 32 64 74 78 82 85 81 76 84 84 50 41 57 59 44 36 50 76 75 72 72 62 50 61 52 44
33 19 18 29 37 31 38 48 39 38 31 30 38 39 37 33 32 35 67 80 88 88 81 74 85 100 61 44 64 63 53 47 74 83 81 77 72 54 60 60 50 47 46
36 27 24 56 50 40 44 49 46 43 41 41 39 39 38 38 33 46 78 84 82 85 74 84 100 86 49 69 69 55 57 92 91 89 82 70 56 66 57 51 50 44 27
32 24 44 69 63 49 44 47 50 52 46 42 40 40 45 53 53 57 70 83 78 74 77 97 98 54 72 73 55 66 97 96 95 85 63 66 68 57 54 51 35 25 20
41 45 51 74 63 48 42 50 49 49 46 42 40 54 68 47 49 55 86 79 97 88 97 98 59 71 72 57 82 97 96 98 81 64 72 65 57 57 43 30 24 18 14
34 56 57 71 64 44 49 45 43 42 40 40 60 68 54 48 55 99 89 86 96 98 92 64 73 72 56 98 98 96 96 71 68 74 64 61 55 36 28 22 20 15 8
90 48 64 66 60 41 39 40 40 56 71 73 60 62 57 60 81 98 99 96 98 83 80 82 52 87 99 96 98 86 65 76 72 68 64 45 33 26 21 19 14 9 8
44 58 61 56 46 39 39 42 45 47 52 50 57 100 80 100 83 98 99 98 88 87 46 82 98 98 98 95 68 70 78 71 69 55 38 31 25 21 14 9 7 7 6
54 52 49 47 50 47 47 48 51 54 63 59 62 97 100 92 100 94 93 77 57 84 98 99 99 99 70 66 79 77 73 68 45 37 29 23 18 11 7 6 7 5 3
64 63 69 70 62 57 57 56 67 87 76 99 98 83 81 99 95 81 90 94 97 99 99 99 73 66 77 80 75 74 61 42 34 25 22 17 10 7 7 7 5 3 9
95 86 76 74 76 73 68 91 86 99 98 97 98 92 87 94 95 90 93 97 99 96 68 67 76 82 79 80 71 51 39 30 24 19 14 9 7 8 9 6 3 13 35
88 88 97 100 100 100 93 75 62 69 81 85 93 89 90 90 92 98 100 83 63 68 78 82 79 78 75 60 43 35 29 24 13 9 8 9 10 11 6 4 15 31 20
97 97 97 97 97 97 97 96 95 95 93 88 91 93 97 99 88 57 61 75 79 86 80 79 74 65 46 37 32 27 19 11 8 8 10 11 9 5 4 16 26 18 16
98 99 97 98 97 97 98 99 100 99 94 96 99 86 50 47 64 81 80 90 83 79 71 68 51 42 36 31 23 13 9 9 8 10 12 8 4 4 15 26 18 17 20
99 98 98 100 100 100 100 98 100 100 86 54 42 44 58 75 77 91 89 85 73 66 56 44 39 35 29 20 11 9 9 9 10 11 6 4 5 14 29 19 20 26 29
96 94 93 95 98 99 98 90 59 43 42 41 46 58 74 90 92 91 77 68 60 48 44 38 33 24 13 12 10 10 10 10 8 5 4 5 14 31 20 22 27 22 22

GFSMW_500_rhum_036.txt.gz
RH
13 12 13 13 13 13 14 13 18 16 16 16 15 13 13 12 31 54 55 54 63 61 66 66 77 69 43 42 44 56 95 95 89 88 89 88 81 75 67 62 55 48 47
13 14 13 14 14 13 13 13 13 15 14 13 17 17 15 22 24 41 55 58 66 69 54 49 56 79 74 50 84 86 92 93 92 87 82 78 68 60 53 55 48 45 46
14 15 16 17 17 16 14 13 13 13 13 16 21 16 13 18 17 21 31 49 66 74 67 69 71 81 92 93 95 90 87 92 85 79 62 50 46 44 47 47 42 42 39
10 11 11 13 14 15 16 15 14 15 14 13 20 18 15 19 23 18 23 40 58 70 74 68 71 84 79 76 87 90 66 66 53 38 36 37 39 39 41 41 40 32 29
10 10 10 10 11 12 16 16 15 15 16 13 14 16 22 27 21 16 17 24 40 59 78 73 62 76 94 89 96 78 80 70 60 38 31 40 39 36 34 27 29 31 28
12 12 12 13 14 14 12 14 16 16 18 16 15 13 21 24 20 17 18 21 22 42 67 82 77 85 89 77 78 81 62 38 37 33 31 22 16 14 11 17 30 29 26
10 11 10 11 13 16 16 14 15 17 18 20 21 16 22 19 19 19 18 20 23 27 52 78 82 97 89 65 67 58 59 56 51 28 25 23 22 23 38 36 28 24 45
37 31 18 12 11 14 17 19 15 14 20 23 30 24 16 22 22 20 20 21 23 26 60 70 78 79 64 62 73 70 73 62 56 60 49 35 38 51 37 26 27 43 55
23 21 40 31 13 12 19 22 21 16 22 23 41 29 22 28 26 22 22 24 26 33 44 67 74 63 75 86 84 86 76 77 72 51 41 57 56 39 36 56 66 59 53
27 61 71 53 18 10 14 27 25 20 22 28 40 29 35 35 30 25 27 29 34 34 36 68 73 79 89 87 82 81 90 94 62 47 66 59 40 51 72 74 72 68 49
98 98 91 64 26 14 10 24 30 25 23 36 29 38 42 40 38 33 34 35 36 40 55 74 81 84 90 88 83 82 98 85 50 67 60 43 62 82 81 78 67 52 61
100 92 96 57 29 20 12 19 45 29 28 37 38 51 42 38 39 40 42 39 45 48 56 74 82 90 89 81 78 94 99 62 70 60 42 80 85 84 81 58 64 66 53
82 80 85 56 32 18 16 20 48 36 32 47 47 50 43 38 38 45 45 47 43 47 71 84 84 90 90 86 100 100 80 71 64 50 91 89 86 77 58 71 62 54 46
82 64 68 47 35 25 40 48 49 42 54 56 51 48 43 44 49 50 47 48 46 66 75 90 88 98 98 99 100 92 83 75 67 95 95 92 66 68 72 59 53 39 28
70 63 75 47 49 38 37 70 73 64 64 56 49 45 48 46 47 51 57 54 64 76 95 98 100 97 100 98 95 93 62 89 98 100 89 64 76 67 59 48 34 26 19
52 50 43 50 47 32 52 88 69 60 61 56 52 51 49 48 55 58 67 65 98 71 100 100 100 100 97 98 78 86 99 99 99 72 75 77 66 57 42 32 24 16 8
42 39 38 46 56 53 96 62 61 59 58 56 53 51 90 88 65 70 66 58 67 98 98 99 99 98 95 97 98 100 100 88 71 82 74 66 50 38 32 21 9 7 7
92 95 83 73 78 84 58 60 57 54 51 52 52 58 63 68 86 97 68 94 99 99 100 99 98 97 100 100 100 88 70 81 80 70 59 41 34 28 16 9 7 7 6
54 63 80 83 71 49 51 50 47 46 58 62 71 85 96 94 98 98 91 97 95 100 97 98 98 99 100 84 66 80 83 73 65 48 38 30 22 11 9 8 6 6 8
59 61 60 52 46 48 48 48 49 56 79 95 77 100 58 100 95 98 97 98 91 88 97 99 99 78 65 80 84 76 66 56 41 34 28 17 9 8 7 7 6 7 7
52 54 57 58 54 51 54 61 61 76 75 100 99 95 100 96 97 85 93 89 93 96 89 67 72 81 85 80 68 58 43 36 31 25 16 10 9 8 7 6 6 5 4
80 76 64 52 59 55 59 90 98 100 94 99 98 97 93 99 86 86 94 90 67 57 74 82 87 84 72 62 49 40 34 28 18 12 11 10 8 7 6 5 4 5 23
96 97 97 98 97 98 98 98 98 98 100 90 97 99 86 77 85 72 42 46 74 79 87 89 84 66 54 42 36 31 22 13 13 13 10 7 7 6 5 4 5 24 20
83 83 80 79 82 85 90 99 99 99 97 89 77 76 75 47 42 49 64 74 88 91 82 66 58 47 40 33 29 22 15 16 13 9 8 9 8 4 5 7 25 20 23
99 98 93 91 89 86 85 83 83 85 86 73 50 46 47 51 59 79 92 91 81 68 61 51 41 36 32 24 19 18 18 12 8 7 8 6 4 6 10 27 22 24 14
86 84 83 85 88 90 91 89 74 51 46 46 43 48 66 83 88 88 84 72 64 55 45 39 35 30 27 24 21 14 8 7 9 7 4 5 6 10 29 25 25 15 17

GFSMW_500_rhum_039.txt.gz
RH
11 10 11 12 14 14 13 13 12 12 13 14 20 29 14 23 18 12 21 23 42 62 61 60 59 64 65 55 55 70 75 42 46 78 79 93 96 92 87 81 75 69 58
11 11 11 10 11 12 13 14 13 13 12 13 14 24 32 44 35 36 49 43 38 44 52 64 72 72 62 65 64 78 92 90 87 87 84 94 95 88 79 58 46 44 44
11 12 11 11 12 13 13 15 15 14 14 13 16 23 30 44 50 55 52 47 28 22 38 52 68 68 65 66 68 78 79 84 89 98 95 81 73 58 42 37 35 40 42
10 11 11 12 13 13 15 16 17 16 15 15 14 12 12 13 19 19 32 44 42 48 58 54 63 59 61 72 72 68 89 98 96 93 93 81 51 38 30 30 32 23 20
9 9 9 9 10 11 11 12 13 15 14 15 15 14 14 17 21 29 42 47 47 54 51 49 45 49 63 76 77 80 90 93 92 91 84 54 50 48 41 28 27 23 18
8 8 8 9 9 10 10 10 15 15 13 13 14 14 16 16 21 32 44 53 47 45 46 40 36 32 51 65 75 83 96 85 71 68 67 63 63 55 52 50 44 34 45
10 10 9 10 9 9 10 11 12 14 18 15 13 12 15 20 20 28 42 46 45 38 59 37 29 39 50 64 74 88 81 62 72 83 78 77 70 71 62 48 37 35 47
18 16 16 24 31 31 27 17 11 11 16 18 14 13 14 20 31 34 40 46 53 44 43 26 28 34 38 79 66 71 68 90 90 81 77 73 77 77 60 41 38 46 36
33 37 37 36 31 26 23 18 26 14 14 20 18 15 15 21 42 46 47 49 43 34 26 27 30 35 57 64 62 73 83 92 92 86 76 83 88 74 51 44 48 36 31
52 44 41 31 25 16 14 14 16 28 15 18 23 20 18 28 41 50 50 35 34 31 30 30 35 57 62 58 66 78 84 90 92 86 82 98 95 68 61 49 40 59 66
77 70 40 36 30 35 42 39 46 35 22 14 30 26 26 34 42 53 47 39 37 35 34 35 46 55 59 57 63 81 89 89 87 83 100 99 88 72 66 56 82 85 81
94 76 41 43 67 70 52 77 36 20 15 13 37 30 26 31 42 55 51 48 45 39 37 48 67 62 65 58 83 88 91 94 89 99 100 94 80 68 65 92 97 84 62
98 86 54 55 81 66 63 100 64 20 49 28 44 33 39 45 49 54 52 49 47 44 48 58 56 76 62 75 77 82 78 91 99 99 97 98 80 94 99 96 71 72 68
100 88 73 48 85 57 87 100 62 83 76 66 61 48 53 54 50 55 50 46 46 56 54 61 49 74 88 71 95 99 93 89 99 98 96 97 100 99 87 74 78 64 52
100 100 65 64 59 60 89 96 50 96 89 89 77 64 58 55 52 52 47 43 46 60 69 58 62 99 100 99 81 90 100 99 100 98 98 100 95 76 79 72 59 44 31
68 62 58 56 53 62 55 46 64 99 86 67 76 68 58 50 52 51 43 57 68 63 59 56 77 88 77 75 94 97 97 97 100 100 99 83 80 80 66 53 37 29 21
52 38 34 32 33 34 29 28 86 88 84 77 69 64 57 54 54 52 53 61 82 65 69 99 97 100 100 98 100 100 98 98 99 81 79 85 70 58 43 34 29 21 13
49 37 37 38 29 26 36 75 93 84 80 70 68 61 58 60 65 100 88 99 89 85 95 82 76 98 97 96 97 99 97 82 78 85 76 62 48 37 31 22 14 11 11
65 67 74 78 79 79 85 77 70 71 71 69 65 78 60 58 95 99 75 88 92 98 89 97 96 100 93 98 87 73 79 86 78 65 54 40 36 27 14 13 13 11 8
75 78 80 73 64 64 69 70 71 70 68 69 66 89 76 93 93 91 99 99 99 95 86 96 84 85 74 64 78 84 83 69 57 46 38 31 23 15 16 15 9 7 7
59 58 53 51 54 55 55 54 51 79 88 96 96 100 100 98 99 94 92 100 98 92 83 75 55 65 78 80 83 73 58 48 41 33 26 22 19 18 10 7 7 8 4
72 66 73 70 61 65 91 61 78 85 92 95 97 94 99 98 99 98 90 94 79 52 40 59 69 78 80 70 59 49 41 34 30 26 23 19 14 8 7 8 8 4 5
98 98 98 99 98 94 97 99 92 96 92 100 96 95 97 97 91 82 63 37 38 53 73 77 80 69 61 50 41 36 31 26 24 20 13 8 7 8 9 8 4 6 20
97 100 100 100 99 98 98 98 99 99 98 98 95 88 82 66 40 36 40 55 76 80 79 71 64 55 45 38 37 32 26 19 13 8 6 7 8 8 5 5 7 24 24
98 98 98 95 94 96 96 93 86 83 79 75 64 45 36 34 41 57 68 76 79 73 66 59 51 44 41 36 29 19 10 9 7 7 8 7 5 5 6 8 26 27 17
93 89 85 82 81 79 75 72 73 62 43 39 40 36 48 60 73 78 75 71 67 64 58 53 47 40 36 29 19 12 9 8 10 9 5 4 5 6 15 32 29 18 18

GFSMW_500_rhum_042.txt.gz
RH
11 9 9 8 9 10 9 10 9 8 11 40 46 46 47 50 50 36 28 32 24 25 25 22 42 59 61 60 62 68 62 66 66 72 82 92 94 94 87 94 91 80 68
13 11 10 10 10 11 12 12 10 10 10 12 34 23 24 30 46 53 51 46 46 68 70 45 46 41 52 60 75 75 69 66 66 78 82 86 82 92 96 93 80 62 51
14 15 14 13 12 12 13 14 13 12 12 12 18 35 42 41 46 49 61 59 75 70 76 71 64 48 46 54 72 61 60 65 68 70 80 94 94 94 94 88 62 44 41
15 14 14 14 15 14 14 14 14 13 13 13 13 15 26 38 38 34 38 53 62 65 83 74 65 70 72 67 62 49 58 65 65 72 84 87 82 80 72 61 59 57 53
14 13 12 12 12 12 12 13 13 13 14 13 11 9 10 12 16 16 23 30 58 80 83 84 83 75 74 67 60 47 47 66 66 72 84 87 68 67 73 74 71 67 62
10 10 10 10 10 10 10 10 10 11 12 12 9 8 7 8 13 17 19 27 33 53 67 78 80 75 62 57 62 41 61 62 68 71 80 68 63 79 72 69 69 69 74
8 8 8 8 8 8 9 8 9 9 10 11 11 9 7 8 10 14 19 22 24 34 55 72 73 72 62 66 51 44 62 61 74 61 64 65 77 76 74 68 62 60 72
10 9 9 9 10 13 13 12 11 10 10 11 12 10 7 8 8 13 17 29 34 38 40 56 64 67 71 60 38 39 58 70 67 60 57 61 69 70 70 64 59 57 71
13 16 23 25 27 32 31 25 24 22 24 21 13 12 10 10 13 15 17 27 49 59 63 62 65 72 70 55 30 42 48 66 64 52 56 70 74 76 72 64 60 64 65
34 33 33 43 55 59 55 51 44 38 32 29 26 24 15 13 19 18 20 30 66 73 76 70 75 69 55 37 34 42 63 98 61 55 67 76 84 88 84 77 71 75 77
49 49 49 59 57 56 58 65 59 39 24 17 12 14 22 19 15 24 30 35 57 61 69 72 74 50 40 38 42 57 63 82 57 57 70 72 66 84 97 85 90 87 80
31 32 31 79 100 100 93 63 47 31 18 14 11 14 14 23 29 32 45 49 54 57 65 70 50 48 43 45 50 62 74 68 55 70 88 87 80 100 91 100 99 100 97
25 43 76 94 100 100 99 81 39 32 47 42 33 42 33 45 52 44 58 62 53 60 62 53 51 50 50 54 56 59 79 72 59 72 98 87 97 100 97 100 100 96 96
29 61 97 96 100 100 94 53 36 47 61 69 79 69 50 95 85 62 57 59 56 53 55 54 52 53 76 60 94 54 95 83 94 98 100 96 100 100 100 99 98 94 86
29 54 77 100 100 91 55 46 50 67 83 99 97 62 56 100 90 56 38 38 52 54 56 50 48 76 64 68 57 95 97 97 96 99 100 99 100 98 99 93 82 82 70
33 41 33 40 36 54 70 70 85 91 100 86 92 78 92 95 84 44 43 55 56 59 52 52 55 62 93 65 76 99 91 100 98 98 99 97 98 84 76 83 73 60 44
41 32 35 43 43 47 45 73 40 47 72 82 82 90 94 71 49 43 57 64 60 56 61 65 76 86 98 98 97 96 98 98 98 100 95 72 74 84 76 63 47 38 31
53 41 30 31 30 24 26 29 56 98 99 99 99 99 86 71 68 70 66 63 74 75 63 98 97 91 67 85 97 99 100 95 86 62 75 83 77 61 47 38 30 26 26
65 64 69 57 37 43 63 83 86 89 88 82 87 84 77 72 75 69 64 66 95 97 96 98 97 100 96 98 98 90 78 57 74 82 70 56 47 38 33 27 23 19 12
53 66 91 80 65 67 72 76 77 76 80 77 72 68 74 88 61 70 98 99 98 98 100 100 98 97 98 94 66 40 60 71 66 56 46 40 33 27 20 13 10 7 8
54 53 61 61 83 100 92 88 88 79 72 83 72 93 99 93 99 95 98 95 99 97 96 93 90 74 43 44 66 75 66 55 47 44 42 33 21 12 11 10 9 10 9
84 52 55 53 79 93 64 84 97 99 99 99 99 99 96 96 99 99 98 98 96 90 78 50 42 54 64 68 63 55 49 45 42 36 30 21 16 13 9 9 8 5 4
93 89 91 88 87 91 97 98 94 89 95 87 93 99 96 96 97 86 76 66 49 37 41 53 57 60 61 58 53 49 46 40 35 28 22 19 14 9 9 5 3 4 6
96 94 94 90 93 96 98 99 100 99 100 92 95 91 86 74 59 42 38 42 47 52 58 62 60 60 59 55 46 38 34 28 23 21 17 9 8 6 4 3 4 11 29
97 97 96 89 90 91 91 93 92 88 83 81 76 65 45 36 33 39 45 53 58 62 61 61 63 61 50 39 36 31 27 25 21 11 8 7 6 3 3 6 25 29 22
90 96 97 95 92 91 88 84 79 70 52 41 37 33 34 40 50 58 61 62 62 63 67 66 59 42 39 34 30 28 25 17 10 8 9 8 4 8 18 26 25 19 18

GFSMW_500_rhum_045.txt.gz
RH
12 9 9 9 9 9 8 8 7 6 7 12 18 35 54 63 69 66 58 38 29 30 44 48 46 32 27 30 43 52 59 55 61 64 62 58 54 56 70 86 81 77 90
11 10 9 10 10 9 10 9 9 8 8 10 12 14 33 56 55 63 64 54 42 41 50 61 70 79 69 53 48 41 48 44 60 60 38 48 62 66 74 86 84 87 88
12 11 10 10 10 11 11 11 11 10 9 8 12 11 12 22 41 42 47 57 58 71 73 86 91 89 87 83 65 44 51 62 61 46 45 56 62 71 75 85 78 67 63
11 12 13 13 12 12 13 13 13 13 12 10 9 10 12 13 31 43 64 70 63 64 76 83 97 97 96 95 91 91 90 72 67 52 43 59 55 62 67 72 67 64 74
13 14 15 15 16 16 15 14 14 15 15 13 11 10 11 13 14 18 23 22 22 46 51 58 79 94 98 96 95 96 95 79 60 60 49 66 61 60 56 60 60 67 72
13 14 14 14 14 14 14 13 13 13 13 13 12 11 11 12 13 14 18 21 21 34 35 46 60 74 85 97 95 96 96 85 67 49 58 53 61 62 52 51 48 65 65
11 11 11 11 12 12 12 11 11 11 11 11 11 10 9 8 10 11 13 20 16 17 24 32 42 52 60 75 85 95 96 92 72 67 41 61 99 73 62 48 46 60 69
9 9 9 9 9 9 10 10 10 10 10 9 9 9 8 8 7 7 7 10 11 31 28 30 48 50 64 80 75 81 85 89 74 58 43 47 64 60 53 46 54 60 62
10 11 12 13 16 14 14 16 14 12 11 11 11 10 10 9 8 8 7 6 8 12 30 41 47 58 74 68 82 72 77 82 69 53 37 61 88 76 51 47 61 58 45
24 25 29 33 36 39 39 38 39 42 41 37 30 23 16 13 12 12 11 10 10 17 30 34 46 74 72 70 71 79 82 72 52 37 44 50 71 74 56 56 63 72 78
28 28 28 26 25 25 33 49 61 66 66 61 58 51 44 38 34 26 19 15 12 15 27 43 61 67 78 76 79 82 81 60 40 42 62 71 100 75 62 78 86 83 72
28 28 29 29 25 19 20 23 31 74 83 79 75 69 56 44 39 33 32 26 20 15 33 48 66 65 78 71 72 74 56 45 44 65 88 93 100 82 78 98 100 99 99
31 38 32 25 14 19 50 99 100 93 86 94 94 67 55 39 29 26 25 30 25 35 72 55 51 55 63 65 63 53 50 50 58 98 99 100 100 97 96 98 98 94 93
34 35 30 11 20 47 99 100 87 76 83 98 99 61 31 24 17 13 12 31 34 86 83 71 52 51 64 64 57 52 59 60 77 97 98 92 99 99 98 99 100 100 98
43 41 16 20 27 89 91 91 73 73 66 45 34 33 32 31 27 25 27 51 47 58 72 73 59 62 65 60 55 59 74 97 78 80 100 98 99 100 99 99 98 87 77
47 46 18 22 29 43 52 56 48 35 38 43 54 68 82 88 94 85 75 64 61 68 82 66 61 65 58 64 63 96 100 98 99 97 99 98 98 100 98 87 69 76 66
53 55 56 15 18 27 44 72 84 92 83 100 85 97 100 85 80 87 93 84 85 81 66 62 59 62 67 66 99 80 99 99 97 97 100 100 98 90 71 75 65 49 39
46 61 69 62 32 20 21 31 32 60 79 80 79 99 100 100 100 100 100 95 72 78 79 84 75 76 99 95 89 96 97 96 96 100 99 85 65 69 65 51 41 37 32
49 42 73 67 67 78 80 76 83 89 97 98 96 99 100 100 86 89 88 84 87 82 74 99 98 98 95 100 99 99 99 99 98 72 56 71 66 54 44 38 32 27 22
61 45 42 70 92 77 74 83 83 83 93 99 98 90 82 77 88 85 84 78 76 83 99 99 100 99 98 95 98 94 59 53 68 72 60 53 46 40 34 27 22 20 11
71 50 54 53 71 67 86 93 94 89 90 94 95 97 90 92 99 100 100 99 99 98 98 98 98 98 87 58 49 66 71 65 61 54 49 40 33 28 25 24 18 11 10
78 77 82 76 80 58 76 96 97 97 99 99 91 99 98 97 95 91 97 98 99 98 97 88 63 47 56 63 62 57 57 56 52 41 35 31 29 27 22 13 11 11 6
80 84 82 90 90 84 93 100 100 93 91 93 98 98 98 100 100 100 95 81 55 41 45 59 66 59 52 52 56 59 53 41 36 32 31 31 28 19 13 13 14 6 6
85 85 83 81 79 85 93 94 93 93 95 100 100 100 89 74 57 40 40 43 49 53 53 51 50 51 56 61 57 44 39 36 34 35 34 27 19 16 16 12 6 9 13
85 85 82 83 85 82 87 91 90 86 87 85 76 58 42 38 49 56 54 53 52 52 54 56 59 60 57 49 41 36 34 32 31 31 26 21 20 17 7 6 13 13 13
88 93 86 87 88 88 84 73 61 51 45 42 36 36 44 49 52 55 54 52 52 54 59 61 58 48 38 35 33 31 29 28 26 20 19 19 10 4 10 18 16 14 16

GFSMW_500_rhum_048.txt.gz
RH
9 6 7 11 10 8 8 9 9 11 10 12 9 8 9 14 32 41 51 66 67 58 48 37 48 52 54 48 48 39 32 33 34 34 38 42 47 52 34 40 54 64 66
9 10 8 9 10 10 8 8 9 9 9 9 10 10 11 12 16 28 47 64 85 88 87 70 66 65 74 58 71 79 78 58 46 38 34 40 54 42 42 47 49 54 58
7 8 8 8 9 9 10 9 9 10 9 9 10 9 9 10 12 16 30 46 68 74 72 74 78 89 95 94 96 96 95 90 78 50 47 59 58 51 41 47 52 52 54
7 7 8 9 9 9 10 10 10 11 12 11 10 11 12 12 14 14 15 18 22 35 57 73 94 98 90 92 92 94 97 97 98 96 94 86 65 56 47 51 51 57 49
8 7 8 9 9 9 10 10 11 12 12 12 12 11 11 13 14 16 17 18 29 32 56 77 87 71 67 62 77 79 92 98 97 97 97 96 90 64 45 49 48 62 53
10 9 9 9 10 10 11 13 13 14 15 15 14 12 11 11 12 14 17 19 20 34 31 46 53 50 45 51 58 81 85 84 88 95 95 96 93 91 67 37 42 84 56
11 11 11 11 11 11 11 11 11 12 12 12 13 13 13 12 11 11 11 13 23 27 26 37 42 44 29 30 44 60 69 87 77 81 87 96 93 86 90 48 42 46 60
12 11 10 10 9 9 9 9 9 9 10 11 11 10 11 11 11 10 10 11 13 14 30 30 37 40 58 48 39 49 71 75 77 86 80 84 88 95 94 65 38 58 83
9 8 9 9 10 13 16 18 19 20 20 15 13 13 12 11 10 10 10 9 10 11 14 14 18 40 53 94 66 64 64 67 75 68 78 89 92 95 93 46 44 86 89
11 16 23 27 25 22 21 22 27 34 42 49 49 39 25 18 15 13 12 10 9 9 10 11 15 27 40 56 75 69 63 62 76 70 78 97 92 88 54 45 99 98 100
32 32 26 22 20 22 25 27 29 29 29 29 35 60 60 52 43 26 20 16 14 13 12 12 16 29 33 50 58 54 55 77 82 86 94 88 82 52 50 80 98 98 100
28 26 22 23 31 30 28 16 12 10 10 14 25 31 58 82 80 70 52 37 32 25 17 15 13 14 40 32 37 52 59 90 91 96 80 80 59 56 76 100 99 95 96
33 33 33 31 30 26 12 10 14 24 38 40 48 52 50 79 99 96 82 66 56 47 38 35 33 24 19 41 64 53 61 73 81 72 76 67 60 74 87 96 99 98 99
35 34 31 32 34 17 12 21 24 72 99 100 100 100 100 100 100 100 100 94 74 56 46 38 37 38 30 46 76 75 66 58 67 71 72 63 69 94 80 88 99 100 96
31 27 34 31 34 14 17 30 44 43 69 86 95 95 94 94 90 93 94 84 69 43 34 31 29 34 37 76 100 87 78 72 85 79 69 92 100 100 96 99 100 98 100
32 29 33 41 40 19 17 21 39 62 47 43 63 56 51 39 38 39 38 36 31 35 35 38 43 65 59 87 83 79 68 100 84 68 95 100 99 99 97 99 99 99 93
28 28 32 48 54 45 29 20 18 31 64 85 55 46 59 81 79 73 72 71 76 78 54 42 44 51 98 58 68 96 100 79 100 99 98 100 100 100 99 97 84 76 65
35 46 31 49 53 55 48 46 41 55 70 71 76 74 93 91 91 80 83 88 89 99 100 50 48 55 62 81 87 99 90 91 99 100 100 99 98 97 71 66 71 56 46
46 48 43 45 56 61 57 53 49 57 75 77 96 92 99 98 97 99 99 100 97 100 99 98 97 88 88 89 88 84 90 98 99 99 98 75 58 64 67 57 46 33 29
59 50 57 58 61 70 71 62 66 79 81 81 78 84 84 84 85 94 94 100 100 82 79 99 99 92 100 99 100 98 99 98 74 57 67 66 58 56 46 33 31 31 34
65 67 64 59 67 72 71 71 79 92 93 96 98 95 90 97 100 99 99 99 99 99 100 99 98 99 99 98 84 54 56 70 66 56 54 49 39 30 30 31 34 36 32
66 67 69 71 72 65 69 80 83 89 90 92 90 99 99 99 98 99 99 100 100 100 100 92 72 55 49 55 61 61 56 54 53 47 37 32 32 32 33 30 24 21 20
76 82 81 76 75 77 88 91 88 89 96 95 94 93 91 93 92 86 75 64 55 49 59 65 60 52 48 50 52 54 47 39 33 31 27 25 22 15 11 10 12 15 10
75 79 79 79 74 75 78 80 83 83 85 84 83 72 52 44 44 46 54 58 60 60 58 53 50 52 56 54 43 35 31 28 24 19 12 9 8 9 8 6 5 4 8
84 80 82 84 87 85 81 75 61 48 46 43 40 41 48 56 58 59 63 64 60 57 55 56 57 57 48 38 33 30 27 23 16 5 4 4 5 5 3 3 6 22 22
90 89 88 89 88 71 53 49 46 45 51 55 59 60 63 64 65 68 69 66 64 60 60 61 53 40 36 35 31 23 13 6 4 4 4 5 3 3 5 20 27 25 20

GFSMW_500_rhum_051.txt.gz
RH
12 10 8 8 6 5 5 8 9 9 10 10 10 10 10 16 20 24 20 32 44 48 59 60 60 51 46 38 44 50 54 48 52 52 46 39 38 29 30 37 43 34 42
12 11 9 8 7 7 6 5 7 9 9 9 10 10 11 10 14 27 30 22 21 44 58 83 92 88 79 72 60 68 79 80 80 81 86 74 53 45 38 50 48 42 39
11 10 9 8 7 6 6 6 6 8 8 8 9 9 10 11 11 11 15 21 16 25 38 57 85 90 88 91 72 73 95 96 86 81 89 91 86 86 64 60 67 53 46
8 8 7 6 6 5 5 5 6 7 9 9 7 8 9 10 12 12 14 13 12 14 26 43 53 69 80 83 88 93 94 93 86 82 83 96 97 97 97 93 83 88 60
9 9 9 8 8 7 6 6 6 7 8 10 10 10 10 11 12 13 13 14 14 14 18 30 34 36 45 61 89 97 82 81 80 85 89 87 97 92 98 97 99 96 93
14 14 13 12 10 9 9 9 9 9 10 11 11 11 11 12 13 14 15 15 14 15 17 22 33 39 42 61 80 88 70 68 65 75 84 90 85 84 85 92 94 97 84
17 15 13 12 12 11 11 11 11 10 10 10 9 9 10 11 12 14 15 15 18 17 16 25 51 40 48 64 69 64 65 63 59 64 66 65 78 91 92 95 90 84 79
15 14 12 12 11 10 10 8 8 8 8 8 9 9 9 9 8 9 11 12 13 16 21 21 28 51 49 53 71 73 63 62 66 66 55 48 56 76 100 93 81 88 89
13 12 11 10 9 8 9 10 11 16 20 21 22 22 22 22 17 13 13 10 11 13 16 19 20 26 49 52 56 74 76 71 83 96 97 68 60 72 86 80 70 100 91
10 10 10 9 10 13 19 24 21 20 22 24 25 27 27 24 27 39 35 22 16 16 15 16 18 19 26 43 56 60 67 92 97 100 93 78 78 77 88 87 86 84 85
10 11 13 17 22 22 19 18 24 27 27 22 18 16 15 20 39 37 40 58 53 37 21 16 17 21 23 25 26 29 42 52 69 100 87 75 70 71 89 87 91 84 65
30 31 27 25 24 19 21 25 26 22 13 13 13 12 12 18 14 40 61 89 66 64 59 47 33 22 18 18 18 19 19 25 33 48 52 60 75 87 86 85 82 88 87
26 24 22 17 19 22 21 23 23 16 17 22 23 19 40 65 63 75 70 58 99 100 90 81 73 64 49 40 31 25 21 28 51 52 70 84 83 81 79 80 97 73 68
27 26 20 22 23 22 26 20 20 18 24 36 33 24 55 71 81 97 100 93 83 96 100 97 92 81 67 55 50 44 44 50 58 68 85 85 85 77 97 98 89 73 97
32 24 23 27 26 29 23 12 14 20 26 42 45 28 67 91 91 90 100 100 100 100 100 100 100 98 84 68 52 40 45 73 47 42 82 85 100 95 98 96 82 97 99
31 24 26 29 29 29 22 9 10 17 30 38 43 34 31 34 36 55 62 70 82 100 87 92 99 94 79 57 49 36 40 41 44 72 99 100 97 100 94 83 98 98 99
36 30 34 33 32 34 27 24 19 22 35 42 55 61 75 89 98 98 94 94 84 65 61 64 57 69 70 62 62 75 81 73 76 72 81 99 99 86 99 99 100 99 97
40 41 37 39 36 41 36 31 31 39 51 52 57 68 88 99 100 100 98 90 76 77 97 98 94 99 97 55 98 81 95 79 87 100 95 98 97 99 99 99 87 70 56
44 46 45 44 43 45 42 47 42 46 47 54 54 56 65 75 89 95 100 99 100 95 96 92 92 66 71 91 100 95 99 98 99 98 98 99 100 95 64 54 48 47 38
52 55 61 52 49 49 50 49 53 55 65 74 86 66 88 100 93 98 98 98 100 95 100 100 100 100 100 100 100 100 99 99 99 98 90 63 50 46 38 26 25 24 23
46 59 68 59 59 56 60 63 63 60 68 68 73 79 91 95 90 98 97 99 100 99 100 100 98 96 98 99 99 96 89 69 54 51 45 34 26 23 21 15 8 6 8
48 62 64 67 64 64 66 73 68 68 66 68 73 73 78 89 91 95 97 98 97 89 74 64 57 53 52 52 52 53 52 49 40 31 27 25 16 8 4 4 4 4 5
60 63 70 71 76 79 87 78 76 68 67 81 77 64 50 41 40 42 45 47 49 55 57 53 50 48 49 54 57 53 41 33 30 23 10 5 5 3 3 4 5 5 3
68 70 71 81 80 86 82 77 70 54 41 39 38 39 42 49 53 56 58 59 59 57 54 52 52 56 58 52 42 36 35 30 16 6 6 6 4 3 4 6 6 4 7
80 75 78 81 89 90 71 51 46 45 53 58 60 62 64 66 68 70 73 73 68 66 62 59 61 59 50 41 40 36 33 18 9 6 6 5 3 6 7 7 8 13 16
81 80 83 91 93 90 58 50 51 57 62 65 69 72 74 76 78 78 76 76 76 73 67 65 63 51 43 43 38 31 25 19 10 8 6 4 6 9 10 13 16 17 17

GFSMW_500_rhum_054.txt.gz
RH
12 11 11 10 10 9 8 9 8 7 7 10 11 10 12 15 13 13 13 20 32 35 54 44 56 55 61 67 62 54 46 41 42 51 52 51 64 75 79 64 45 36 35
12 11 11 10 9 8 8 8 8 8 7 5 8 10 10 10 10 10 11 12 13 33 49 54 44 49 65 68 74 80 84 73 64 60 77 79 83 89 84 86 74 64 46
13 12 12 11 10 9 9 8 8 8 7 6 5 6 10 10 10 10 10 12 13 14 16 38 57 52 46 66 74 80 95 94 87 71 73 91 92 92 85 93 95 96 92
13 12 11 11 10 10 9 8 7 6 5 6 6 7 7 9 11 12 12 12 11 12 35 37 51 40 38 57 63 72 86 86 85 78 93 90 79 81 81 82 98 90 96
12 11 10 10 8 7 7 7 7 7 7 6 6 6 7 8 9 10 13 16 15 14 13 27 18 48 51 48 51 64 71 79 74 73 90 86 64 64 83 81 90 93 94
10 9 9 8 9 11 12 12 12 11 10 9 9 9 9 10 10 11 13 17 20 21 20 17 17 17 32 59 56 58 60 62 70 80 90 88 68 54 61 70 79 80 85
10 11 13 15 15 16 15 14 13 11 11 10 10 9 9 8 8 9 10 11 13 16 19 24 26 21 18 32 64 58 67 66 71 72 88 82 77 70 61 71 64 66 76
16 17 18 19 19 18 15 12 11 10 9 8 8 8 9 10 12 14 14 13 12 11 14 15 16 24 30 26 35 59 71 78 74 82 94 97 75 70 69 77 76 87 69
20 18 16 14 12 11 10 9 8 8 9 9 11 16 17 16 18 20 22 25 25 27 27 16 16 19 20 29 42 44 38 69 85 83 82 86 83 87 95 88 94 90 86
14 13 12 11 10 9 9 9 10 12 18 19 18 18 21 24 26 27 29 31 36 39 37 43 43 23 20 22 24 36 52 63 69 73 72 97 97 98 95 97 99 96 94
13 11 10 9 10 10 13 16 20 18 17 19 20 22 24 21 16 13 12 14 14 13 13 28 49 56 50 30 23 22 26 31 47 72 78 84 97 86 98 90 98 94 79
11 10 10 13 17 19 20 19 18 21 20 20 13 16 18 22 28 31 27 20 18 24 25 19 35 56 81 74 58 41 25 23 24 25 32 28 34 36 43 47 58 60 67
15 17 24 24 22 21 18 21 23 18 8 9 14 20 26 27 28 26 30 45 37 48 48 60 70 100 100 100 93 81 66 52 34 24 24 27 27 29 37 63 94 76 84
43 31 26 25 21 18 24 22 17 12 7 8 14 21 25 30 24 40 61 65 69 89 99 100 100 94 100 100 100 98 90 77 64 55 46 43 45 44 95 82 67 88 81
35 31 30 25 21 25 24 20 17 16 11 11 15 21 20 33 50 42 33 65 97 100 100 100 100 100 95 98 100 100 91 74 65 57 50 46 100 100 82 97 99 97 98
42 37 33 27 24 29 26 17 19 20 22 25 23 24 27 40 59 73 82 90 93 82 83 100 99 99 98 96 96 100 98 89 77 58 44 67 50 41 67 96 94 100 98
27 29 36 34 30 31 30 23 23 24 23 25 24 28 32 31 57 67 69 86 100 99 100 75 97 100 100 98 94 89 72 62 53 85 60 75 81 98 92 97 100 100 100
28 32 32 35 33 40 35 32 26 27 26 26 30 40 48 45 54 63 70 73 99 97 93 96 100 79 87 99 99 90 98 100 99 100 100 99 98 100 100 99 100 99 95
32 37 43 45 44 50 46 41 36 38 36 34 38 53 57 56 60 58 66 85 87 88 94 100 87 100 95 80 95 63 66 100 100 99 95 100 100 99 98 89 49 26 20
33 28 36 50 52 53 52 46 46 47 48 52 43 51 66 58 68 70 71 83 74 89 94 100 100 100 100 100 100 100 100 98 99 99 99 97 83 40 25 20 12 6 4
39 37 42 50 62 61 60 58 62 56 53 53 55 56 58 67 70 69 74 82 95 94 94 98 100 100 99 99 98 96 94 84 66 47 38 29 25 14 9 9 6 3 3
51 47 48 49 64 63 67 78 74 64 61 65 71 59 48 36 31 31 34 39 46 50 52 53 56 55 53 50 49 48 46 42 36 32 30 22 12 7 7 7 5 3 4
64 63 59 54 60 64 64 74 82 73 65 59 44 35 35 40 44 48 51 54 56 57 56 54 51 48 46 48 50 47 40 36 34 32 29 17 10 10 9 7 7 4 5
68 71 70 69 66 70 74 77 73 55 40 40 49 51 53 54 56 59 61 63 64 61 60 59 55 55 55 52 45 40 40 37 31 24 20 17 12 7 7 7 5 6 10
72 73 74 72 77 80 81 78 55 45 55 60 60 59 58 60 64 67 69 68 69 69 69 67 60 60 58 51 46 44 42 38 30 25 22 15 6 5 8 8 6 11 12
70 94 82 77 81 86 92 80 57 56 63 67 67 67 66 66 67 72 71 70 70 71 68 63 61 62 57 49 45 43 38 34 32 27 22 12 6 5 9 9 12 15 15

GFSMW_500_rhum_057.txt.gz
RH
19 16 18 18 15 12 11 11 12 12 11 9 8 8 7 8 12 14 15 14 13 14 12 12 12 20 32 46 63 55 64 66 67 65 57 49 42 53 55 67 76 79 88
16 14 12 12 11 10 11 12 11 10 10 10 9 8 8 6 6 10 13 14 12 12 12 12 13 13 16 30 47 58 52 59 70 71 75 82 77 69 75 86 87 84 85
10 9 9 9 9 9 10 11 10 10 9 9 9 8 8 8 8 9 12 13 13 12 12 11 11 12 12 14 23 42 56 55 58 78 79 89 94 95 84 86 93 90 83
11 10 10 10 10 10 10 11 10 10 10 9 8 7 6 5 7 8 11 14 14 13 20 21 25 27 40 41 39 45 71 79 69 78 75 84 93 95 88 99 97 85 81
12 11 11 11 10 10 10 10 9 8 7 7 7 8 8 8 7 7 8 9 12 14 17 19 19 24 26 37 59 65 67 78 83 78 92 94 86 90 78 87 100 82 74
13 11 10 10 10 9 9 8 7 8 10 12 13 12 11 10 10 10 10 10 12 13 16 22 27 28 30 27 27 35 53 54 87 88 89 91 90 86 83 92 98 98 81
14 12 10 10 9 9 8 9 12 14 16 16 14 12 11 10 10 9 9 8 9 9 10 11 14 17 20 24 30 38 36 43 56 83 94 88 90 93 89 93 91 99 87
12 11 10 9 9 10 13 15 18 18 18 14 11 10 8 8 9 9 11 14 17 20 21 26 25 18 18 20 22 22 31 49 51 44 49 79 99 95 93 96 92 97 83
12 11 11 12 14 17 19 19 16 12 10 9 8 8 9 12 14 13 14 17 21 26 29 32 32 35 43 50 42 28 26 32 52 64 64 48 48 62 90 88 78 92 96
14 15 17 19 19 16 12 11 10 9 9 9 9 13 13 13 15 17 18 18 16 16 16 18 16 15 28 50 71 75 55 48 59 55 70 64 64 63 60 68 86 91 98
21 20 18 14 12 11 10 10 10 10 12 14 13 14 13 10 8 8 12 13 17 18 16 28 40 34 23 18 16 26 62 84 58 66 63 53 45 49 66 62 78 81 79
16 15 13 12 10 10 11 12 14 16 14 14 15 12 8 7 8 7 9 12 21 31 28 38 34 28 27 32 37 35 21 54 90 77 56 47 41 30 34 41 44 57 45
16 14 12 11 12 14 18 18 17 16 18 17 13 10 9 8 11 13 10 12 22 41 35 49 62 48 40 61 78 80 66 100 98 100 85 46 33 30 31 33 33 31 30
14 14 15 19 27 24 23 20 18 21 19 15 10 11 16 17 14 12 10 16 29 43 71 66 70 74 70 75 85 100 86 100 99 99 98 80 59 42 35 34 35 37 34
23 31 37 33 29 26 23 20 22 20 19 15 12 13 14 10 12 18 22 25 37 53 79 82 79 93 95 88 99 100 89 100 100 100 96 91 78 68 71 58 50 59 100
43 44 41 36 33 32 28 24 26 24 21 18 16 15 15 13 20 19 25 32 40 50 59 59 57 83 99 100 100 90 98 100 98 100 94 80 70 71 56 51 84 100 98
48 33 22 19 24 30 32 27 28 30 26 22 18 16 18 22 21 24 29 36 44 49 55 57 82 85 97 98 97 98 99 100 100 100 94 91 96 94 82 74 82 88 87
27 22 22 26 23 26 30 31 41 36 32 26 24 25 23 30 27 32 36 38 47 50 54 58 61 88 92 99 100 100 100 100 98 96 100 100 82 100 99 99 96 100 98
28 26 23 23 38 43 43 46 45 43 39 36 34 35 34 35 36 41 45 48 52 55 60 62 76 76 85 92 98 97 96 95 100 96 100 98 100 100 100 99 86 38 19
30 30 25 25 24 35 48 48 48 48 46 43 44 47 44 45 43 46 45 44 38 43 54 63 77 86 90 95 100 100 100 100 100 100 99 84 56 35 30 24 19 14 13
36 38 39 33 31 33 45 55 53 56 58 54 51 50 49 51 42 29 28 30 34 40 44 47 48 49 51 53 54 55 55 54 52 50 42 34 29 27 26 22 15 11 8
47 51 49 45 41 37 44 57 59 72 72 64 60 65 65 40 32 38 42 45 48 51 54 53 51 49 48 50 53 56 54 47 38 32 29 29 28 22 20 18 16 9 7
58 58 55 57 51 49 49 50 60 66 69 69 64 48 37 44 46 46 47 47 52 54 52 53 55 54 50 47 45 43 39 35 33 35 35 33 27 25 24 19 13 8 5
43 52 60 62 62 59 62 58 64 77 73 59 40 49 52 51 48 46 48 53 56 57 57 55 53 49 47 47 47 45 41 39 39 37 35 33 31 28 25 22 14 14 11
47 47 48 57 66 66 67 71 76 78 60 46 56 59 58 56 52 54 56 58 60 58 57 52 50 49 48 47 46 46 46 46 46 45 43 39 36 34 30 27 23 13 15
48 54 53 54 74 74 70 72 78 82 65 58 66 69 70 66 61 61 59 56 56 57 54 53 53 52 49 50 50 50 50 51 52 50 48 45 46 41 34 30 27 24 13

GFSMW_500_rhum_060.txt.gz
RH
27 24 20 18 18 20 21 20 17 12 10 10 9 14 16 21 19 8 10 8 10 17 24 26 28 23 26 27 28 29 15 14 35 44 61 53 65 66 71 66 54 54 61
26 21 19 19 20 20 19 20 17 12 10 11 12 10 9 11 11 9 8 8 19 17 20 28 28 26 41 40 40 41 37 28 54 48 59 57 54 62 81 83 93 94 76
29 24 19 19 18 18 16 15 13 11 11 12 11 10 8 8 10 9 8 8 8 14 20 20 32 47 38 41 41 40 47 52 57 61 72 80 76 72 71 88 96 97 97
25 20 17 15 12 10 9 9 10 10 10 11 10 10 10 9 8 7 7 7 7 8 8 19 21 27 29 37 37 37 32 42 54 70 74 83 73 85 82 91 94 93 97
15 14 12 11 10 9 9 9 10 10 10 10 10 10 8 7 7 8 10 10 9 9 12 13 11 10 13 26 30 38 34 38 31 59 78 84 87 86 95 93 99 97 95
16 14 12 11 13 14 10 9 9 9 9 9 8 8 9 12 14 14 14 12 11 11 11 11 17 19 18 17 22 22 29 30 34 39 52 64 82 88 80 100 100 98 98
31 18 16 16 15 18 14 10 9 9 9 8 9 13 16 17 17 14 11 9 8 9 10 12 15 20 26 33 36 29 24 38 34 38 36 52 78 84 85 81 96 98 97
40 29 21 21 18 13 11 10 9 8 9 13 16 19 19 14 10 8 8 9 11 12 14 17 22 26 23 17 20 28 49 63 60 51 56 52 54 72 80 96 97 95 92
20 17 14 13 12 11 10 10 10 12 16 19 18 12 10 9 8 9 10 11 11 12 11 7 10 10 11 20 27 29 27 27 67 78 76 69 67 61 59 82 86 73 64
24 15 13 12 11 11 11 12 16 19 17 12 11 10 8 9 9 10 9 9 8 7 7 8 10 11 15 26 26 19 26 44 36 56 98 97 88 70 60 82 85 76 64
18 16 14 13 12 13 17 19 17 13 12 11 9 9 11 11 12 10 8 7 8 8 10 8 10 22 36 48 50 45 60 49 43 34 52 100 100 99 82 76 85 83 76
22 18 18 20 21 19 16 14 12 11 10 9 12 13 12 14 10 7 9 10 10 8 8 13 16 28 40 38 53 61 79 76 60 53 55 47 52 100 99 87 86 85 76
26 24 22 18 16 14 12 11 10 12 16 16 13 14 15 8 7 6 6 8 12 14 13 14 17 23 30 34 51 65 85 73 76 77 97 87 84 100 99 96 79 71 58
22 19 17 15 13 11 11 15 20 21 19 17 18 19 12 10 7 8 10 11 13 14 15 25 16 17 29 45 65 66 76 69 91 100 93 99 85 100 98 97 80 56 44
19 17 14 13 13 14 26 29 28 24 20 21 22 20 15 13 10 11 11 11 15 19 18 26 22 18 35 37 47 60 58 60 84 83 100 83 89 100 100 99 95 81 66
18 17 17 22 31 40 38 34 30 27 26 24 23 23 19 14 12 15 14 18 21 26 26 29 29 29 36 40 45 67 84 62 60 92 100 100 100 100 100 100 98 90 99
23 30 40 47 45 36 28 22 23 30 28 26 29 27 22 18 19 21 19 27 27 28 32 34 37 44 42 51 56 49 68 77 97 100 100 99 99 98 94 80 83 93 91
61 58 40 25 22 21 21 21 26 28 32 33 33 33 34 29 30 29 29 32 32 36 34 33 42 50 56 60 65 70 68 78 97 98 100 96 100 100 99 99 98 96 94
55 32 28 24 20 20 27 36 43 44 43 42 40 39 40 42 40 38 37 37 34 28 28 31 34 39 44 46 52 68 75 80 94 99 97 100 100 93 78 60 45 33 25
39 36 31 24 25 23 22 24 27 36 44 49 52 51 48 49 47 44 46 32 28 32 35 39 40 42 45 44 43 44 47 58 66 62 56 45 37 34 31 30 29 26 22
43 39 34 33 36 34 30 28 26 37 51 56 59 61 57 56 56 58 36 33 37 37 36 40 41 43 44 44 42 42 43 44 43 39 34 33 34 34 32 28 26 26 25
54 47 38 42 43 41 39 35 36 41 49 58 71 74 68 60 59 37 41 42 38 37 38 41 42 43 43 41 40 41 41 40 37 35 35 35 34 34 33 32 32 30 30
41 40 40 44 45 48 46 48 50 52 50 54 69 73 62 45 41 49 46 42 41 43 43 44 45 43 42 40 37 36 35 35 36 37 39 40 40 40 39 38 38 40 37
38 34 34 39 44 49 53 59 61 57 63 68 72 63 48 52 57 51 48 47 45 44 47 47 44 42 40 38 36 36 38 39 40 41 42 43 42 42 43 44 45 44 39
48 43 42 44 43 44 54 63 65 60 66 78 76 53 56 66 66 64 55 54 54 53 52 47 45 44 43 42 43 43 42 43 43 43 43 43 43 44 45 46 48 48 45
57 47 42 43 47 49 54 64 69 70 72 77 82 63 65 74 82 84 76 70 65 63 61 56 50 50 49 51 54 52 52 52 50 49 49 48 47 46 48 50 50 50 52

GFSMW_500_rhum_063.txt.gz
RH
41 36 32 27 24 20 19 19 16 15 15 18 16 14 12 19 39 19 11 20 15 20 25 32 23 30 32 31 37 42 38 51 60 61 47 30 30 33 47 62 67 69 82
60 49 43 35 28 24 21 20 19 18 17 15 14 13 11 10 11 10 8 9 13 12 17 24 23 40 48 47 40 45 61 66 62 73 71 59 60 63 83 72 81 80 68
57 54 49 39 29 24 21 19 19 18 18 16 16 12 9 8 10 10 10 10 9 8 7 7 14 24 36 36 40 37 41 57 62 69 75 71 70 77 88 83 85 96 94
60 54 46 34 26 26 20 19 20 19 17 13 11 9 8 7 8 8 10 10 8 7 7 8 11 12 13 29 31 33 30 38 32 38 43 63 67 57 64 91 99 97 95
63 50 39 30 30 30 26 18 16 11 9 9 9 9 9 9 8 9 8 8 9 11 13 12 13 13 11 9 15 23 30 28 33 41 48 59 66 69 78 84 100 99 96
50 47 38 22 16 14 13 12 10 10 10 10 10 10 10 9 9 8 7 12 15 15 13 12 10 9 10 12 14 19 25 30 35 39 47 58 72 77 77 77 82 96 98
26 19 17 15 14 13 12 11 14 17 17 14 11 10 9 9 8 11 15 18 18 12 9 8 10 13 17 19 12 9 10 15 16 21 28 34 40 62 95 86 66 74 84
23 22 22 24 19 17 16 20 23 22 14 12 10 9 9 9 14 18 19 11 9 8 8 9 10 12 8 7 9 10 12 17 23 28 39 43 48 67 86 100 99 68 68
26 29 39 47 50 45 29 25 24 18 13 11 9 9 11 16 19 12 10 9 9 9 10 9 8 7 8 9 10 15 17 28 39 34 52 53 49 57 58 61 99 95 97
41 40 28 21 20 19 18 16 14 12 11 10 11 15 19 15 11 10 8 10 10 10 9 9 10 8 7 8 10 8 12 21 38 50 54 60 78 58 51 61 83 89 98
33 30 33 34 30 22 15 13 13 12 12 13 19 16 12 11 9 10 11 11 10 7 8 8 9 10 9 10 9 13 18 22 34 48 62 86 89 82 68 48 65 98 98
32 26 22 20 19 17 15 15 15 16 18 18 14 12 10 9 12 12 12 9 6 6 8 8 10 9 10 12 11 14 14 18 24 36 58 68 72 73 65 56 49 61 97
33 34 29 27 23 19 19 20 19 17 15 13 11 11 14 14 12 14 9 7 8 9 9 10 13 14 17 18 14 18 21 23 22 19 39 46 66 100 89 94 91 75 56
45 36 30 28 25 22 18 15 14 13 11 11 15 18 17 15 16 16 11 10 11 11 10 12 14 21 22 23 22 24 24 21 33 42 48 58 70 72 88 96 96 88 97
33 31 25 21 18 16 15 13 12 12 14 18 22 21 19 20 21 19 13 15 13 15 15 19 21 25 28 28 31 33 34 32 26 37 55 61 70 73 96 75 89 96 84
26 24 22 19 17 14 14 13 15 16 24 27 27 27 26 22 19 21 21 19 18 22 22 22 24 32 29 25 32 40 42 41 38 40 43 70 75 93 100 98 93 87 98
28 24 20 18 16 17 21 23 24 26 30 30 27 28 26 26 30 29 28 28 29 30 27 26 30 27 27 27 32 35 36 43 48 50 51 54 68 87 99 100 100 100 100
26 24 25 28 40 42 35 24 19 20 20 23 28 35 33 38 39 38 38 37 40 37 33 30 27 28 28 29 36 38 37 36 40 52 60 72 86 97 92 73 69 69 64
33 37 59 58 40 28 22 19 19 23 30 41 45 47 47 46 46 44 43 45 48 42 31 30 31 29 29 32 34 34 35 34 35 36 39 40 36 33 33 32 31 30 28
75 87 58 40 34 30 22 21 21 22 22 27 36 51 54 59 58 55 52 57 56 38 34 36 32 30 30 31 33 32 33 33 33 34 33 31 30 31 33 33 33 31 29
97 64 48 44 35 33 29 30 30 30 29 29 36 44 53 70 71 65 71 70 43 42 41 36 34 33 31 31 30 30 30 29 30 32 33 33 33 34 34 35 35 34 33
78 56 49 44 43 40 37 43 41 39 40 41 44 46 56 69 70 69 55 42 51 46 40 38 36 34 33 33 33 31 31 31 33 33 33 33 34 35 35 35 36 36 37
74 63 57 52 54 48 44 52 49 47 48 49 52 60 65 73 66 53 57 61 52 49 45 43 41 38 37 36 36 36 35 34 34 35 36 37 38 39 39 39 39 37 37
81 71 46 37 42 43 43 43 44 45 50 57 61 68 78 72 49 55 70 66 63 58 54 53 53 51 47 44 43 43 43 44 45 45 45 44 44 44 44 45 44 42 41
90 57 49 47 45 44 41 41 41 43 54 64 69 71 83 80 54 67 83 87 86 78 75 70 66 64 62 56 52 50 50 51 52 50 48 47 47 48 48 46 44 44 45
74 60 58 54 51 46 43 42 43 44 52 65 77 76 79 89 72 68 78 91 98 97 97 96 89 82 73 70 67 62 60 60 59 58 56 56 55 53 51 50 50 49 48

GFSMW_500_rhum_066.txt.gz
RH
63 59 47 36 32 29 26 24 21 20 18 16 15 13 14 14 13 14 30 30 43 46 48 34 39 44 30 33 39 42 29 36 43 38 48 58 64 70 76 78 72 75 85
70 63 55 46 38 34 31 28 24 21 19 19 18 17 16 16 15 13 14 14 32 39 32 38 11 9 9 9 13 18 28 36 45 53 50 51 58 75 84 77 76 85 92
79 70 58 46 41 36 33 30 26 24 22 20 18 16 16 18 18 15 11 9 8 9 8 8 8 8 7 7 12 16 20 26 32 48 55 61 53 54 47 52 56 71 83
69 68 70 62 51 48 46 42 35 27 22 20 17 15 14 15 14 11 10 9 10 10 10 9 7 7 11 17 18 13 11 15 28 33 32 40 46 44 43 52 68 78 92
70 71 69 66 56 57 74 69 62 52 45 24 19 17 14 11 8 8 8 8 10 9 9 8 8 13 17 18 12 9 8 11 14 15 16 21 32 36 41 42 42 58 88
67 71 74 67 59 52 52 54 62 54 46 37 26 16 10 8 9 11 10 8 9 8 8 12 16 18 14 9 8 8 11 12 8 7 7 12 18 29 33 40 48 88 64
69 66 68 72 65 52 42 30 30 32 29 26 16 12 12 14 20 18 12 9 8 8 15 18 14 9 9 11 13 13 8 7 7 8 10 9 10 13 20 32 42 55 75
61 57 65 54 44 41 30 19 15 13 12 11 13 18 25 19 14 11 9 8 10 15 19 11 9 10 12 13 9 8 8 8 10 8 10 12 13 17 20 31 52 53 70
48 38 43 43 23 19 17 17 16 16 15 18 25 29 20 16 12 10 9 12 18 16 11 10 8 9 10 8 8 7 9 10 9 10 12 15 12 14 21 30 61 75 71
42 35 27 25 24 22 28 35 40 41 43 40 39 30 21 15 11 11 15 18 13 10 9 9 10 9 6 6 9 9 9 12 13 13 17 14 13 15 23 27 57 82 89
53 41 30 28 29 29 34 37 36 31 24 19 17 14 12 11 12 18 15 11 10 12 11 11 8 6 7 8 9 11 14 18 15 18 21 14 13 14 25 35 37 70 74
62 46 37 39 41 39 36 30 29 29 24 14 13 12 12 18 16 12 11 10 13 13 12 7 6 9 9 9 12 14 18 22 22 23 22 18 15 18 20 28 33 54 64
88 61 50 42 35 31 28 27 26 22 16 15 16 19 17 12 11 10 12 15 15 15 10 8 9 11 11 13 14 19 25 23 20 26 29 24 21 22 17 28 40 67 77
88 74 60 36 34 33 26 24 21 20 20 20 16 13 12 11 14 17 17 17 17 17 12 11 13 15 17 18 20 25 25 21 21 26 36 28 27 33 29 32 64 68 80
66 63 56 46 38 30 28 24 21 18 15 14 13 13 14 20 22 21 20 20 19 19 17 16 16 20 22 22 24 26 22 21 25 25 33 38 34 36 41 49 59 78 96
62 43 38 44 40 24 21 19 16 16 15 15 16 19 24 29 29 28 26 21 20 25 27 23 26 29 27 26 26 25 23 23 27 28 31 41 48 47 51 49 52 64 73
74 67 36 35 27 22 19 21 19 19 21 19 21 24 28 29 25 24 24 25 30 32 33 33 35 35 31 28 27 25 22 24 25 27 30 34 35 34 34 36 44 48 60
48 34 33 29 25 24 22 21 22 27 26 21 17 16 16 18 22 29 35 38 39 40 42 43 42 36 31 31 29 24 23 24 23 24 23 23 23 25 25 26 27 27 27
38 35 32 40 41 43 45 42 31 23 22 21 21 21 26 37 44 45 46 48 48 54 54 50 47 34 37 34 28 23 24 22 22 23 22 22 23 23 24 26 28 28 29
38 36 45 52 65 58 46 33 27 21 19 20 21 21 23 29 37 49 57 62 64 67 66 60 40 42 38 33 28 24 25 25 24 22 24 24 24 24 26 27 29 31 32
37 65 85 90 69 52 44 38 33 28 27 30 30 30 32 34 38 46 60 73 72 72 49 47 48 42 37 34 31 28 27 27 28 28 28 29 30 31 32 33 35 35 34
79 98 100 78 61 55 50 48 46 38 36 41 43 43 44 44 46 56 67 70 58 63 66 58 50 45 44 43 38 35 35 36 36 37 39 40 39 38 37 37 38 38 38
100 100 100 76 70 67 60 58 57 49 47 52 50 48 46 47 56 66 68 53 63 78 77 71 60 55 55 55 53 50 48 45 44 45 46 46 47 46 45 46 46 46 45
100 100 99 83 76 62 60 58 60 50 44 46 49 50 51 55 58 75 72 54 68 83 89 92 86 76 74 69 66 64 62 60 59 58 57 56 54 53 53 53 52 49 47
100 100 100 92 73 49 44 45 49 46 44 43 46 44 49 63 63 70 84 64 66 80 89 95 99 100 98 95 93 90 79 73 72 73 70 65 61 60 59 57 55 52 50
98 97 100 100 77 59 53 54 51 48 45 44 43 44 46 52 58 69 80 85 83 90 97 99 100 100 98 97 96 95 94 87 80 75 72 71 67 64 62 59 55 54 55

GFSMW_500_rhum_069.txt.gz
RH
81 78 71 62 55 40 29 27 26 25 23 22 26 18 16 14 14 17 18 23 31 33 43 43 51 59 60 72 18 10 9 7 7 9 25 28 29 39 63 69 67 72 84
87 78 72 69 60 48 39 31 27 26 24 23 22 20 18 17 16 16 16 15 14 13 13 18 24 32 14 9 10 9 8 8 15 17 16 23 38 50 52 46 44 46 51
74 81 76 72 66 59 50 41 34 30 28 26 24 22 21 19 18 18 16 14 14 13 10 9 7 8 8 10 9 8 8 13 16 15 18 18 16 14 12 12 17 35 37
67 69 78 74 67 63 57 50 43 38 34 31 28 26 24 22 19 17 19 18 16 13 11 10 8 9 9 9 8 9 15 18 14 9 9 12 13 8 6 6 7 17 40
82 79 73 77 78 70 62 57 47 41 40 39 38 34 33 31 23 17 17 14 13 9 9 10 10 9 9 8 9 15 18 11 9 10 13 12 8 7 7 7 8 9 11
79 82 79 78 74 74 73 68 60 52 49 49 51 55 56 50 40 35 24 9 9 10 12 11 12 10 9 9 15 18 10 8 9 11 8 7 7 8 8 9 10 8 8
67 74 78 80 77 74 70 69 64 58 60 64 65 65 57 51 46 33 14 14 16 24 21 16 11 9 12 17 15 10 9 10 10 7 6 7 8 10 10 12 11 8 8
64 70 73 70 70 70 71 70 64 57 49 38 36 41 45 36 23 12 12 25 27 19 13 10 10 15 18 11 9 11 12 10 7 7 8 10 13 13 13 15 11 10 10
86 84 80 83 75 67 67 68 66 60 51 42 24 16 14 12 12 20 32 27 20 15 12 10 14 17 11 10 11 13 9 7 7 9 14 17 18 16 19 18 14 12 10
87 92 91 87 77 60 64 60 44 35 29 19 16 15 17 22 27 38 38 25 17 14 11 15 16 12 10 11 13 8 7 8 11 14 14 20 21 20 21 23 16 14 13
100 100 95 74 60 53 51 53 40 22 19 20 31 39 37 40 43 36 20 14 12 12 17 14 11 11 12 13 8 8 8 8 9 13 19 23 19 19 29 27 20 21 19
95 94 97 100 49 43 35 29 24 23 26 33 37 40 39 26 19 15 13 12 16 16 12 11 13 14 14 8 7 8 9 13 14 18 20 22 19 21 30 28 24 27 26
100 93 92 91 52 39 30 28 31 32 33 34 28 28 34 37 19 13 17 17 13 12 13 16 16 17 15 9 10 11 13 17 18 20 23 21 18 21 26 29 28 32 34
94 85 92 92 64 49 40 39 39 42 43 40 33 28 23 16 18 18 14 12 17 19 19 20 20 18 19 15 13 15 18 22 22 23 23 19 20 25 26 28 38 39 38
97 100 98 98 92 80 64 59 51 35 28 24 22 21 20 17 14 12 17 23 24 23 23 23 22 20 21 21 20 24 24 25 25 25 18 17 20 24 22 25 28 24 18
95 92 88 97 100 96 89 64 38 28 25 22 19 15 14 15 20 22 24 27 29 29 27 22 22 26 29 29 30 32 31 28 28 23 15 18 18 19 19 19 19 16 16
98 97 86 64 54 50 65 48 28 22 19 17 16 18 20 24 26 27 31 31 26 22 26 30 36 38 39 41 42 37 32 31 28 18 19 19 19 18 16 16 16 16 16
56 55 85 95 73 52 61 52 30 22 25 24 26 29 26 21 18 17 20 24 30 38 38 38 40 46 51 51 47 38 36 32 24 21 21 20 20 19 19 19 19 20 20
71 71 81 51 39 40 42 38 37 43 42 34 29 26 28 26 26 29 33 39 38 39 44 51 55 62 65 58 44 40 36 32 26 23 23 23 24 24 24 24 24 25 26
42 45 44 40 38 48 63 69 62 48 38 30 24 22 21 23 22 21 22 26 32 37 51 60 64 68 60 47 44 40 36 32 30 28 28 29 31 32 33 32 33 33 33
60 53 50 51 60 72 81 72 57 47 41 35 30 28 28 29 31 32 33 34 37 44 58 68 71 64 66 59 47 44 46 43 39 37 36 37 39 41 42 43 44 43 42
49 42 51 77 96 99 88 69 60 53 46 44 42 35 37 38 41 41 36 40 40 47 60 68 73 74 71 65 60 57 57 56 55 53 52 51 51 51 50 50 49 50 51
51 60 84 100 100 99 83 74 68 60 58 52 55 46 43 44 50 45 45 40 45 54 57 56 70 82 86 88 87 84 85 84 80 77 71 68 66 65 64 63 61 60 59
79 100 100 100 100 100 92 78 70 67 62 57 57 51 41 43 45 48 49 44 45 58 64 63 74 83 84 88 94 94 96 94 89 88 87 80 74 72 72 73 72 66 63
100 100 100 100 100 100 96 85 59 48 55 59 55 52 47 44 44 44 44 45 52 62 69 71 74 80 89 95 88 92 93 88 85 87 91 92 93 91 86 83 81 73 70
56 78 96 100 98 99 100 84 59 55 48 52 57 55 54 45 43 47 48 51 57 64 70 79 87 92 95 96 98 97 98 93 93 93 97 100 100 100 98 92 83 80 76

GFSMW_500_rhum_072.txt.gz
RH
76 66 56 49 56 56 50 44 40 35 31 27 26 24 23 23 19 18 18 15 15 18 16 16 15 15 23 26 30 54 24 10 9 8 7 8 13 17 22 34 40 33 25
93 82 68 60 59 62 61 49 43 35 30 28 26 28 27 24 24 21 18 17 16 17 17 16 15 15 13 11 9 8 8 9 10 8 7 10 16 17 12 11 11 14 11
91 85 84 79 73 73 71 66 57 47 38 32 29 27 25 24 23 22 21 21 20 21 20 16 15 15 13 11 10 8 9 9 9 8 12 16 16 11 10 11 11 8 8
96 90 88 85 86 82 77 73 68 64 54 45 37 34 30 28 28 26 25 24 24 23 19 19 21 32 14 9 9 11 10 9 8 12 18 14 10 9 8 6 6 7 8
92 91 90 89 85 83 81 77 73 68 63 57 50 44 40 35 31 29 28 26 25 24 22 20 15 10 9 11 13 13 12 9 10 18 11 10 11 9 6 5 6 8 11
88 81 78 81 78 75 78 74 70 65 62 59 57 54 48 42 39 37 36 40 48 52 38 28 12 10 12 18 16 13 9 10 18 11 10 11 10 6 6 8 9 11 13
82 80 75 77 78 77 72 70 73 72 71 69 65 55 51 49 50 56 63 66 52 46 32 15 12 17 20 16 12 10 10 17 12 10 10 10 6 7 9 8 8 9 15
60 60 69 69 71 70 73 74 71 68 67 66 66 65 64 60 58 57 52 57 50 29 16 13 27 27 18 12 10 13 17 11 10 10 10 7 7 8 10 10 12 14 16
70 75 69 67 62 66 70 73 74 73 70 66 64 62 63 59 48 38 30 22 15 12 18 36 34 23 16 13 15 16 11 11 12 11 8 8 9 10 13 15 17 18 14
69 80 79 76 71 64 62 60 62 64 63 64 64 62 60 55 48 36 19 14 18 24 37 39 33 18 14 15 15 11 13 14 12 8 9 9 12 16 16 17 20 16 16
69 78 81 77 77 82 79 68 64 64 64 65 60 54 49 41 24 18 22 29 38 40 41 26 16 12 15 14 12 14 16 13 9 10 10 13 17 19 19 20 18 14 20
68 78 83 83 78 78 86 87 76 69 65 62 63 59 34 21 20 26 36 37 39 26 21 16 13 16 12 13 16 17 18 11 12 12 13 15 18 21 22 21 14 16 23
66 85 95 93 89 92 99 94 77 57 52 59 51 34 24 23 28 34 38 32 34 39 20 17 15 13 17 19 20 20 20 18 16 17 20 22 23 24 24 15 14 17 21
66 71 80 92 88 90 92 92 91 54 36 33 28 27 30 33 39 42 45 34 24 18 17 14 16 19 21 22 24 23 22 22 21 24 28 29 27 26 18 15 15 17 16
76 70 85 82 99 92 88 89 80 61 44 38 36 41 45 49 43 26 21 19 18 15 14 19 23 24 26 26 24 23 31 31 30 34 35 31 29 24 16 16 16 15 13
97 100 100 100 100 100 98 94 88 74 64 60 62 66 60 32 24 21 18 15 14 16 22 24 30 29 29 25 30 33 36 39 42 40 34 34 29 19 18 17 16 15 15
93 100 100 100 99 98 98 100 100 96 95 91 82 41 25 21 17 16 16 16 18 22 28 28 23 28 35 37 41 43 46 50 48 39 38 33 25 21 22 20 19 19 20
98 100 100 100 98 93 92 88 76 80 73 38 26 21 20 21 20 22 23 23 21 20 23 35 42 44 45 46 49 56 63 58 46 42 37 32 27 26 24 25 25 26 28
78 94 78 62 94 97 83 72 67 86 94 64 60 37 48 36 30 26 27 29 35 38 41 36 34 40 43 52 67 64 54 49 44 39 37 34 32 31 30 32 33 35 36
58 76 94 84 75 91 77 61 64 65 62 64 64 49 38 32 32 32 30 29 28 28 27 28 36 45 59 66 64 67 66 63 54 54 52 48 45 44 44 44 45 45 45
49 52 51 58 61 53 62 79 96 91 75 61 49 42 39 39 34 31 30 33 35 34 36 37 45 57 59 63 70 72 70 72 77 70 66 67 67 67 68 68 66 64 61
83 83 90 77 73 67 76 76 78 83 77 63 54 51 46 44 38 38 41 42 41 39 40 39 47 54 54 59 69 77 84 90 92 95 95 96 96 97 97 84 75 72 68
60 56 53 52 61 91 99 100 100 95 86 71 68 66 63 59 53 44 46 46 44 44 42 46 47 53 57 60 66 72 78 83 87 88 90 93 88 85 89 92 91 90 84
50 51 53 62 98 100 100 100 100 99 95 88 83 78 70 65 64 53 45 45 50 49 52 49 53 61 63 66 68 73 80 88 90 96 100 96 90 91 96 99 96 89 89
61 58 94 100 98 100 100 100 100 100 97 80 74 75 74 68 64 62 57 52 50 51 50 55 58 63 67 76 80 83 86 87 90 93 97 95 89 88 88 85 85 87 88
54 51 89 100 94 100 100 100 100 100 100 82 61 55 63 69 66 64 64 55 50 49 54 58 58 62 70 81 87 89 85 75 84 91 90 86 85 87 83 80 80 81 79

GFSMW_500_rhum_075.txt.gz
RH
56 62 59 65 78 73 63 55 57 61 62 62 63 54 47 41 33 28 26 27 26 21 20 18 17 18 18 18 16 15 14 12 10 10 8 9 10 9 10 14 16 11 12
61 57 62 67 66 64 57 52 50 52 55 54 50 42 38 34 30 28 29 30 26 24 22 20 19 20 20 18 17 15 18 21 11 9 10 12 11 10 14 15 12 11 10
71 84 78 74 72 72 68 57 54 56 53 48 43 40 36 33 30 28 28 27 25 24 23 23 22 22 22 19 17 22 29 19 9 11 14 16 11 12 16 11 11 11 8
78 79 82 80 76 73 74 71 69 66 60 52 45 41 37 33 30 28 29 28 26 27 28 29 27 25 23 20 20 18 11 9 14 17 12 10 10 16 15 11 10 7 7
85 87 97 94 88 92 90 84 74 72 73 71 67 62 56 53 48 44 44 42 39 36 33 31 28 30 40 50 37 22 10 15 22 18 11 10 17 13 11 10 7 6 10
80 91 100 95 95 98 99 93 86 79 76 74 72 70 68 66 62 59 54 49 44 40 37 34 39 49 52 40 29 13 19 27 23 13 10 15 14 10 12 8 7 8 10
82 90 97 100 100 96 90 87 85 83 81 77 74 72 71 68 64 62 61 59 51 47 48 53 61 62 57 32 14 26 32 25 17 12 15 14 11 12 10 7 7 8 11
96 94 99 96 91 84 78 75 70 69 70 71 74 73 71 70 70 67 65 64 64 62 59 56 45 37 18 13 34 37 32 19 14 14 15 11 12 12 8 8 7 9 11
92 96 93 98 91 80 71 64 61 62 63 65 67 68 68 69 69 68 68 66 64 60 45 33 20 14 19 34 39 35 19 14 15 13 12 13 13 8 9 9 11 12 12
81 82 96 90 79 75 71 68 63 62 65 68 68 67 66 66 65 64 65 64 60 55 44 25 17 28 38 41 33 18 14 15 13 13 16 14 9 10 12 13 15 17 18
51 76 82 84 85 65 61 61 58 58 61 61 62 63 63 62 61 61 62 63 57 39 24 25 32 37 35 29 22 15 15 13 14 18 19 13 13 14 15 20 22 22 22
32 34 60 70 70 67 66 64 66 65 65 62 61 64 65 63 64 63 56 43 25 21 25 31 36 38 34 37 18 15 13 17 18 21 22 21 18 18 22 27 28 26 23
61 52 43 56 68 77 83 84 82 76 73 71 74 74 72 70 62 61 56 37 25 24 35 37 45 47 32 17 15 16 19 21 24 24 24 24 23 26 30 33 30 28 18
64 60 65 63 68 76 78 82 83 80 74 73 79 83 75 64 61 47 34 29 32 36 40 46 27 20 17 15 20 23 24 27 26 24 30 32 32 34 37 33 32 26 17
67 65 62 64 67 71 72 75 80 79 78 80 80 80 84 62 56 47 34 40 39 47 34 22 19 16 17 24 29 32 32 27 27 34 36 40 41 39 36 36 30 21 19
71 63 61 59 62 71 82 79 87 86 84 82 80 80 73 56 43 59 64 55 73 38 24 19 16 20 25 29 34 30 31 36 42 43 48 50 50 46 41 35 26 23 22
76 76 80 86 90 93 98 98 100 97 88 85 92 86 68 68 68 68 78 45 46 31 18 23 27 32 30 27 31 38 42 45 51 56 60 59 49 42 36 31 29 28 27
94 96 98 95 92 97 93 96 100 100 97 93 97 99 97 96 95 51 24 21 22 28 31 30 28 28 35 41 45 50 52 48 51 56 55 49 44 43 39 34 33 34 35
78 57 64 88 92 99 98 98 96 97 92 70 68 76 64 64 46 31 33 39 32 29 30 37 49 47 44 41 48 49 47 57 66 67 65 62 66 66 61 54 53 52 52
85 75 53 78 98 84 86 94 98 96 96 89 78 84 89 70 60 54 73 62 40 46 46 40 40 42 39 43 44 43 52 66 72 70 75 80 78 76 80 87 92 94 94
64 66 56 68 79 92 84 70 69 75 88 96 97 87 77 68 58 45 44 49 43 37 39 40 39 40 42 45 46 53 58 69 75 76 77 74 75 76 82 89 90 86 90
62 74 67 52 55 55 59 64 76 88 95 98 92 81 68 60 55 54 51 48 43 43 46 45 47 48 49 51 52 55 61 68 71 75 76 79 77 78 87 90 85 84 84
61 66 77 88 89 88 91 81 72 90 99 93 96 96 83 74 68 64 64 61 58 55 54 52 53 56 58 56 58 61 64 68 73 77 81 82 78 80 83 87 86 82 77
60 58 57 56 51 52 55 80 87 100 100 100 100 100 98 92 85 80 76 76 74 69 68 63 60 60 55 58 66 72 74 78 83 88 89 76 68 78 84 83 76 72 69
64 67 78 64 61 70 76 93 94 94 96 99 99 98 99 99 94 85 79 78 81 78 79 73 61 58 56 62 67 70 73 79 89 90 93 79 84 84 85 82 72 68 75
84 82 64 73 69 100 100 100 98 92 99 100 100 100 100 97 81 72 85 88 86 80 84 78 64 61 61 69 71 69 73 78 84 88 94 96 94 88 84 73 67 76 80

GFSMW_500_rhum_078.txt.gz
RH
47 43 42 38 49 98 94 96 92 84 48 34 43 38 50 56 61 58 50 45 38 31 26 28 28 26 24 21 21 21 22 22 20 17 24 25 13 11 13 14 12 12 14
57 47 45 45 43 72 81 75 84 80 56 52 40 38 51 59 62 59 48 42 36 33 31 30 27 25 24 23 23 24 24 22 19 20 27 17 11 14 14 13 12 14 14
72 71 61 59 55 50 66 74 72 70 67 60 52 52 55 58 54 51 45 42 39 36 33 30 29 27 27 26 27 26 26 25 31 41 27 18 12 22 17 12 15 14 12
76 81 93 85 72 62 59 63 67 71 72 66 59 54 52 51 51 49 46 44 40 36 34 33 31 32 34 33 35 33 31 37 50 29 18 12 23 25 19 12 15 12 14
81 79 88 95 95 91 85 83 78 80 79 78 76 65 59 56 55 48 44 41 39 38 41 44 46 45 44 45 36 34 42 58 52 38 14 27 26 20 14 14 14 11 12
83 80 88 95 94 96 96 96 96 88 81 78 80 81 77 74 70 68 66 62 61 63 61 58 54 53 54 43 43 50 60 58 27 17 34 34 27 17 14 14 11 12 9
98 91 84 78 80 93 97 97 96 90 84 79 78 80 82 79 76 74 72 70 68 67 64 60 58 58 53 52 60 56 40 18 16 38 37 34 23 14 14 12 13 12 8
95 99 86 74 82 90 96 96 84 81 79 82 88 88 84 80 74 71 69 69 70 68 65 64 62 65 64 61 47 27 16 21 37 36 39 20 13 14 13 13 13 9 9
67 88 98 92 94 99 87 90 89 84 85 81 78 76 74 70 67 67 68 68 66 66 67 68 67 65 64 54 39 19 32 39 40 29 19 14 14 13 14 14 10 9 10
66 87 92 94 99 99 96 96 96 92 84 78 76 67 63 62 62 62 62 65 66 67 66 63 62 62 59 49 28 33 36 36 36 29 16 14 14 16 18 14 12 13 14
33 53 85 97 97 98 98 99 95 89 85 79 75 70 65 64 64 64 64 66 66 66 64 63 59 51 34 25 34 36 40 41 39 18 14 15 18 21 22 21 18 19 20
28 27 28 51 86 97 98 98 97 100 92 81 73 67 63 59 58 59 60 62 62 63 63 58 52 28 23 30 33 40 46 38 17 15 18 20 23 23 24 24 25 25 30
37 35 38 35 38 59 88 96 96 96 82 69 68 68 70 68 65 64 63 65 66 64 59 61 42 30 26 32 40 45 24 18 16 21 23 25 27 26 28 33 32 35 37
32 35 45 46 46 48 46 54 68 75 78 79 82 83 78 73 69 66 66 71 70 66 63 50 35 30 32 41 37 21 18 18 25 28 30 30 26 31 36 42 43 42 41
38 45 42 53 59 56 60 66 71 71 66 63 65 68 69 71 70 69 71 80 82 64 65 40 46 49 48 32 20 19 20 29 33 35 30 33 38 44 46 51 54 50 42
58 55 58 63 67 65 66 68 74 74 71 69 70 73 78 74 73 73 72 73 65 46 46 59 58 75 44 25 25 27 36 37 32 31 39 45 48 51 52 52 49 42 38
69 63 73 75 70 66 64 64 65 67 76 84 89 94 98 94 89 86 75 54 48 62 65 76 53 31 40 34 36 38 33 36 43 47 48 47 44 50 52 52 50 47 45
68 73 84 86 87 86 88 87 91 88 88 87 92 100 100 100 100 95 84 78 82 85 89 33 32 38 40 37 37 42 50 52 48 45 45 46 54 61 62 66 68 64 62
84 90 90 98 100 97 96 100 100 94 94 92 93 99 95 92 93 98 99 93 80 59 38 50 47 40 39 46 59 59 50 48 50 43 38 52 61 64 73 70 66 70 72
70 92 83 84 96 73 74 90 85 98 100 100 100 100 84 80 90 90 94 84 78 58 53 51 58 57 59 60 57 54 52 52 47 44 54 65 71 71 69 68 68 70 70
69 68 66 75 68 57 69 88 92 82 77 90 97 94 90 90 92 96 95 94 74 67 81 75 66 62 53 51 52 55 55 53 50 52 62 69 70 72 69 67 66 66 69
68 70 64 65 72 65 69 76 73 77 81 74 91 99 100 100 98 96 98 94 80 72 67 65 59 56 55 55 60 61 57 53 53 59 64 67 69 72 79 70 60 60 65
58 53 58 62 73 75 58 59 73 69 68 80 86 98 97 90 99 98 98 94 84 75 70 72 70 67 65 64 63 64 62 58 60 62 63 66 73 76 80 67 66 70 72
59 54 54 60 65 69 86 88 70 68 74 96 99 97 96 100 100 100 99 98 96 88 79 76 80 82 80 74 69 65 64 58 61 63 63 68 72 76 84 80 79 80 76
67 67 64 66 65 61 58 55 59 100 100 100 98 97 95 93 100 100 100 100 100 100 95 94 92 85 83 81 78 69 70 65 62 65 67 73 76 81 88 92 90 81 77
82 85 86 67 66 75 85 79 83 94 92 100 100 95 99 100 99 100 99 98 99 100 100 100 96 96 90 88 78 76 77 71 72 72 73 79 87 93 97 95 88 84 84

GFSMW_500_rhum_081.txt.gz
RH
74 84 54 40 46 42 46 68 60 71 75 72 36 29 31 36 38 38 41 49 60 60 54 47 38 33 30 32 30 29 27 26 26 28 35 34 30 43 44 26 13 20 23
88 72 66 44 43 37 35 36 60 75 81 88 84 64 40 30 37 41 42 53 60 63 56 43 37 38 36 36 40 38 33 30 30 58 57 44 41 50 33 16 16 23 21
94 88 80 52 47 42 39 37 46 89 92 92 92 95 92 61 53 41 45 56 58 56 49 43 40 40 39 36 35 35 38 38 58 46 44 46 52 57 39 18 21 19 16
96 92 81 93 79 56 45 42 38 39 74 76 83 91 94 84 64 58 52 50 49 50 49 46 45 46 44 43 43 47 48 57 76 45 43 56 57 43 20 30 27 19 16
100 91 97 96 94 86 67 55 54 51 46 52 71 80 83 80 72 63 57 54 54 52 54 53 54 50 51 57 58 56 48 50 77 49 55 54 33 17 34 33 32 23 15
98 85 92 87 92 94 94 88 82 81 79 75 77 79 77 73 69 67 65 62 63 64 66 66 66 67 66 66 63 56 52 56 56 62 53 29 15 32 34 34 25 16 14
88 92 94 86 97 97 97 97 96 95 90 86 86 83 79 73 71 73 72 74 78 79 81 78 76 73 70 68 63 60 60 66 63 55 27 16 33 37 35 26 16 14 14
79 78 80 90 89 89 93 94 96 95 96 97 97 96 91 85 78 78 75 74 77 80 77 76 74 72 68 68 66 67 68 66 60 45 23 31 39 36 31 25 15 14 15
60 74 90 91 74 72 86 100 97 97 95 97 96 96 95 92 91 91 91 88 84 79 74 70 67 67 68 69 67 64 62 61 56 30 35 35 37 36 34 17 14 15 18
66 68 77 91 97 98 98 99 96 98 100 96 95 98 92 91 93 91 88 84 76 67 61 61 63 65 65 64 60 59 60 56 28 35 34 39 43 42 21 15 17 19 20
97 98 97 98 98 96 97 97 98 99 96 95 94 94 94 94 96 88 80 72 70 69 69 67 65 64 62 61 61 53 38 24 28 30 34 43 38 19 16 20 23 24 24
36 34 56 86 92 96 100 83 97 100 100 100 99 98 98 96 87 82 80 78 76 73 70 67 64 65 62 64 62 62 36 26 26 32 43 31 19 18 22 24 27 27 25
32 35 38 27 29 51 83 96 99 98 99 98 98 97 100 95 95 95 89 82 76 72 69 68 65 64 66 62 63 45 37 30 34 42 25 19 19 25 29 30 28 25 33
25 32 33 34 36 34 27 24 38 66 90 97 99 98 98 98 98 95 82 76 74 72 70 69 68 68 69 62 48 39 34 42 41 28 20 22 28 34 34 30 33 37 42
23 27 32 37 44 41 46 46 38 38 46 62 77 86 86 87 80 72 72 71 68 68 67 64 62 72 73 64 53 49 54 54 59 24 30 34 38 32 35 38 41 43 44
23 19 35 44 61 54 51 54 58 60 59 55 58 68 69 72 70 63 60 62 64 66 70 70 69 62 53 46 52 61 71 38 41 43 43 36 35 42 47 45 35 43 49
28 34 40 44 54 62 66 66 63 63 62 62 65 68 64 64 68 66 69 73 82 86 85 82 67 50 52 67 69 74 60 62 49 41 40 48 53 50 48 42 45 49 53
29 38 44 52 55 69 67 69 72 75 71 67 66 67 72 78 82 73 77 97 96 88 89 75 75 84 86 92 78 70 56 46 49 54 56 56 49 49 42 46 50 55 60
42 41 54 50 60 78 84 90 94 96 96 95 92 90 96 95 91 89 96 96 85 88 95 92 93 93 96 76 65 55 56 68 67 67 58 57 54 45 47 54 59 61 62
50 58 63 62 84 96 91 89 95 79 83 88 95 96 88 97 100 100 100 99 98 95 95 97 94 96 70 68 73 77 90 80 69 69 64 58 50 50 51 54 61 62 64
87 86 81 88 84 78 83 76 78 65 78 89 87 81 89 87 97 100 100 99 94 100 99 97 95 91 89 99 99 86 76 76 74 68 63 57 56 56 55 57 62 66 64
88 86 80 75 78 77 72 75 66 60 68 78 82 82 78 81 96 96 100 100 100 97 99 99 100 100 100 99 92 81 76 71 69 67 62 60 57 56 57 61 66 67 62
79 77 79 68 69 71 65 66 70 60 60 58 57 62 70 79 91 94 100 97 96 99 96 97 100 100 100 100 91 84 76 72 69 67 65 64 62 62 64 66 72 66 64
67 65 64 62 54 53 58 62 72 80 77 82 88 90 87 98 93 90 90 100 99 100 99 100 100 100 99 97 91 87 83 80 79 74 75 72 68 63 67 70 72 70 71
65 61 63 63 59 55 59 62 63 66 75 68 59 79 81 99 100 97 96 99 100 100 100 100 100 100 100 100 100 99 95 87 84 76 76 72 71 70 72 71 69 72 80
63 60 68 73 76 70 68 73 70 68 65 59 90 100 95 99 100 94 98 100 98 99 100 100 100 100 100 100 100 100 98 95 86 75 80 78 77 77 86 83 79 79 87

GFSMW_500_rhum_084.txt.gz
RH
92 86 53 48 64 94 59 54 60 56 52 70 81 53 28 26 24 23 26 28 37 45 52 53 63 65 60 45 41 45 45 45 42 45 44 40 67 71 52 54 61 55 42
94 90 94 78 61 50 82 76 88 50 68 85 83 69 68 56 33 29 33 38 38 40 45 57 63 65 56 46 43 44 45 45 45 51 54 50 64 67 56 55 53 39 24
86 99 98 94 93 77 60 58 65 82 72 75 83 85 80 86 87 70 47 47 48 52 48 56 59 53 49 50 48 50 54 55 58 60 58 54 58 64 55 58 47 23 30
81 80 93 97 94 88 85 61 48 50 64 60 65 86 96 96 98 95 96 70 72 66 60 54 50 50 51 55 56 60 63 64 62 63 62 58 61 59 58 49 20 22 32
73 75 81 97 92 95 95 86 58 50 44 36 38 44 80 86 92 95 93 95 89 75 62 56 57 59 61 62 65 67 68 66 64 66 61 62 63 61 56 37 22 28 31
80 84 64 87 88 94 94 95 87 64 60 49 45 43 42 50 64 81 81 76 69 67 68 66 64 69 75 66 66 68 71 74 73 69 67 63 65 63 45 31 30 35 32
92 85 66 65 82 89 97 95 93 95 74 65 69 67 68 77 73 75 72 68 62 63 70 64 69 74 72 73 75 76 76 74 72 71 65 64 61 56 44 33 32 33 36
58 88 76 60 74 88 95 94 95 94 96 95 90 85 80 77 76 77 69 64 58 64 75 78 79 81 82 83 81 79 72 70 67 61 60 59 60 58 38 34 32 35 42
42 56 73 56 70 86 89 100 98 97 97 96 96 94 95 97 98 96 96 92 84 80 83 85 89 92 91 87 78 70 67 62 64 62 59 59 58 37 34 31 35 42 30
52 50 57 71 70 99 100 92 96 100 96 95 92 93 94 97 97 96 97 98 97 92 91 95 94 89 80 71 67 64 68 65 65 62 56 41 30 30 31 35 40 27 18
71 89 81 56 48 65 83 85 83 95 93 81 79 87 97 96 96 98 97 96 94 90 92 90 84 78 76 71 70 71 68 67 64 63 62 47 32 29 32 38 30 18 20
41 42 73 94 91 89 94 87 97 91 92 93 89 85 96 97 92 96 97 97 96 96 97 88 81 79 77 73 72 72 66 66 64 61 59 46 37 35 37 32 19 23 29
25 35 42 39 54 75 96 100 96 99 93 99 96 92 97 96 90 88 95 97 97 96 95 88 87 84 78 75 71 69 67 68 66 61 44 40 34 40 34 21 24 34 35
23 21 23 33 39 39 35 36 45 61 78 97 98 96 95 99 99 99 99 98 98 99 98 98 91 83 76 74 72 66 64 67 60 54 50 45 49 53 46 30 40 36 34
24 24 24 25 29 32 30 29 30 39 41 38 39 51 76 94 97 96 96 97 95 94 89 81 76 73 70 66 62 62 67 75 56 60 53 62 61 43 41 43 35 39 41
33 30 26 23 21 26 35 40 44 39 36 48 57 61 66 67 71 75 78 78 77 70 61 58 57 60 70 71 70 68 62 46 49 58 60 56 69 68 46 40 49 51 43
44 47 33 28 22 23 23 35 43 51 46 45 52 61 63 65 69 69 68 63 60 57 55 54 61 84 87 78 79 73 57 71 82 88 87 78 54 49 57 63 61 51 44
38 38 36 36 36 25 30 44 49 66 62 62 64 65 64 64 63 61 60 66 66 67 60 58 64 83 84 88 87 70 75 90 94 95 87 62 66 87 74 67 67 57 56
27 35 38 38 38 32 55 54 58 68 72 76 79 86 86 82 83 84 83 82 77 74 81 87 86 79 76 91 100 97 95 97 90 82 77 86 95 85 76 72 65 62 58
42 33 33 35 43 63 62 58 79 86 92 86 99 91 84 85 97 90 77 74 83 91 90 93 95 86 92 100 100 95 95 92 89 99 98 100 92 86 76 66 69 64 60
87 69 55 45 56 79 83 76 94 88 86 90 88 76 86 88 83 84 84 94 98 89 92 94 90 91 95 98 98 98 99 100 100 100 100 100 94 84 65 67 64 64 63
81 97 99 100 98 95 90 78 78 76 80 78 67 62 72 84 85 81 79 85 87 88 91 97 97 98 100 98 99 100 100 100 100 100 100 97 79 69 66 63 63 66 66
64 80 87 100 100 100 90 86 93 94 74 67 70 64 67 62 58 68 74 82 87 85 96 99 99 99 98 100 99 100 100 100 100 100 94 82 74 72 72 71 72 72 70
65 58 62 70 71 70 73 71 66 66 66 65 68 75 66 78 85 85 89 100 98 94 98 100 98 100 99 97 97 99 98 98 99 100 99 96 89 89 84 82 78 73 74
71 52 62 70 69 67 64 62 57 53 55 62 70 76 87 86 64 70 75 83 93 95 100 100 100 100 100 100 100 100 99 100 100 100 100 100 98 94 85 84 84 83 93
57 46 45 63 65 63 67 67 65 60 61 63 63 62 62 58 90 100 93 91 100 90 94 100 100 100 100 100 100 100 100 100 100 100 100 100 100 100 99 92 92 95 100

GFSMW_500_rhum_087.txt.gz
RH
30 28 23 48 70 74 57 81 86 94 89 75 66 56 51 67 55 20 16 21 27 28 32 35 40 52 49 55 62 64 53 48 48 51 52 56 58 58 56 53 59 58 56
31 31 24 27 84 83 86 67 80 87 86 76 72 74 63 70 82 63 58 46 42 35 37 47 50 49 49 53 60 56 48 50 53 53 53 54 60 60 59 59 59 60 56
37 30 42 43 79 92 96 69 83 94 88 82 88 83 81 84 89 85 71 68 49 41 42 45 48 57 50 55 52 47 47 51 56 57 52 52 58 62 62 63 60 60 55
31 29 44 64 79 74 96 90 71 84 92 94 96 96 96 98 97 96 97 96 96 96 83 66 57 59 60 56 52 51 56 60 68 63 61 57 55 57 59 61 60 57 52
28 28 57 90 89 82 83 100 96 95 95 90 87 92 94 95 86 81 89 96 94 94 92 93 77 76 74 69 62 60 59 74 72 61 62 62 66 64 54 50 62 53 49
35 34 28 60 73 92 91 100 97 96 94 96 96 80 66 63 52 45 47 72 89 85 85 78 76 74 66 61 58 57 61 67 66 62 66 71 69 68 56 52 53 56 48
15 29 45 44 48 74 89 96 95 95 98 97 97 80 70 67 54 48 51 60 65 70 63 67 62 59 55 55 62 57 62 67 71 78 75 69 64 58 57 54 56 56 45
14 18 39 66 58 57 86 92 92 94 96 97 96 98 99 71 61 63 62 64 61 68 71 72 65 62 63 66 66 70 76 80 87 86 75 66 60 59 58 54 53 45 34
12 12 19 43 70 70 80 79 75 84 90 98 98 97 98 98 98 84 82 89 85 86 92 87 81 83 81 79 81 87 91 90 82 72 65 60 61 58 58 56 50 41 38
21 17 17 32 52 59 72 78 66 79 90 90 97 96 95 97 96 92 99 99 95 95 98 98 96 96 94 94 89 94 87 78 70 64 65 63 58 58 60 60 55 44 38
39 44 50 44 53 60 67 76 76 77 93 96 100 99 98 98 87 96 90 93 88 96 89 89 95 99 97 91 87 86 78 78 71 68 66 62 60 61 58 59 51 44 39
31 24 25 40 75 70 72 84 89 92 100 98 96 90 85 88 86 78 86 89 95 95 96 93 90 91 90 92 89 92 82 79 77 70 65 67 65 64 62 51 46 38 39
25 28 21 32 42 52 84 91 100 89 97 98 94 89 100 99 99 98 97 95 94 98 96 89 96 91 89 92 92 90 88 81 75 70 67 64 65 63 55 51 49 44 45
26 25 24 22 23 34 44 49 80 93 98 97 97 96 97 98 98 98 97 97 95 89 85 92 95 94 93 93 88 88 91 88 81 73 68 64 66 60 60 55 56 60 45
47 30 30 29 24 24 33 33 34 39 43 54 58 62 44 36 52 52 64 84 94 95 94 92 93 95 89 84 82 79 74 69 66 64 63 65 74 49 59 61 58 55 51
44 40 34 32 30 26 22 21 26 26 28 30 29 26 25 25 34 51 57 50 48 56 66 72 73 64 59 55 55 54 51 55 65 74 79 56 58 72 65 65 86 74 57
42 45 45 46 44 40 34 25 24 26 36 38 38 40 43 44 48 61 66 66 65 65 64 65 59 57 52 51 51 56 73 84 82 84 64 75 78 88 91 95 89 72 90
32 27 29 36 41 40 39 36 35 29 34 39 43 49 55 59 63 64 65 66 65 63 65 72 78 76 71 68 72 82 86 88 98 94 80 91 98 94 98 94 93 99 90
44 51 31 25 34 40 40 37 38 41 44 46 46 57 62 71 79 78 78 82 85 84 82 78 77 76 75 86 91 93 92 96 100 100 100 99 98 100 97 99 98 98 83
60 72 69 43 36 32 40 46 46 58 67 55 60 79 86 81 90 93 80 82 95 90 74 75 81 85 88 87 93 87 97 98 99 100 100 100 100 99 100 100 97 92 73
69 74 89 94 84 66 54 40 41 54 55 58 86 94 82 83 87 79 82 86 82 82 88 81 82 79 83 90 95 99 100 100 100 98 98 100 100 100 100 99 100 89 74
50 53 58 75 100 98 97 96 98 100 100 100 100 91 82 74 63 62 78 81 83 80 78 82 83 82 84 91 94 99 98 100 100 100 100 100 99 100 100 100 96 78 74
65 61 61 62 72 100 100 100 99 100 100 89 85 80 77 72 69 65 69 63 62 69 78 82 84 86 95 89 90 96 99 100 100 100 100 100 100 99 100 99 95 89 81
73 73 68 68 67 64 71 85 94 97 100 99 86 84 77 68 68 72 63 71 86 83 88 84 88 84 83 90 100 100 99 100 100 100 100 100 98 98 97 100 100 100 100
54 69 76 77 69 56 67 71 70 69 67 66 62 57 56 60 70 80 89 93 73 71 83 92 96 92 88 90 96 100 100 100 100 100 100 98 98 99 100 100 100 100 100
58 60 78 68 65 52 56 67 66 65 68 67 66 64 62 66 69 70 69 64 76 100 100 87 86 99 97 100 100 100 100 98 100 100 100 100 100 100 100 100 100 100 100

GFSMW_500_rhum_090.txt.gz
RH
29 31 36 44 53 42 45 48 64 82 90 95 96 98 93 77 63 58 58 54 41 24 18 24 27 30 35 41 52 52 54 62 63 54 49 52 54 54 50 53 57 56 51
33 29 28 30 35 50 58 65 90 88 84 92 76 89 81 67 66 54 48 58 67 40 29 23 28 29 31 42 46 47 45 48 54 47 42 46 56 56 58 58 58 56 52
40 31 30 30 31 31 30 29 50 91 81 93 82 76 86 79 75 78 85 81 95 95 95 86 42 40 49 55 46 45 41 44 50 45 46 47 68 67 61 59 61 57 58
54 32 30 31 32 34 35 34 32 57 82 89 96 86 80 76 92 80 94 95 96 96 97 96 93 64 59 60 50 46 52 55 56 57 58 56 58 61 53 63 59 52 48
41 36 32 33 38 40 33 30 38 55 68 71 96 91 92 97 95 97 98 97 96 95 96 96 96 95 92 90 73 71 63 62 66 62 55 58 52 56 51 57 68 56 44
54 49 42 38 39 28 24 35 47 62 85 84 90 86 94 89 89 91 96 95 94 93 72 66 75 72 77 82 80 80 71 66 53 54 57 62 60 67 70 65 65 52 48
41 34 27 26 28 26 24 29 63 71 87 94 79 96 98 92 96 95 95 94 93 77 61 96 62 46 46 49 52 49 45 46 56 57 60 60 64 79 83 73 62 51 50
34 28 23 20 18 20 37 33 37 64 69 89 98 94 98 98 97 96 94 95 90 88 84 88 82 96 71 72 66 60 56 55 56 67 78 85 90 87 73 65 60 55 52
29 35 28 16 16 17 22 39 48 50 72 93 95 94 98 98 98 97 96 92 86 76 64 60 66 82 91 83 81 77 72 76 78 84 89 93 82 74 66 63 61 56 54
16 15 13 13 13 12 14 30 59 66 64 83 87 80 93 96 98 97 100 98 96 96 95 95 94 96 94 89 93 93 86 80 86 89 87 82 76 74 70 65 58 57 58
17 19 21 16 18 24 17 16 48 69 92 79 68 76 80 89 92 98 97 97 97 84 98 97 98 97 95 96 95 90 88 87 85 83 80 83 78 73 71 64 61 58 59
34 30 30 33 32 36 45 41 32 54 61 75 82 70 88 98 97 90 90 98 98 97 95 98 98 93 86 88 96 91 92 90 92 79 76 80 80 75 70 68 64 61 62
39 32 29 29 23 22 33 44 67 63 57 73 80 81 83 87 100 98 97 96 97 98 96 94 96 82 81 91 90 91 86 82 84 78 83 87 81 81 80 75 69 64 63
25 25 28 28 26 24 21 32 46 49 67 80 84 95 99 89 96 94 89 93 97 96 94 92 94 94 93 90 78 74 77 80 82 80 81 80 76 73 74 68 67 71 62
26 30 42 45 38 25 24 21 23 35 39 42 55 67 87 91 95 91 94 80 81 70 94 90 83 90 94 93 96 88 84 80 77 72 68 68 66 64 65 69 72 72 62
47 52 51 48 46 30 27 24 24 22 27 30 35 37 43 43 39 34 32 30 30 29 42 53 55 48 51 58 53 52 53 55 52 48 49 56 62 68 83 75 72 76 69
47 52 51 49 46 41 38 36 28 25 24 24 26 30 33 37 34 33 28 28 29 35 45 57 62 63 61 58 59 56 53 54 57 62 72 76 87 86 75 87 96 93 94
39 40 40 40 46 47 46 47 45 40 34 30 30 29 27 29 32 34 35 35 41 46 50 57 60 61 62 63 69 72 66 63 61 69 75 88 94 100 98 100 100 100 100
38 34 30 30 31 28 39 44 41 43 43 42 41 41 38 41 50 44 51 56 58 69 76 76 75 76 76 70 69 74 81 83 92 95 90 89 100 100 100 100 100 100 100
52 50 50 54 54 60 51 38 39 46 45 43 40 40 50 62 56 58 65 80 80 92 83 73 88 85 77 75 76 77 93 90 95 92 93 99 100 100 100 100 100 100 100
47 44 57 70 74 77 88 86 73 47 43 44 47 50 62 71 69 76 89 79 90 81 77 79 80 81 82 80 84 80 83 88 89 95 99 100 100 100 99 99 100 100 100
62 61 56 59 62 71 90 100 100 94 69 54 52 56 65 77 84 97 91 76 65 64 71 74 79 79 73 79 78 82 84 90 94 100 99 100 100 100 100 100 100 100 100
46 49 53 60 66 62 62 86 100 100 100 100 100 100 100 100 100 100 96 86 73 68 68 69 64 72 78 81 83 88 90 91 92 99 97 97 100 100 100 99 100 99 98
53 48 52 54 59 70 70 70 74 98 100 100 100 100 100 98 100 100 100 93 78 70 63 68 86 85 88 85 87 85 87 90 98 100 100 100 100 97 100 100 100 98 96
64 65 61 60 66 74 77 81 68 65 77 94 98 98 96 97 96 84 76 70 72 78 83 90 91 73 83 91 86 85 86 81 81 86 97 100 100 100 100 100 100 100 100
95 79 76 67 62 63 73 78 74 61 72 73 73 73 71 70 70 72 68 69 73 79 84 75 73 84 98 87 74 86 93 96 99 100 99 94 89 89 94 97 100 100 100

GFSMW_500_rhum_093.txt.gz
RH
44 68 94 95 95 79 95 96 97 94 90 94 96 93 95 96 97 96 90 74 69 68 59 52 41 22 19 25 29 32 35 44 51 52 52 58 55 50 47 47 50 59 58
50 45 42 58 77 94 91 98 94 94 90 89 94 82 81 87 95 93 95 87 64 58 56 56 61 45 23 24 28 28 37 47 47 43 40 48 52 49 48 58 61 58 58
55 45 42 31 42 58 54 71 79 90 82 86 83 93 90 86 95 82 69 80 86 84 86 88 85 83 55 30 36 36 36 45 47 39 36 40 47 46 55 59 57 54 52
51 62 41 32 32 32 48 57 62 74 78 96 100 84 73 91 92 75 80 63 74 91 89 97 97 96 97 95 90 64 48 42 53 51 50 53 59 64 59 58 57 60 56
53 49 50 51 43 35 32 31 52 65 70 66 92 96 88 75 95 89 93 97 84 80 85 94 96 94 97 96 99 96 88 89 90 79 67 60 60 62 53 55 56 56 58
59 56 54 47 46 41 31 30 35 36 44 59 72 53 88 96 94 96 91 96 96 97 96 97 95 96 95 80 78 79 84 92 86 78 72 63 54 51 58 51 51 59 65
66 58 56 52 47 46 38 34 35 38 36 29 42 58 80 98 88 94 97 97 96 96 96 95 95 95 97 90 97 82 68 80 65 66 53 50 49 48 51 57 68 70 73
43 48 54 48 44 42 38 36 28 24 19 20 34 46 58 71 94 96 96 97 96 96 96 96 96 95 96 92 94 96 93 94 75 65 58 58 58 58 68 78 81 76 69
59 54 53 50 43 40 33 24 21 18 14 14 14 24 69 47 62 75 94 97 97 97 98 93 96 94 82 80 76 82 72 83 86 80 77 73 80 76 77 83 83 74 70
51 42 34 31 28 26 23 22 21 19 18 18 20 19 21 42 51 71 84 96 94 96 96 95 84 93 92 91 94 94 92 94 83 78 87 83 75 75 83 83 83 83 77
45 40 36 31 27 27 24 16 15 14 14 14 17 26 27 45 49 70 72 82 97 98 97 90 97 87 90 94 88 98 89 87 74 78 82 81 76 75 81 85 84 94 84
41 34 27 24 21 15 14 15 18 18 15 15 15 19 34 54 76 70 88 94 100 96 87 98 96 96 94 97 89 93 89 81 79 82 77 81 83 82 80 83 84 88 86
25 23 25 28 29 29 27 24 22 23 27 34 35 26 36 56 69 82 86 80 78 97 99 98 99 99 95 86 81 74 71 73 83 80 77 71 70 64 71 75 74 80 81
23 30 42 40 35 31 29 27 22 18 21 24 33 59 64 56 65 66 77 82 82 81 92 96 92 85 84 73 71 68 70 73 71 84 77 78 78 77 78 80 78 79 79
24 29 30 32 28 25 24 25 24 24 20 18 20 28 36 61 78 74 90 88 92 74 75 88 78 64 53 48 47 62 85 65 58 61 65 67 70 68 66 62 65 70 74
39 35 31 31 29 26 28 30 31 31 26 23 20 19 24 29 36 49 54 53 49 50 42 21 18 18 23 26 31 37 45 48 49 51 51 50 53 53 55 62 72 82 82
62 58 51 47 45 43 42 42 43 42 29 25 24 22 22 22 24 23 23 26 28 28 27 24 27 29 32 35 40 47 48 53 56 58 56 60 62 65 70 77 91 98 88
52 48 48 54 60 60 57 52 49 44 36 32 30 28 26 25 23 24 25 27 30 32 34 33 35 39 44 52 58 60 63 64 64 63 63 65 68 78 92 100 100 100 100
62 57 46 40 41 45 52 52 49 49 48 46 43 38 36 36 35 33 32 30 32 40 37 41 47 49 55 69 71 69 73 68 67 68 71 80 95 97 90 94 100 100 100
70 61 57 50 40 36 35 34 32 32 32 36 46 45 41 41 41 42 43 44 43 46 47 63 67 63 70 68 72 74 78 71 69 69 83 89 94 93 98 100 96 95 100
61 61 57 53 48 46 43 46 50 42 49 40 33 33 46 50 48 46 48 48 63 63 76 81 75 76 69 72 74 78 73 72 78 81 91 97 99 100 99 100 100 100 100
47 51 53 54 54 51 47 50 70 81 72 68 56 62 58 53 53 50 51 54 67 70 80 88 74 70 69 70 72 72 66 76 78 86 84 91 92 97 95 99 100 100 100
34 49 50 50 54 66 61 59 61 66 74 90 93 92 74 67 63 68 72 80 85 99 100 92 78 67 64 72 65 75 84 86 81 91 91 90 92 100 100 100 97 91 99
16 74 60 47 55 57 58 60 69 68 68 95 100 98 99 99 98 99 100 100 100 99 100 98 93 80 69 67 84 87 90 87 85 90 93 93 94 97 99 97 100 100 100
22 99 100 57 55 64 61 61 68 79 78 79 91 98 100 94 96 100 99 100 100 100 100 100 97 84 74 84 100 77 78 85 82 87 96 96 98 96 93 90 95 100 100
69 71 84 100 80 70 72 72 76 83 82 83 74 68 82 100 100 100 98 96 92 91 84 77 82 83 92 92 80 77 93 91 78 92 94 98 99 100 100 100 100 100 100

GFSMW_500_rhum_096.txt.gz
RH
93 94 92 94 96 95 97 96 95 95 96 95 97 97 96 96 95 97 90 89 92 81 83 79 69 64 57 51 32 21 23 29 31 38 43 49 51 48 44 46 45 41 39
70 74 87 94 96 96 95 94 91 93 95 90 95 98 89 97 95 100 96 96 94 96 87 77 71 60 54 57 63 47 26 27 33 35 39 48 50 45 42 43 42 36 43
67 60 60 72 93 84 91 94 90 91 90 90 91 92 93 96 95 94 92 85 89 85 75 72 80 84 94 96 96 95 88 31 34 34 37 40 49 48 52 50 52 62 65
62 62 56 53 56 70 96 97 88 95 86 96 92 90 97 96 96 96 95 95 92 82 88 91 94 96 90 91 96 94 98 95 72 47 48 50 50 55 58 66 63 59 62
82 71 60 49 46 46 50 62 70 96 95 88 89 95 87 87 84 96 96 96 96 95 94 96 97 96 96 96 97 97 96 96 95 92 96 96 92 90 77 66 64 52 51
89 84 75 61 60 60 61 50 38 36 43 57 61 68 76 74 82 92 92 96 96 96 96 97 97 97 96 97 96 96 96 97 98 87 88 85 75 75 67 58 52 54 53
77 77 72 61 56 69 62 57 57 48 37 30 44 48 66 49 37 55 69 58 89 96 97 97 97 94 95 95 92 95 96 96 94 92 91 89 87 68 65 59 56 52 53
72 74 76 78 75 60 54 51 60 58 51 40 33 39 38 39 28 38 38 69 80 64 96 97 97 97 96 96 96 97 97 96 95 92 92 82 72 65 67 67 66 67 65
83 89 84 79 67 58 55 52 52 48 44 40 37 33 28 21 16 22 31 54 62 63 91 91 97 97 96 98 98 98 95 96 99 99 91 90 88 82 72 68 79 74 69
69 66 64 69 76 71 62 55 50 46 43 36 26 21 17 15 14 14 18 40 62 70 75 79 69 96 96 97 96 95 100 90 84 88 88 89 84 78 67 68 77 80 75
70 63 58 54 53 55 49 44 40 34 30 24 21 21 20 17 16 15 17 21 32 30 39 59 69 82 92 96 97 96 97 96 91 80 78 79 77 74 67 65 68 66 75
49 56 54 52 44 38 35 33 31 30 28 27 23 18 16 16 17 15 14 15 34 56 57 55 71 87 94 92 93 96 93 94 90 86 74 72 75 75 64 58 70 68 68
73 60 52 47 44 42 38 34 30 26 25 23 18 16 18 20 18 15 14 13 22 30 62 71 84 88 80 78 94 95 95 94 91 76 60 58 49 55 57 59 68 65 70
63 46 44 41 39 36 31 28 25 24 23 21 19 19 17 15 14 17 25 30 30 35 42 56 64 66 69 77 76 75 71 84 62 42 38 40 54 64 60 61 66 70 73
50 41 28 24 24 27 29 30 29 28 26 25 23 18 16 16 16 16 16 20 70 94 72 76 91 95 85 72 60 38 21 20 22 28 40 46 56 60 64 68 67 68 66
48 37 30 26 25 31 42 41 37 33 29 26 24 23 22 23 20 17 17 17 24 46 64 64 66 67 49 26 20 23 23 25 28 34 39 40 46 48 51 55 54 53 54
67 55 50 44 36 31 31 31 32 33 32 26 24 25 28 30 26 23 22 20 20 19 18 21 21 21 23 21 22 24 29 43 47 49 48 47 47 49 56 60 56 58 67
66 84 94 89 78 65 57 46 36 31 31 32 31 38 39 36 31 27 25 26 24 22 22 21 21 21 23 30 39 42 44 48 58 60 55 58 59 60 62 64 72 81 87
49 61 68 79 96 100 94 90 84 68 58 57 53 50 46 37 34 32 32 31 31 32 28 29 30 30 28 33 38 37 46 53 60 61 66 67 65 66 76 87 88 90 91
44 62 74 80 73 78 73 63 51 55 57 62 59 51 50 50 48 45 43 42 40 41 41 41 41 41 44 46 42 47 61 64 64 70 70 69 71 68 75 84 92 95 93
48 44 41 54 73 88 84 67 62 54 55 46 41 35 32 28 30 35 44 49 49 48 46 45 45 43 48 49 57 68 72 63 65 68 64 67 71 81 83 86 90 94 86
26 16 29 57 46 51 66 71 65 66 59 54 46 40 39 43 42 44 50 45 47 50 49 49 52 50 51 63 75 72 69 66 64 67 66 71 74 82 82 86 91 90 90
20 27 29 24 21 39 51 51 62 63 62 56 48 44 54 67 76 73 79 72 59 60 58 52 56 54 60 79 92 76 66 67 67 71 84 88 81 78 85 91 90 95 96
11 13 15 21 20 16 18 50 52 58 69 68 53 50 59 80 83 85 92 85 70 69 73 85 88 95 100 99 100 90 87 72 76 87 90 91 90 81 85 90 94 92 96
56 26 13 12 13 14 34 75 54 57 62 69 65 68 69 74 94 100 99 100 96 98 95 94 92 95 98 94 100 98 95 77 93 89 94 95 84 87 89 93 96 98 97
92 97 56 12 12 27 100 100 66 67 69 70 68 78 81 80 89 99 96 97 93 90 100 94 94 96 99 100 100 99 96 96 92 87 99 95 88 91 91 98 100 100 99

GFSMW_500_rhum_099.txt.gz
RH
87 95 96 91 97 96 97 97 96 96 96 96 94 95 96 93 95 95 95 89 72 66 70 62 61 59 64 62 65 63 58 50 36 24 24 31 36 36 35 31 32 34 36
88 96 95 96 96 96 97 97 97 91 95 96 97 91 95 96 96 93 92 84 89 82 82 89 80 73 74 72 63 60 61 71 77 80 67 31 27 25 26 28 32 36 39
96 97 97 94 96 96 97 98 96 96 94 95 94 85 92 96 96 94 94 96 89 88 86 83 80 83 78 73 77 88 96 96 95 99 92 76 43 31 34 38 43 48 52
95 90 93 93 90 95 87 93 95 95 95 97 95 92 94 95 96 96 95 98 98 94 91 93 96 96 96 97 97 97 97 94 83 90 91 92 90 70 68 61 57 59 67
90 97 93 95 97 94 92 93 94 95 97 94 94 94 97 96 95 96 94 93 96 97 96 94 97 97 97 97 96 97 97 83 83 91 89 87 93 95 86 89 92 89 70
92 91 77 81 74 60 64 80 81 94 91 69 70 66 90 87 93 95 94 96 95 96 96 96 95 96 96 97 96 95 90 81 90 92 90 94 92 88 71 65 71 72 64
99 96 88 80 68 51 46 50 49 52 66 56 45 40 54 53 64 79 65 92 77 78 94 94 93 96 93 97 96 98 96 97 96 97 97 96 95 88 80 70 68 64 61
92 92 83 72 79 76 72 65 60 58 58 52 46 49 48 44 42 45 44 40 27 41 36 48 94 95 92 95 96 98 96 97 97 95 96 96 96 84 73 74 68 65 66
99 85 82 96 90 81 77 71 68 57 50 45 47 49 54 50 44 42 36 36 18 16 14 20 28 31 30 28 46 50 84 95 98 94 96 95 87 81 82 82 82 77 67
77 76 85 90 83 76 70 77 72 64 52 49 52 60 58 46 40 34 24 20 16 14 12 11 10 11 16 30 59 65 79 87 89 97 95 95 95 88 94 91 75 76 67
64 62 80 86 86 84 89 86 77 69 63 55 50 47 44 40 32 26 19 17 16 14 13 13 11 11 10 15 34 39 58 70 84 96 98 96 96 96 94 92 74 63 61
77 76 76 80 82 74 72 67 67 69 65 58 52 43 35 31 24 21 20 18 17 15 16 16 15 14 14 15 16 20 38 60 69 72 79 92 93 93 92 88 58 53 51
71 72 70 69 72 70 62 60 60 53 46 39 35 32 29 27 26 25 21 17 16 19 18 15 11 10 11 13 20 28 43 67 74 65 64 63 56 58 65 60 42 36 41
86 89 88 77 67 67 62 52 46 43 40 37 35 32 28 26 23 20 18 20 18 15 13 13 12 22 52 52 45 41 60 58 55 56 52 46 44 51 55 54 77 84 73
36 51 64 78 76 64 50 46 45 42 40 36 32 29 27 26 24 23 20 17 16 15 16 16 16 19 32 52 67 71 64 73 54 25 21 23 23 24 29 33 36 42 48
33 40 38 45 54 72 81 64 34 30 32 35 36 34 32 29 27 25 22 20 20 18 17 17 17 16 16 22 29 36 36 27 22 20 20 25 32 38 40 41 42 42 49
33 39 50 54 61 59 42 36 46 42 28 30 36 39 36 31 28 26 24 24 26 25 23 22 20 20 20 20 21 21 20 19 25 26 29 32 37 53 56 54 58 60 61
20 27 41 46 50 60 65 59 51 43 34 29 33 36 39 33 27 26 25 25 28 29 28 24 23 23 24 23 21 22 23 22 24 24 24 33 50 52 54 60 60 61 68
14 26 32 25 35 66 74 74 83 73 72 60 48 40 31 29 28 29 29 27 25 29 30 27 27 29 30 32 32 32 32 30 29 30 33 52 56 56 60 61 62 65 71
10 9 6 9 28 42 44 79 96 100 100 98 85 76 65 46 45 48 48 49 44 43 35 35 36 37 40 41 41 38 39 35 41 40 45 58 55 57 58 56 63 75 76
11 10 9 9 19 29 22 37 47 85 100 100 100 99 87 79 68 58 55 52 51 51 49 48 47 46 46 43 42 44 46 43 45 46 48 62 58 60 60 63 65 75 79
11 10 10 14 22 27 33 31 29 60 62 99 100 100 69 52 49 47 45 43 43 39 36 34 34 33 38 39 39 41 46 52 53 67 67 66 64 64 62 72 73 79 82
10 8 8 8 8 10 20 23 27 25 63 62 98 100 99 71 56 53 51 50 50 44 39 42 49 51 48 47 49 48 51 54 55 78 84 71 73 73 78 79 82 84 85
8 10 38 38 50 42 15 13 22 26 30 61 66 96 100 90 63 57 57 63 61 70 67 63 73 68 59 54 51 78 89 92 96 100 97 90 90 90 88 87 82 91 93
8 49 81 77 80 73 74 12 14 29 21 17 49 68 89 88 71 64 61 66 81 85 84 86 88 90 93 93 89 87 81 85 98 100 100 100 100 99 87 91 84 94 96
20 72 95 87 90 97 79 13 14 18 14 16 37 68 67 74 79 93 96 72 72 80 91 85 88 95 92 90 93 94 94 98 100 100 100 100 100 93 98 100 98 95 88

GFSMW_500_rhum_102.txt.gz
RH
97 97 98 98 99 95 94 96 96 95 93 96 96 98 92 95 80 93 94 79 24 39 92 48 60 54 41 38 38 33 32 32 39 44 50 54 55 49 31 24 23 24 24
97 97 96 97 96 97 95 95 96 95 95 97 97 96 97 96 92 95 94 60 51 75 94 93 67 62 70 66 64 67 61 59 62 59 56 67 75 78 80 82 53 33 28
97 96 97 96 96 96 96 96 97 97 97 96 93 94 96 92 98 96 95 95 96 97 96 95 92 87 80 75 84 74 80 84 83 77 85 90 76 82 90 89 80 66 48
96 97 94 97 95 97 96 97 97 96 96 96 89 91 94 93 96 95 94 97 97 96 97 96 96 96 97 97 91 92 94 91 97 96 96 82 72 79 84 93 90 84 80
98 96 97 97 97 96 94 97 97 95 97 96 96 96 96 97 97 97 96 97 96 97 96 96 97 96 96 96 96 96 95 95 96 96 95 92 72 69 88 100 98 91 89
97 98 95 93 93 96 97 97 98 94 98 96 96 97 96 96 96 97 97 96 96 97 97 96 95 97 97 97 96 96 96 96 97 97 96 96 91 92 82 86 99 97 84
91 92 94 92 89 90 88 89 89 90 85 86 90 88 85 94 95 96 94 94 96 96 96 94 94 97 97 96 96 97 96 96 94 97 97 94 96 96 96 94 98 99 91
96 90 90 97 95 95 92 88 76 74 59 64 68 65 86 79 76 54 80 68 70 65 74 62 75 77 83 81 51 68 55 59 48 50 47 62 72 74 95 93 90 91 82
91 97 97 98 90 88 89 93 87 73 67 67 62 56 60 58 58 54 54 47 47 50 53 34 32 25 24 26 20 20 30 61 54 35 54 71 86 81 98 97 92 92 87
90 92 93 76 69 73 73 78 82 92 82 76 68 63 56 49 49 52 52 52 48 42 34 33 21 14 13 10 9 8 9 10 17 18 23 29 32 38 67 94 90 87 92
96 89 78 66 70 75 78 79 78 82 84 78 68 62 51 47 52 60 64 56 44 37 26 21 16 15 14 12 11 10 9 8 9 11 13 17 26 34 55 49 55 72 85
83 76 74 64 66 70 79 81 76 73 80 78 75 68 59 55 50 47 45 42 36 28 26 20 19 17 14 13 14 11 12 12 10 10 11 14 29 62 60 58 51 43 42
34 34 34 43 55 61 65 68 75 76 74 66 64 66 68 63 57 50 40 32 24 21 22 22 20 16 16 17 15 11 9 9 10 13 20 39 40 42 41 41 46 56 70
22 24 29 41 52 58 58 63 59 60 60 60 62 59 54 49 42 36 33 30 29 27 24 21 18 19 18 14 12 10 10 9 11 27 46 70 74 63 53 44 41 38 30
12 14 18 24 28 32 45 61 69 71 70 66 54 47 45 41 38 35 33 29 26 24 22 22 21 18 15 14 14 14 14 13 17 26 35 50 44 18 15 16 20 24 28
18 16 16 21 23 26 34 38 42 46 69 76 61 55 50 47 41 36 32 28 28 26 24 21 17 15 15 16 17 16 17 16 15 16 15 15 17 18 21 22 21 23 30
10 11 13 18 26 31 44 56 62 63 63 56 52 64 64 41 33 37 37 34 30 27 23 20 20 21 21 20 21 20 20 19 19 20 20 20 17 19 20 20 23 33 37
6 6 7 9 11 16 23 35 57 78 84 80 73 62 47 40 37 37 40 42 35 31 28 25 24 26 26 25 24 23 23 24 24 24 24 26 27 23 23 24 38 42 41
9 10 8 10 12 9 8 9 11 26 40 75 100 100 98 75 54 38 39 43 38 33 28 26 27 30 32 29 27 27 29 30 32 33 36 36 33 32 29 28 37 44 46
21 20 18 17 16 15 13 13 11 12 14 16 31 64 100 100 99 83 62 44 34 33 31 29 28 32 36 37 34 33 36 35 40 41 40 38 36 34 36 38 45 50 49
34 34 33 30 24 22 20 14 12 14 17 21 18 21 42 90 100 100 94 77 64 57 47 46 45 48 50 47 44 46 47 46 42 38 37 39 38 38 45 54 62 57 54
36 34 33 25 17 17 15 13 12 11 10 10 20 23 26 53 72 100 100 100 100 97 86 79 64 58 54 51 50 47 39 32 31 34 42 47 52 56 63 68 64 65 67
24 29 25 22 18 10 18 32 32 29 22 10 15 32 26 42 66 79 100 100 100 88 88 91 92 80 52 40 40 41 37 45 43 43 45 48 54 56 65 79 73 69 74
25 25 22 13 7 18 23 51 84 70 64 26 13 33 24 43 74 70 98 100 100 87 77 76 72 63 55 59 61 50 60 59 49 50 71 75 76 80 98 92 87 94 94
26 23 18 8 16 45 62 100 72 89 90 33 37 28 26 33 74 83 86 100 100 99 95 91 82 75 93 91 83 82 72 73 77 84 76 66 73 79 95 100 100 100 98
26 21 16 8 22 56 73 28 70 100 100 26 26 34 26 48 89 90 94 100 100 100 92 84 86 100 100 99 92 88 87 88 83 75 70 76 82 89 100 100 100 100 100

GFSMW_500_rhum_105.txt.gz
RH
49 71 97 98 97 95 95 98 94 97 95 98 95 94 96 96 97 95 87 63 78 64 83 95 41 81 30 53 19 19 26 23 30 35 31 28 27 35 46 52 55 64 62
69 88 97 96 99 96 96 95 96 95 96 96 96 95 94 94 94 94 95 93 91 90 95 84 50 56 85 75 46 73 42 52 53 57 65 66 66 63 62 64 69 80 73
81 95 96 96 96 96 96 96 97 97 95 97 97 96 97 96 94 96 93 87 88 94 94 91 31 53 88 93 91 69 73 81 84 89 86 87 89 87 86 88 78 70 74
93 95 96 96 96 97 96 97 96 97 97 96 96 96 99 95 97 94 87 92 98 89 93 56 42 74 92 96 97 96 94 92 99 97 97 94 91 93 96 92 81 72 81
94 97 98 97 96 96 97 97 97 97 96 96 96 97 96 97 96 92 95 98 96 96 95 86 68 96 96 97 96 96 96 96 96 93 96 96 97 96 98 97 96 96 90
98 97 96 97 97 96 97 96 97 96 95 97 96 95 96 97 96 96 96 97 97 96 96 96 96 96 97 97 96 97 98 97 96 97 96 96 96 96 85 71 72 86 82
96 97 96 95 95 95 96 96 96 96 97 98 95 97 97 96 94 96 96 97 98 97 97 96 97 97 97 97 96 96 96 96 97 96 93 75 63 62 49 39 40 35 33
90 97 94 92 86 92 92 93 98 95 95 92 94 97 96 95 97 96 96 96 96 97 97 95 96 96 96 97 96 96 84 50 71 82 47 43 36 32 29 29 26 27 28
96 94 96 92 90 90 81 81 83 87 85 84 91 94 91 92 91 79 96 91 85 90 92 95 95 91 78 52 66 84 84 37 32 22 34 31 19 12 10 10 8 10 10
96 94 85 96 95 88 74 60 60 57 60 68 84 85 82 78 74 70 73 73 70 64 59 69 57 54 52 44 28 26 16 13 10 10 8 8 8 7 7 6 8 11 13
85 79 84 88 91 82 69 60 55 48 47 46 57 67 65 60 54 58 56 58 60 72 77 56 52 48 42 39 36 19 17 12 12 10 9 9 8 7 7 6 8 23 52
61 82 90 93 88 75 64 59 54 51 50 51 52 58 53 60 63 58 53 46 43 46 59 66 63 49 45 28 22 18 16 14 12 10 10 10 8 7 6 7 12 24 39
20 20 21 20 20 20 20 28 33 37 41 48 50 55 52 55 62 67 68 65 59 50 49 50 45 41 45 26 21 19 17 14 13 14 11 9 8 7 8 12 32 58 62
14 13 13 13 13 13 12 12 12 15 18 21 27 37 46 51 55 56 56 64 64 58 52 44 41 39 22 22 23 20 18 17 16 14 12 10 10 9 13 31 29 15 12
17 18 16 15 18 18 16 15 17 20 19 24 28 32 35 49 51 52 57 57 53 48 40 36 41 31 27 25 21 20 20 18 16 14 13 13 12 13 14 15 14 14 14
8 9 9 14 15 15 18 22 24 21 24 27 40 51 66 73 68 65 59 49 47 42 38 36 31 30 26 24 22 20 15 15 15 16 16 16 15 15 15 15 16 16 16
6 6 6 6 6 6 7 7 8 8 10 13 26 37 46 54 59 70 57 56 49 46 41 38 34 30 28 26 22 17 16 16 17 18 19 20 19 19 20 21 23 24 23
7 7 7 7 7 8 9 9 9 10 13 13 10 15 22 40 66 68 63 57 50 39 39 41 40 34 29 24 20 19 20 21 21 22 23 23 23 23 24 27 32 31 28
11 11 11 11 10 10 10 10 10 14 17 17 17 15 14 12 18 38 68 75 70 50 51 54 49 40 30 28 26 25 26 28 27 26 25 25 28 29 33 37 35 31 27
13 13 14 14 14 13 12 10 10 10 16 30 30 29 23 14 14 13 16 46 87 81 63 50 53 54 46 32 29 32 36 34 34 31 31 29 32 36 40 34 28 29 29
18 18 19 19 16 14 13 13 17 27 31 33 33 28 18 14 14 14 12 13 22 75 99 82 54 47 44 42 34 33 32 43 41 40 39 41 45 46 37 30 26 28 32
20 20 21 18 16 15 15 17 28 36 29 25 22 14 12 11 17 13 12 14 15 24 60 99 98 85 68 55 50 52 52 50 52 51 50 51 45 32 28 28 29 31 40
21 21 20 18 17 18 24 34 26 23 18 11 16 33 45 40 38 17 28 22 22 20 47 91 100 100 100 98 91 77 65 64 61 56 49 42 39 29 30 33 41 58 64
24 23 21 21 20 27 32 25 22 21 17 40 54 33 48 74 57 20 42 35 34 20 21 81 98 100 100 100 100 100 99 85 73 58 45 50 47 38 39 60 65 69 74
24 23 22 23 27 34 30 25 21 17 38 21 35 84 89 100 52 30 67 41 47 43 79 100 99 97 100 99 100 100 100 100 80 64 66 62 51 52 71 68 62 69 79
24 21 24 29 34 35 30 27 18 33 26 14 55 97 100 92 39 54 80 38 57 72 93 100 100 100 100 100 100 100 100 100 93 84 77 76 72 73 72 72 72 82 86

GFSMW_500_rhum_108.txt.gz
RH
58 100 100 60 99 96 95 97 97 95 96 97 97 97 97 95 96 96 94 84 78 83 67 57 47 36 38 41 80 77 53 37 40 22 23 23 26 34 28 30 39 54 57
82 91 57 84 97 98 96 97 93 96 96 95 89 95 96 96 96 95 94 94 95 90 85 81 80 49 58 72 94 50 86 47 43 36 41 42 48 61 77 82 74 75 72
86 94 66 96 97 96 96 96 96 96 96 95 90 97 96 96 94 96 96 96 95 96 92 92 88 92 95 95 94 94 75 94 41 86 82 83 86 89 99 92 91 89 96
87 99 95 93 98 96 94 97 96 93 97 94 100 96 97 98 98 96 96 97 96 94 93 93 94 95 96 95 94 89 96 97 97 94 98 89 88 87 98 98 96 93 94
89 100 98 91 94 96 97 96 96 96 97 96 97 97 96 96 94 96 96 96 94 97 96 96 96 95 96 96 70 71 92 96 97 97 97 96 97 97 97 97 97 92 81
98 98 99 97 97 95 97 94 97 96 96 96 97 97 97 96 95 95 96 96 96 96 96 96 96 96 96 96 82 78 95 96 96 96 98 97 97 95 96 93 93 86 55
88 96 96 96 96 98 96 97 97 97 97 97 98 96 95 97 97 96 97 96 95 97 97 97 96 97 96 96 97 97 96 97 98 97 97 96 97 95 92 86 68 55 52
100 98 96 98 95 95 97 98 95 97 97 96 97 96 95 98 88 97 97 95 96 95 97 96 95 97 98 96 91 98 97 97 98 91 93 85 68 64 71 68 44 28 14
94 96 97 95 96 93 95 94 94 94 93 95 94 95 95 94 95 96 96 98 94 95 96 97 97 88 96 97 96 96 96 96 94 94 86 49 28 16 15 13 16 23 17
98 98 96 94 94 97 94 91 89 85 86 81 90 96 92 90 89 94 96 90 96 95 96 96 96 97 97 96 93 65 70 65 52 48 29 29 15 11 18 18 10 7 5
97 96 96 96 89 80 71 70 70 76 70 76 64 63 62 66 72 80 86 95 88 85 88 86 89 88 75 69 60 60 54 53 45 39 18 15 23 35 20 12 9 8 6
63 54 36 33 26 26 30 42 51 56 53 49 45 44 43 43 46 58 61 61 58 60 66 65 56 58 63 64 73 49 50 48 41 31 17 16 15 16 11 10 9 9 6
14 13 12 11 12 11 11 11 13 15 15 17 22 25 31 42 44 48 48 47 53 63 66 59 53 50 43 53 57 73 66 53 37 23 19 17 15 13 12 12 10 9 7
14 14 20 31 30 24 22 20 18 15 13 14 10 10 12 12 13 16 23 36 52 56 58 61 64 62 56 49 53 71 58 49 30 20 20 18 17 14 14 13 12 10 10
20 15 8 8 7 7 7 6 6 7 9 11 15 20 26 32 31 23 17 14 18 29 42 51 57 62 64 60 67 64 59 30 22 24 20 19 16 16 15 14 14 12 12
7 8 9 10 8 7 7 8 7 7 8 9 9 9 9 8 12 22 34 54 63 53 41 40 51 56 56 58 68 67 49 30 27 23 21 18 16 15 16 16 16 16 15
11 10 10 9 10 9 10 10 10 11 11 11 12 11 13 15 16 16 12 15 31 50 67 59 54 50 46 56 71 61 36 30 26 24 22 17 16 16 17 17 18 19 19
12 12 11 11 11 10 10 11 11 12 12 13 14 14 13 14 18 22 23 20 16 11 21 54 60 47 56 57 84 53 33 31 28 26 22 17 17 17 19 20 21 23 24
9 9 10 9 9 11 11 13 14 13 13 14 14 14 17 20 24 31 37 39 36 32 29 14 38 70 66 68 65 53 46 40 33 28 22 21 21 21 22 23 24 25 28
5 6 6 8 9 7 8 8 12 15 16 16 16 17 20 27 35 39 42 40 33 26 28 27 15 22 71 84 93 66 50 41 34 30 30 29 30 28 27 27 27 29 33
9 10 14 12 8 11 16 18 19 18 16 18 24 33 41 42 40 36 31 26 20 15 14 16 19 18 14 69 98 99 91 59 50 46 44 42 40 37 34 33 35 38 47
15 16 17 15 13 14 15 14 12 15 20 26 31 35 36 34 28 25 22 20 16 16 17 13 13 16 17 16 93 100 94 99 99 85 70 58 52 45 42 42 45 52 44
11 11 10 12 14 12 11 12 17 21 26 28 30 34 33 26 19 18 39 44 46 44 24 23 15 13 15 14 56 100 100 96 96 98 100 96 68 58 52 54 55 44 32
10 9 10 12 12 10 12 16 24 30 32 35 36 32 21 16 25 21 15 15 14 19 32 34 18 21 31 14 28 100 100 100 96 81 86 85 74 68 68 63 52 37 42
10 12 12 12 11 10 11 17 24 32 33 33 32 24 19 27 18 28 61 67 87 100 70 36 26 47 100 42 68 100 100 100 100 100 92 88 90 92 89 79 53 55 54
13 14 13 12 9 7 9 13 21 26 26 24 25 18 25 21 46 73 82 100 100 84 53 70 34 65 100 93 81 100 100 100 99 95 100 100 100 100 100 83 73 80 77

GFSMW_500_rhum_111.txt.gz
RH
16 15 13 8 10 41 52 94 80 83 95 96 96 96 98 96 97 95 95 90 81 75 71 67 61 51 41 39 32 29 23 21 38 82 80 30 38 35 24 28 27 39 44
22 18 14 11 30 52 66 99 98 72 95 96 97 96 96 96 96 97 96 96 94 88 80 71 63 48 74 80 76 37 27 26 79 93 93 68 56 31 36 43 50 64 79
22 19 14 44 56 54 70 97 98 95 97 96 97 96 96 96 96 97 97 96 96 93 74 78 90 95 90 74 93 62 54 94 94 95 95 87 75 41 78 71 78 81 90
18 21 41 65 75 62 95 100 96 96 97 97 96 96 96 96 96 97 96 93 98 94 92 96 95 94 95 92 95 95 95 96 96 95 96 97 92 90 88 90 88 92 97
42 54 70 45 98 96 96 97 96 96 91 93 94 95 96 97 97 96 96 96 97 96 95 98 96 95 97 97 95 97 95 96 98 95 99 97 97 98 93 93 88 86 88
70 98 97 98 96 90 96 94 97 97 96 94 97 97 96 96 94 97 97 95 96 98 97 92 95 96 97 97 97 96 95 95 96 96 91 94 90 97 96 97 89 93 87
94 96 96 98 98 96 89 94 96 94 96 97 97 97 96 96 94 96 96 96 96 96 97 97 96 95 97 97 95 96 96 94 97 93 94 97 90 91 98 98 98 96 86
90 99 98 98 98 96 96 96 97 97 97 97 97 95 96 96 97 96 97 97 97 97 96 97 96 96 97 97 97 92 98 95 90 97 99 95 100 99 99 96 93 75 49
98 98 99 97 97 95 95 98 97 96 97 95 92 97 95 97 94 95 95 94 97 96 97 97 97 97 88 97 97 94 78 98 88 98 97 98 95 80 86 66 30 21 22
98 97 97 98 95 93 94 92 94 94 91 94 90 94 95 96 95 95 96 97 97 96 97 96 97 96 83 98 97 97 98 98 96 96 95 96 89 61 55 23 14 26 44
96 98 98 92 72 62 66 56 56 57 62 76 74 71 76 78 76 77 75 85 81 95 96 97 97 97 96 96 93 97 96 98 95 94 95 96 87 62 23 16 21 42 31
87 64 52 40 30 18 14 13 15 16 19 21 30 42 46 48 47 49 48 53 60 68 62 77 73 80 80 80 89 67 90 80 79 82 74 64 65 70 39 21 33 34 29
74 42 23 17 14 16 21 18 13 12 13 13 14 20 30 26 25 34 44 46 48 52 65 66 62 59 64 72 65 65 65 72 66 63 62 59 53 49 49 18 16 21 13
38 29 24 22 16 8 5 5 5 6 7 9 12 16 18 24 30 32 28 32 43 51 54 56 53 56 64 66 63 60 54 64 72 71 92 88 69 51 25 24 22 15 18
8 7 7 7 8 7 7 7 6 6 7 7 7 6 6 6 7 7 10 23 36 43 49 48 63 71 70 70 71 69 72 71 77 69 75 77 60 39 20 20 27 16 21
12 13 9 9 8 8 10 10 10 9 10 9 9 8 7 8 8 8 8 8 9 9 10 19 39 57 64 68 72 65 67 85 85 86 77 72 62 70 30 30 25 17 16
16 14 15 15 14 11 6 5 5 5 5 6 8 9 11 12 11 11 10 10 10 11 12 12 11 11 20 41 60 62 72 67 80 90 82 82 88 54 50 26 22 25 16
18 14 12 7 5 5 5 5 4 4 5 5 7 8 9 10 11 13 14 14 14 14 14 15 16 18 14 12 16 41 61 60 97 98 100 95 70 35 30 25 20 17 18
5 4 4 4 5 5 5 5 6 6 8 8 9 10 10 11 14 14 15 13 14 17 21 19 21 23 26 25 27 19 20 54 62 86 100 100 99 49 42 31 30 26 20
4 4 4 5 4 5 5 5 4 4 6 8 9 9 12 15 21 26 30 27 27 26 26 25 26 28 29 33 33 32 30 27 51 74 82 100 77 68 53 45 35 27 24
5 4 4 5 5 5 5 4 4 5 6 7 6 10 21 22 26 34 32 31 29 27 26 27 26 26 26 27 27 30 31 31 44 78 87 83 71 66 63 48 37 31 28
4 4 4 5 5 5 6 5 5 5 5 6 4 5 7 11 25 34 36 33 31 28 26 24 22 23 24 21 22 23 23 23 44 82 96 100 91 67 56 56 52 43 38
7 6 5 5 5 6 6 5 6 6 7 5 4 5 5 7 14 23 28 27 22 18 19 20 19 22 19 16 16 16 18 41 69 79 100 100 100 98 77 68 66 58 55
8 7 7 8 9 8 6 6 8 9 6 4 4 5 5 8 10 15 21 23 27 30 23 21 18 17 32 17 15 14 13 19 53 56 100 96 98 93 99 94 88 97 98
9 9 10 10 8 7 7 9 10 7 4 4 4 4 6 9 11 13 16 33 67 54 65 76 72 32 32 38 25 25 17 34 52 96 100 87 95 100 95 98 98 99 100
13 12 12 10 8 8 10 11 9 5 4 4 4 5 6 9 12 13 27 68 97 82 72 84 88 96 82 100 44 77 69 24 87 100 84 84 95 100 100 96 95 98 100

GFSMW_500_rhum_114.txt.gz
RH
26 34 38 38 29 26 18 13 9 5 6 23 24 5 10 36 82 96 98 95 95 96 85 80 74 67 64 59 51 46 37 32 27 24 24 20 19 40 54 61 42 56 23
13 14 18 20 21 20 12 13 8 20 61 63 64 31 13 35 97 97 98 97 97 96 91 84 79 71 67 65 53 45 42 49 49 58 51 43 37 38 50 93 47 54 30
14 15 14 12 15 15 11 9 10 16 86 71 69 81 50 53 74 84 96 96 95 92 97 90 86 83 86 66 82 52 41 80 95 61 39 37 28 58 91 97 81 72 44
35 24 32 18 10 9 8 6 41 79 78 85 58 97 85 85 85 92 96 96 96 94 95 96 95 95 86 95 84 83 91 96 95 89 69 82 76 95 98 91 95 79 78
26 25 28 24 14 10 9 32 52 66 94 97 97 97 97 100 96 96 92 96 96 96 94 94 94 95 96 95 96 97 96 97 98 98 95 93 88 95 95 93 98 96 91
20 62 64 81 33 90 58 45 86 99 97 96 97 97 97 96 95 95 95 97 96 96 98 96 96 98 97 98 98 96 97 97 97 95 99 96 96 98 96 89 87 84 84
93 93 90 94 97 85 89 86 94 93 97 97 96 96 96 96 96 97 96 96 97 98 92 97 96 97 97 97 95 96 96 96 96 96 97 95 91 91 91 95 91 74 96
98 98 94 98 98 98 99 91 96 96 97 97 97 97 96 96 96 96 97 97 97 96 96 95 96 97 96 96 96 96 96 96 96 94 91 83 85 79 89 96 99 99 95
98 98 98 98 98 97 98 97 97 97 97 97 96 96 90 95 96 96 95 96 96 95 96 96 97 96 96 96 96 96 99 92 88 94 93 86 89 83 90 93 97 91 98
98 97 98 97 97 97 97 96 96 97 98 97 97 93 97 97 96 97 96 95 97 95 88 96 98 97 87 97 96 96 98 96 99 98 97 93 97 95 92 98 90 86 84
96 97 95 86 83 77 63 66 72 84 92 89 84 81 92 81 95 90 89 86 90 78 98 98 97 99 91 97 98 98 93 94 91 97 97 96 98 98 96 97 88 65 55
95 95 88 46 48 60 74 70 63 40 40 46 36 50 50 71 79 85 86 67 54 52 47 50 60 77 76 94 97 97 98 96 92 96 97 95 96 96 98 96 94 92 51
95 56 49 46 39 27 24 23 20 17 15 12 12 18 22 25 31 43 62 62 67 63 72 50 56 58 61 71 78 92 94 82 93 95 87 96 97 94 95 79 75 61 62
35 34 26 10 7 6 6 6 6 6 5 5 5 4 4 4 4 5 7 11 20 40 59 63 68 68 66 63 66 71 71 69 73 83 82 93 96 95 84 77 76 73 59
7 7 8 8 8 8 8 8 8 6 4 4 4 3 3 4 5 7 7 7 7 7 8 18 41 60 68 71 81 73 71 65 66 84 78 88 91 82 77 74 81 95 78
12 11 10 9 9 8 5 4 4 4 4 4 4 4 4 4 4 4 5 5 6 9 9 8 8 8 14 33 53 75 78 82 83 86 83 79 98 98 95 92 94 90 72
13 12 10 7 6 5 5 5 5 5 5 5 5 5 5 5 5 5 6 6 5 5 4 5 7 10 9 9 9 10 16 36 67 78 86 85 87 99 98 100 98 89 70
9 8 7 6 5 5 5 5 6 7 7 6 6 5 5 6 6 6 7 6 5 5 7 8 10 14 16 16 15 13 11 11 12 24 61 78 77 81 99 98 99 99 84
5 4 4 5 5 6 6 6 8 8 8 7 6 6 5 5 6 5 7 5 4 4 6 12 15 21 24 26 30 27 23 18 14 24 58 79 68 70 100 100 100 99 98
4 4 4 5 6 7 8 8 10 10 8 8 7 6 5 6 6 7 6 4 4 4 4 5 10 18 24 28 30 33 32 31 26 21 34 41 98 71 100 100 100 100 100
6 7 6 6 8 10 12 11 11 10 9 8 7 6 6 7 7 6 4 4 4 5 5 6 10 11 25 30 35 34 33 32 28 26 35 39 52 89 77 100 93 100 96
8 8 8 9 11 13 15 14 12 10 9 8 7 7 7 7 7 4 4 4 4 4 5 7 10 24 33 33 34 33 32 33 31 27 40 53 53 71 94 98 99 99 99
9 11 13 15 16 16 17 15 13 10 9 9 8 7 7 6 3 4 4 4 5 6 6 8 11 20 25 27 30 29 28 28 31 30 27 47 89 100 92 100 69 92 100
10 12 14 18 18 18 19 16 13 12 11 10 8 9 6 4 4 4 4 5 5 7 11 15 16 27 24 23 24 25 22 24 25 26 26 32 56 100 97 81 99 100 100
12 13 16 20 20 20 21 17 14 13 11 8 10 8 4 4 5 5 5 6 9 10 14 24 88 56 41 32 27 29 26 21 21 20 22 34 47 56 90 98 93 90 86
18 19 22 23 22 23 22 16 14 12 10 12 10 4 4 6 6 6 7 14 13 23 85 100 97 82 69 51 40 26 31 59 58 64 52 26 35 99 71 90 86 100 86

GFSMW_500_rhum_117.txt.gz
RH
36 45 41 40 46 53 57 56 48 48 48 40 20 19 14 11 7 7 4 13 80 95 96 96 88 76 82 95 72 63 60 53 48 41 36 30 27 25 22 19 18 27 46
21 19 25 33 37 53 60 55 53 50 47 42 26 18 14 10 8 17 5 4 33 77 94 95 95 88 99 84 83 69 63 54 53 42 36 36 48 74 68 59 22 25 36
15 16 17 21 30 42 49 49 46 42 39 23 15 16 13 9 19 55 11 8 48 85 99 97 99 95 91 94 94 88 77 88 57 75 75 52 59 66 80 89 41 43 50
10 13 15 14 15 24 36 40 37 28 19 12 14 14 11 10 15 49 22 40 76 98 98 97 98 97 98 96 97 95 94 68 82 94 76 83 83 78 94 65 44 52 86
15 10 13 14 13 13 19 24 24 16 13 12 12 13 12 17 80 80 76 98 97 98 95 97 96 96 95 97 95 94 94 90 94 94 93 97 95 95 72 76 87 93 97
36 20 18 20 25 15 14 13 10 9 9 21 24 28 51 67 90 98 87 55 78 96 90 94 96 96 96 94 95 95 98 97 96 96 96 97 97 97 94 97 97 95 97
37 100 100 96 66 39 31 10 10 19 34 41 50 93 98 98 96 97 98 99 98 96 100 95 97 96 96 96 98 98 96 96 95 94 96 95 96 96 96 97 99 89 88
99 99 99 99 98 90 95 94 55 75 87 93 98 100 96 97 97 96 97 97 96 97 96 97 96 96 97 96 96 96 96 96 94 94 95 97 96 96 95 96 93 82 76
99 98 99 98 97 99 98 99 84 88 99 98 100 93 96 99 97 97 97 96 97 96 97 97 96 97 96 95 95 97 97 95 95 98 96 96 96 97 96 85 87 86 85
99 99 98 98 98 98 98 98 98 97 98 95 94 96 97 96 96 96 97 97 96 97 96 97 97 96 97 97 97 98 97 97 98 96 96 95 97 100 83 92 99 99 98
99 97 98 97 97 96 98 97 96 96 97 93 96 91 95 96 97 96 97 96 97 98 96 97 96 94 94 96 97 97 96 87 93 98 96 96 97 96 87 97 97 97 95
97 98 97 90 85 74 60 45 43 30 26 42 19 49 62 66 36 32 31 54 75 68 42 73 90 78 93 96 97 97 98 96 96 97 97 98 90 96 89 97 98 95 96
88 75 50 33 28 19 12 7 9 6 4 5 4 4 4 4 4 4 4 4 4 4 4 4 10 36 60 70 90 89 94 89 93 98 97 98 98 96 96 97 97 98 98
21 13 9 8 8 6 7 6 6 6 6 5 4 4 4 4 4 4 4 4 4 4 4 5 6 7 7 22 71 98 89 90 93 97 97 96 97 97 98 96 96 98 97
7 7 8 9 7 5 4 4 4 4 5 5 6 6 5 5 5 5 5 5 5 5 5 5 4 4 4 6 7 9 28 75 97 82 97 93 98 94 93 95 95 97 97
10 9 6 4 4 4 5 5 5 5 6 7 8 7 7 7 7 7 6 6 6 6 6 5 5 5 5 5 5 5 4 8 13 63 88 83 91 96 97 97 96 96 98
4 4 4 5 5 5 5 6 6 6 8 9 9 9 8 8 8 7 6 7 7 7 7 6 6 7 7 6 6 6 5 6 10 8 21 53 71 79 97 98 100 95 98
4 4 5 5 5 5 6 7 9 12 12 12 11 10 9 8 7 6 6 7 7 7 7 7 7 6 5 6 8 11 17 18 16 13 9 13 31 54 76 100 100 100 98
5 5 4 6 6 6 9 12 14 15 16 14 12 10 9 8 8 7 6 6 5 5 5 7 4 4 4 4 5 12 20 26 29 26 18 14 30 59 100 100 96 97 99
5 7 8 8 8 12 14 16 17 18 18 15 11 9 9 9 9 7 6 5 6 5 6 4 4 4 4 4 4 7 30 29 33 33 26 25 40 59 80 99 93 100 99
8 8 10 12 14 16 18 18 19 20 21 16 11 11 11 10 8 8 7 6 5 5 3 4 4 4 4 4 5 5 14 42 42 40 35 27 30 50 74 75 97 100 100
9 9 10 10 11 12 17 20 21 22 21 15 12 12 11 10 8 8 6 6 4 3 3 4 5 4 4 4 5 6 7 22 37 42 39 35 33 35 49 81 78 100 100
12 12 12 13 14 16 20 22 21 23 17 13 12 12 10 9 8 6 5 3 3 3 4 5 4 4 4 4 6 8 22 25 27 39 40 36 33 37 29 39 85 89 100
15 14 16 16 18 20 23 23 22 24 16 14 14 13 11 9 7 5 3 3 3 5 5 5 6 7 8 9 10 12 29 38 35 36 38 36 29 35 41 34 67 99 100
17 18 20 20 22 24 25 26 24 21 18 16 15 13 10 8 6 3 2 3 6 6 7 11 14 15 50 55 42 31 21 27 30 31 33 34 32 29 55 42 40 52 88
20 22 21 23 25 26 28 31 28 25 23 20 16 12 10 6 4 2 2 6 6 7 11 52 84 99 81 76 70 55 49 45 40 30 26 26 27 27 28 59 54 43 98